GFSNGP_prec_cloud_003.txt.gz
Cloud_Cover
4 4 4 4 2 5 5 5 42 100 53 5 61 93 64 6 5 5 5 25 79 92 100 100 100 100 100 100 100 100 100 98 95 37 100 100 100 100 100 100 100 97 55 77
5 4 4 5 2 5 5 5 30 14 5 5 5 5 5 8 48 77 88 92 97 100 100 100 100 100 100 100 70 66 100 100 100 30 49 5 5 6 87 100 100 100 100 98
100 51 5 34 5 5 5 5 5 5 5 5 5 41 35 93 84 75 100 100 100 100 100 100 100 96 98 94 96 95 87 95 46 14 5 5 5 5 5 5 5 5 5 5
66 22 37 12 5 5 5 7 5 5 5 46 59 82 88 80 100 100 100 100 100 100 100 99 22 10 49 98 73 68 95 24 28 61 30 5 5 5 2 5 5 7 6 9
91 94 8 1 5 5 5 5 15 5 5 44 68 99 100 100 100 100 100 100 100 100 100 68 85 80 100 100 100 46 53 100 100 88 61 5 5 0 5 5 5 14 16 5
91 98 83 0 5 5 10 63 59 46 87 100 97 100 100 100 100 100 100 100 100 100 100 97 96 73 8 25 27 90 100 100 100 100 58 5 3 0 2 4 4 5 5 5
100 100 10 5 6 72 97 92 100 100 99 100 100 100 100 100 100 100 100 94 75 97 100 100 84 63 5 6 18 63 92 91 86 40 24 5 3 0 0 5 5 5 5 5
82 93 57 62 100 100 94 100 100 75 94 100 100 100 100 100 99 70 87 81 100 98 100 92 52 7 3 0 4 5 5 56 75 55 5 5 5 5 5 5 6 41 63 97
100 33 76 92 100 90 100 100 100 100 100 99 82 46 51 46 97 78 89 81 94 69 46 65 12 5 5 5 5 5 5 65 64 5 5 4 12 5 53 83 97 96 100 100
96 59 84 98 88 100 99 83 85 100 97 81 5 34 100 33 68 9 13 5 5 36 37 5 5 5 46 19 52 20 5 5 5 5 5 7 89 15 73 100 100 100 100 100
90 48 56 99 100 100 98 100 94 23 27 12 90 96 99 66 5 5 5 5 5 3 3 5 21 99 100 100 100 87 36 5 5 5 6 78 22 5 43 73 64 97 100 100
95 100 98 100 100 100 100 97 96 100 71 100 45 13 14 5 8 5 5 5 5 4 5 44 100 100 100 100 90 77 55 5 5 5 50 40 5 5 8 5 5 5 16 89
100 99 100 100 100 42 7 5 5 56 18 5 29 59 26 5 4 5 5 5 5 4 14 100 100 100 100 100 100 90 23 5 5 49 6 5 5 5 74 10 45 17 68 96
100 99 87 98 62 53 5 5 63 7 5 30 2 4 0 0 5 5 5 5 5 5 92 100 100 100 100 100 100 99 31 33 9 5 5 5 5 5 5 58 87 100 96 99
100 90 88 99 40 6 5 36 72 18 5 5 5 5 2 1 5 5 5 5 5 44 100 100 100 100 100 100 100 85 95 10 5 5 5 19 5 5 7 76 100 100 100 96
100 82 96 100 95 28 90 100 56 6 5 5 4 0 0 22 90 93 53 13 17 42 99 100 100 100 100 100 95 98 87 29 6 24 5 5 5 5 71 90 100 100 100 100
100 100 87 12 66 100 99 71 50 11 5 5 0 0 16 93 100 100 100 74 50 74 100 96 100 100 100 100 100 100 100 98 73 5 5 59 6 14 52 91 100 100 100 100
96 49 67 98 12 5 25 97 48 8 2 0 1 5 69 100 100 100 100 98 72 84 100 100 100 100 100 100 100 93 100 100 99 67 9 66 49 6 14 77 100 100 100 100
50 95 97 36 13 20 7 4 2 4 5 3 5 5 5 80 100 100 100 77 71 97 100 81 85 100 100 100 100 100 100 99 99 96 65 49 78 9 7 57 90 100 98 100
99 36 12 5 5 5 2 5 5 5 5 5 5 5 27 81 100 100 98 67 97 76 94 85 100 100 100 100 100 100 100 100 100 98 94 97 96 95 63 33 35 100 100 100
94 14 5 5 76 1 4 5 5 5 5 5 8 32 88 100 100 99 94 61 100 65 100 100 100 100 100 100 100 100 100 100 100 96 89 99 99 98 95 50 70 98 100 100
28 11 52 53 5 1 5 5 5 5 5 5 18 100 100 100 100 100 98 32 84 64 36 81 16 37 98 100 82 81 99 100 97 97 89 99 100 100 100 94 88 96 100 100
55 32 23 5 0 5 5 5 5 5 5 18 55 93 100 100 100 100 100 74 87 98 5 19 50 58 89 78 65 52 56 92 98 97 98 94 100 100 100 100 100 99 99 95
76 11 5 0 5 5 5 5 5 5 41 52 93 100 100 97 74 89 54 26 98 74 8 8 52 76 89 94 64 90 88 100 93 73 92 86 98 100 99 100 99 98 90 74
5 1 0 4 10 14 37 7 11 84 100 100 100 100 100 100 100 98 91 87 76 60 30 54 62 73 84 56 71 98 100 98 90 99 93 91 94 95 96 100 99 98 91 72
2 0 4 6 27 60 82 81 100 100 100 100 100 100 100 100 100 100 100 98 87 57 92 94 51 82 95 99 64 77 90 82 88 90 92 100 93 97 96 97 100 100 99 87
3 67 9 5 5 8 99 100 100 100 100 100 100 100 100 100 100 100 99 100 99 93 99 100 98 100 100 97 81 80 90 89 94 99 98 99 98 98 96 99 94 100 99 100

GFSNGP_prec_cloud_006.txt.gz
Cloud_Cover
5 5 5 5 4 4 3 5 61 20 9 31 5 53 8 5 80 98 76 68 74 91 86 100 100 100 100 100 100 91 71 62 5 5 10 87 49 20 13 6 5 5 5 5
5 5 5 0 3 5 3 3 5 5 17 5 5 8 39 65 100 86 74 82 100 99 100 100 100 100 100 100 100 92 5 5 5 5 45 23 6 6 15 5 5 5 5 5
47 14 5 14 5 5 5 5 5 5 35 5 9 28 84 64 20 99 100 100 99 100 100 100 100 100 100 59 6 5 5 45 89 100 60 58 68 100 99 14 5 5 5 5
86 84 27 5 5 53 34 5 5 18 39 5 42 100 94 27 98 100 100 100 100 100 94 100 99 100 36 5 5 5 10 88 100 99 98 100 100 84 68 19 5 5 22 75
96 65 7 5 5 5 5 5 5 6 14 30 34 87 96 100 100 100 100 99 92 100 96 98 19 5 43 5 5 29 88 96 100 100 71 14 52 68 5 5 5 54 99 100
88 80 87 5 5 30 23 87 83 93 96 77 96 100 100 100 100 78 25 80 17 12 30 5 10 49 78 88 88 6 5 48 10 5 5 56 100 30 5 10 89 93 96 92
100 91 61 5 5 36 82 93 66 96 100 100 100 100 100 94 60 5 5 24 81 91 25 5 5 6 69 94 33 23 12 10 15 8 26 100 61 5 69 98 100 100 100 96
86 100 84 45 100 97 37 7 100 77 83 100 100 99 89 14 5 23 67 10 3 0 5 0 5 5 12 69 94 88 100 100 99 87 84 58 5 24 100 100 100 100 100 100
24 5 89 100 97 8 20 91 100 100 100 91 88 10 7 5 5 5 4 4 5 5 4 0 5 62 70 7 82 72 98 100 100 100 84 50 63 96 100 100 100 100 100 100
66 5 68 90 52 38 81 92 100 99 98 47 5 7 5 5 4 5 5 9 60 27 0 2 5 38 100 97 92 100 100 100 100 100 89 50 96 100 100 100 100 100 100 100
71 89 82 34 63 72 100 100 100 96 52 5 6 14 5 4 5 5 41 59 51 2 5 5 5 64 100 91 100 100 100 100 100 100 70 85 98 90 89 98 68 44 94 100
98 94 89 95 97 100 99 69 45 7 20 5 1 4 5 6 62 8 17 5 2 5 5 5 80 98 100 100 100 100 100 100 100 70 90 96 94 98 94 22 5 5 13 92
95 100 100 100 76 17 44 80 10 60 5 5 5 39 5 5 5 5 4 5 14 91 81 82 94 100 100 100 100 100 100 100 74 86 93 100 96 100 100 96 96 64 16 95
100 100 100 99 74 10 14 5 5 5 5 5 54 18 5 39 5 5 5 5 54 85 95 90 88 88 74 94 95 100 100 76 70 96 94 90 96 98 100 100 100 100 100 81
97 84 100 62 5 34 43 5 5 5 19 84 42 6 8 5 5 5 6 46 100 97 84 95 88 97 97 91 77 100 98 100 74 92 100 79 97 100 100 100 100 100 100 92
78 55 11 14 16 10 5 5 27 80 90 43 13 8 28 5 5 5 90 100 99 70 48 71 87 75 60 75 84 88 97 92 32 100 100 100 100 100 100 100 100 100 100 100
62 57 25 62 97 61 43 84 79 43 46 50 10 8 5 5 19 38 64 100 100 79 96 100 92 100 47 78 96 97 100 100 94 100 100 100 100 100 100 100 100 100 100 100
70 86 64 10 11 80 41 43 15 60 89 14 5 5 5 5 8 7 100 100 92 73 92 100 65 95 47 89 96 99 100 100 100 100 100 100 98 100 100 100 100 100 100 100
5 10 26 73 77 59 22 29 5 91 61 94 14 6 13 21 40 65 100 100 99 100 70 45 41 99 99 99 100 100 100 100 100 100 100 100 100 100 100 100 100 100 100 100
84 77 97 100 99 97 57 46 5 19 61 12 5 50 59 49 99 100 100 100 100 82 43 85 98 100 92 97 95 100 100 100 100 100 100 99 100 100 100 100 100 100 100 100
92 66 84 32 55 88 100 21 16 48 5 5 18 40 52 43 80 96 100 100 100 79 29 99 96 89 96 91 100 100 97 100 100 100 100 100 100 100 100 100 100 100 100 100
72 24 84 67 49 80 65 55 61 22 5 5 13 54 88 99 85 85 100 100 100 90 36 75 93 50 64 28 94 95 92 99 100 100 100 100 100 100 100 100 100 100 100 100
98 100 100 79 77 100 100 83 7 13 7 43 96 100 100 100 100 100 98 91 100 94 62 90 31 5 19 66 89 96 98 100 100 100 100 100 100 100 100 100 100 100 100 100
100 100 100 100 81 65 60 5 6 46 74 98 100 100 100 100 96 99 99 100 85 76 96 99 57 11 15 93 94 100 96 99 100 100 100 98 100 100 100 100 100 100 100 100
100 100 100 100 93 11 5 5 33 91 100 89 94 100 100 99 100 98 100 100 100 95 96 57 69 67 53 87 100 100 100 100 100 100 85 99 100 100 100 100 100 100 100 100
100 34 32 5 5 5 6 26 99 97 78 59 100 100 100 90 100 100 100 100 96 85 98 100 100 97 100 100 100 100 100 100 100 100 100 100 100 100 100 100 100 100 100 100
5 5 5 5 5 13 42 61 97 73 78 100 100 100 100 100 100 100 100 100 100 100 100 100 100 94 100 98 100 100 100 98 100 100 100 100 100 100 100 100 100 100 100 100

GFSNGP_prec_cloud_009.txt.gz
Cloud_Cover
0 0 5 6 29 5 6 17 82 43 99 100 98 62 35 83 89 79 100 60 9 90 100 100 100 100 91 99 100 56 63 12 27 10 46 93 100 100 100 29 5 5 5 5
0 0 0 0 5 5 5 12 5 89 93 100 20 68 94 100 94 100 9 10 100 100 100 100 100 95 99 85 95 40 78 76 81 100 69 100 100 100 85 5 5 5 5 49
5 7 4 8 20 5 66 88 69 100 100 94 88 100 100 97 95 16 49 99 68 42 84 94 95 95 100 100 100 100 100 100 100 53 80 100 100 100 100 10 16 66 99 100
66 73 52 16 52 24 13 5 59 98 99 99 37 99 62 44 99 84 57 67 89 93 88 57 6 25 22 100 100 100 100 70 99 100 100 100 100 100 67 92 100 100 100 100
79 42 58 18 5 5 5 5 31 64 51 29 24 24 74 90 80 87 80 100 100 100 14 3 8 53 100 88 96 99 100 97 48 30 100 100 100 100 83 100 100 100 94 88
82 63 54 29 97 69 15 63 79 82 40 31 71 94 74 87 74 100 100 96 25 34 41 67 25 5 5 47 100 19 100 11 5 99 94 100 100 100 100 100 100 79 32 98
96 54 18 20 5 4 17 44 50 13 6 43 72 95 56 16 70 99 70 5 18 6 5 5 5 5 5 33 100 96 100 99 39 100 100 100 100 100 100 100 82 85 7 68
76 78 70 24 63 59 75 55 55 23 96 100 99 94 38 78 81 30 7 5 5 5 5 5 5 5 5 5 96 62 100 100 100 100 100 100 100 100 100 92 100 66 99 88
58 28 90 100 100 100 100 95 98 98 100 100 98 100 35 25 6 5 5 5 5 5 5 5 5 5 84 9 12 90 46 94 100 100 100 100 100 100 99 100 99 88 100 100
44 58 97 60 100 100 81 100 13 80 100 100 82 17 11 5 6 5 5 5 5 5 13 91 100 98 100 24 65 89 80 89 100 100 100 100 100 100 100 84 98 100 100 100
70 33 56 73 51 99 86 56 99 97 47 32 35 7 5 11 32 5 5 5 5 73 100 100 100 100 100 97 95 79 82 98 100 76 92 93 98 96 61 91 5 20 35 94
41 98 29 90 98 100 100 94 74 31 12 5 5 5 7 17 5 5 5 5 16 24 64 83 91 97 85 100 86 65 83 72 36 24 78 94 100 100 74 6 5 5 11 30
82 31 36 68 97 100 100 66 5 5 5 5 5 5 5 5 5 5 5 21 36 26 76 95 100 100 100 100 76 66 52 71 51 70 100 100 91 95 100 100 69 59 76 5
76 44 48 100 100 68 91 74 13 5 5 5 5 5 5 5 5 5 32 72 6 16 75 99 100 100 76 100 91 66 60 59 92 100 98 98 94 100 100 100 100 100 100 65
12 64 100 100 100 89 63 6 5 18 6 5 5 5 5 5 10 54 100 19 41 81 73 84 86 52 100 73 77 94 63 94 92 100 100 99 100 100 100 100 100 100 100 99
98 92 99 81 46 29 51 42 13 5 5 5 5 5 5 5 88 100 17 66 94 100 98 91 96 60 93 94 74 84 98 82 96 100 100 100 100 100 100 99 100 100 100 100
79 60 28 88 100 100 100 52 20 5 5 5 5 5 18 92 100 6 5 23 100 100 100 100 100 100 100 74 95 80 100 100 100 100 100 100 100 100 100 100 100 100 100 86
78 98 100 100 100 97 49 29 5 6 34 5 5 8 66 45 41 59 75 95 100 100 85 100 100 100 82 76 80 78 89 97 100 100 100 100 100 100 100 100 100 100 100 100
93 72 98 100 65 5 5 10 26 21 14 17 34 99 100 42 47 9 7 99 100 100 98 57 89 5 56 91 98 100 100 100 100 100 100 100 100 100 100 100 100 100 100 100
5 38 100 86 92 37 9 9 36 5 5 10 97 79 14 6 31 66 85 98 100 100 100 91 93 79 7 92 90 94 100 100 100 100 100 100 100 100 100 100 100 100 100 100
80 97 68 41 30 35 96 18 20 10 86 100 62 18 23 100 100 100 100 60 82 99 99 94 100 82 97 76 97 100 100 100 100 100 100 100 100 100 100 100 100 100 100 100
22 6 45 61 48 6 31 30 38 92 100 100 53 92 100 100 100 100 100 92 65 100 100 100 99 81 54 5 56 90 98 97 100 100 100 100 100 100 100 100 100 100 100 100
92 94 90 53 37 38 62 74 100 100 83 75 100 100 100 100 100 80 72 62 98 98 100 97 100 96 7 74 98 100 90 100 100 100 100 100 100 100 100 100 100 100 100 100
21 40 85 82 60 84 97 66 100 16 78 84 100 100 100 100 98 88 88 99 91 100 100 100 100 52 5 100 94 100 94 100 100 100 100 100 98 96 99 100 100 100 100 100
98 100 100 98 87 82 24 7 5 10 57 71 92 100 100 100 99 84 99 100 100 100 100 100 100 84 95 99 100 100 90 93 100 100 100 86 99 100 100 100 100 100 100 100
100 100 100 97 17 5 5 8 9 62 100 87 60 72 83 100 100 100 100 100 100 100 100 100 100 100 100 100 100 99 89 100 100 100 100 100 100 100 100 100 100 100 100 100
100 80 8 6 5 5 8 5 17 54 74 86 95 82 90 100 100 100 100 100 100 100 100 100 100 100 99 100 99 88 100 100 100 100 100 100 100 100 100 100 100 100 100 100

GFSNGP_prec_cloud_012.txt.gz
Cloud_Cover
0 0 0 0 1 4 5 5 71 9 100 96 85 7 70 5 5 5 33 25 15 8 17 5 8 16 67 86 90 24 5 100 89 79 42 5 5 2 22 5 5 5 5 5
0 0 0 0 0 0 1 5 64 22 5 100 90 5 5 5 9 16 5 5 5 5 5 9 32 88 84 34 100 7 6 100 53 6 100 95 100 5 5 78 61 11 56 99
4 2 0 5 5 5 5 58 5 68 22 92 19 5 5 99 41 6 47 56 5 5 46 96 70 39 32 75 75 4 2 90 16 82 100 53 100 76 25 8 27 95 100 99
11 31 17 5 5 5 5 35 70 94 96 48 24 55 24 67 24 51 52 7 5 62 46 90 27 5 5 5 2 2 95 86 12 61 6 100 100 100 5 38 94 100 100 92
62 5 5 5 6 5 5 0 20 13 6 5 49 58 34 38 16 50 52 5 15 28 8 5 76 70 5 0 4 58 14 35 5 100 76 100 100 98 12 97 59 100 12 85
82 10 5 0 53 5 50 24 58 8 10 17 17 23 76 5 5 5 6 70 48 5 13 83 11 5 1 5 5 5 5 5 9 99 100 100 83 64 58 97 94 44 5 5
52 99 11 0 5 1 4 11 6 6 5 5 58 72 56 5 17 8 5 5 5 5 5 5 5 1 5 3 5 46 3 5 33 34 100 98 69 12 99 96 68 7 5 5
74 84 33 5 30 13 36 8 63 57 13 5 20 46 41 68 22 6 5 5 2 4 5 4 0 5 45 5 4 1 5 5 5 72 29 6 7 84 95 20 5 5 5 5
4 5 4 68 82 5 5 5 48 96 7 5 5 41 9 5 27 11 5 5 5 5 5 5 85 99 93 5 5 5 5 5 52 30 74 9 5 36 48 5 5 5 5 5
5 2 4 18 96 79 24 82 31 100 100 90 88 6 5 58 5 5 49 5 5 5 5 5 6 64 13 5 5 5 88 93 73 9 7 5 85 85 5 5 5 5 5 5
5 3 28 72 5 5 18 100 100 99 88 91 60 70 24 42 20 11 5 5 5 5 5 5 11 18 5 5 5 70 97 28 5 5 5 5 5 12 43 5 5 5 5 5
5 52 100 92 68 68 51 100 100 100 100 40 46 11 16 5 20 5 5 5 5 5 5 32 14 6 95 66 21 8 22 5 5 5 5 10 5 13 5 5 5 5 12 5
99 100 75 51 66 84 100 100 100 100 99 92 89 20 5 6 5 5 5 5 5 5 6 41 5 96 100 82 66 77 6 5 5 5 65 10 7 28 93 85 64 5 72 23
100 78 25 15 34 90 100 100 100 98 100 83 24 5 9 15 5 5 5 5 5 7 62 24 42 100 96 95 54 31 5 5 5 74 71 62 93 100 100 100 97 96 99 79
6 12 40 72 100 100 100 100 70 30 22 78 52 55 6 5 5 5 5 5 7 10 5 100 98 37 22 86 48 5 13 75 5 22 100 100 100 100 100 100 99 100 100 98
9 63 92 98 80 70 50 9 5 18 39 93 48 38 5 5 5 35 45 26 14 5 10 100 100 100 79 100 92 12 29 93 42 81 100 100 100 100 100 100 100 100 100 93
98 49 99 82 42 30 16 78 75 100 70 52 71 9 22 5 5 83 55 54 5 5 93 100 100 100 75 100 84 64 97 44 85 100 100 100 100 100 100 100 100 98 100 97
100 100 86 96 72 81 86 98 82 28 79 5 5 59 69 6 64 70 93 16 69 99 100 100 100 100 100 100 83 71 19 42 90 96 100 100 100 100 100 100 100 100 100 100
96 92 75 72 61 78 60 66 59 55 23 38 55 13 5 81 95 75 91 100 100 95 83 96 100 97 76 6 34 34 76 100 100 92 100 100 100 100 100 100 100 100 98 100
99 99 100 100 100 97 93 90 63 79 95 98 9 31 39 75 67 99 99 100 100 88 87 86 100 82 79 48 7 5 39 98 99 100 100 100 100 100 100 100 100 100 100 100
100 100 100 100 100 100 100 100 83 90 79 33 61 99 97 100 100 95 100 100 31 55 99 100 100 82 60 58 90 12 5 34 94 95 100 100 100 100 100 100 100 100 100 100
100 100 100 100 100 100 100 100 92 93 98 100 100 88 60 97 100 100 100 92 85 90 100 100 100 76 68 87 97 86 5 80 89 91 100 100 100 100 100 100 100 100 100 100
100 100 100 100 100 100 94 80 69 98 100 100 100 34 7 84 100 100 76 50 81 100 90 99 100 98 100 100 94 88 85 19 96 98 100 100 93 97 100 100 100 100 100 100
100 100 100 100 100 100 100 100 100 100 100 100 100 66 80 62 99 96 100 100 87 100 100 100 100 100 100 99 100 82 100 80 55 100 100 100 100 100 100 98 100 100 100 100
100 100 100 100 100 100 100 100 77 3 72 5 26 21 42 100 100 98 100 100 100 100 100 100 96 100 100 100 100 100 100 99 90 76 93 100 100 97 99 100 100 100 100 100
100 100 100 100 100 35 5 5 5 5 5 5 5 5 10 99 100 100 100 100 100 100 100 100 100 100 100 100 100 100 100 100 88 98 100 100 100 100 100 100 100 100 100 100
100 100 100 18 1 1 0 10 15 86 12 42 12 5 79 80 71 90 100 100 100 100 100 100 100 100 100 100 100 100 100 100 100 100 100 100 100 100 100 100 100 100 100 100

GFSNGP_prec_cloud_015.txt.gz
Cloud_Cover
0 0 0 0 0 0 0 0 0 2 58 61 5 28 98 49 5 5 24 5 5 5 5 5 7 25 8 11 5 5 1 5 5 5 34 66 46 50 100 100 100 37 84 100
0 0 1 4 0 0 0 0 0 4 5 45 5 5 5 5 5 5 5 5 5 5 5 5 5 5 5 5 5 3 0 0 0 54 83 85 86 100 100 100 100 99 100 39
14 2 1 0 0 0 0 0 1 1 2 0 1 1 5 53 74 43 27 37 5 5 5 5 4 5 4 5 5 5 5 0 0 5 6 81 64 100 100 100 95 96 98 59
8 5 5 0 0 0 0 0 0 5 5 5 4 5 69 80 50 23 8 5 5 5 4 4 5 4 3 5 5 3 0 0 1 4 2 4 49 100 100 100 100 95 95 5
85 5 5 5 5 4 4 2 0 1 0 4 5 36 43 6 5 5 5 5 5 1 2 26 60 6 5 5 1 0 0 0 5 0 5 42 95 100 90 100 100 100 5 5
82 6 5 5 5 5 3 4 0 2 5 5 5 39 14 5 5 5 5 5 5 5 33 5 4 2 5 1 4 0 1 5 1 4 5 8 48 99 100 100 99 8 5 5
91 5 4 0 2 4 2 1 0 4 5 5 5 15 30 5 5 6 20 10 4 5 5 0 3 5 1 5 5 4 5 1 4 4 5 16 90 93 100 91 6 5 5 5
62 39 49 0 1 5 5 3 5 5 5 8 94 86 16 19 51 83 74 5 5 5 5 5 5 0 1 4 4 5 0 2 5 5 21 97 100 100 37 5 5 5 5 5
100 50 16 0 3 5 2 5 39 6 59 100 54 62 95 82 14 33 5 5 5 5 5 5 4 0 2 5 40 2 0 5 5 5 18 73 80 5 5 5 5 5 5 5
63 6 5 5 5 5 5 5 8 60 20 28 100 100 52 93 93 12 5 5 5 5 5 4 0 3 5 8 49 0 2 5 5 5 5 5 5 5 5 5 5 5 5 5
5 5 8 5 5 5 5 17 100 99 40 87 98 98 98 100 100 90 83 5 5 5 4 3 5 5 5 22 5 5 5 5 5 5 5 5 5 5 5 5 5 5 5 5
43 52 93 5 85 33 78 100 97 100 94 99 99 100 100 100 100 75 51 5 5 5 5 5 5 5 5 5 5 35 5 5 5 5 5 92 81 20 5 5 5 5 5 5
85 80 42 52 99 100 100 84 55 88 92 79 100 100 100 54 77 61 11 5 5 31 5 5 5 48 71 77 90 67 5 5 5 5 5 5 50 94 77 5 67 5 8 95
100 100 92 100 100 100 98 54 82 100 94 89 33 5 5 26 50 39 5 8 66 57 5 6 25 34 100 100 97 97 75 5 55 86 65 11 87 100 100 99 80 60 54 81
100 100 100 99 100 100 97 91 100 63 61 23 34 26 55 9 5 6 65 97 100 14 10 52 21 99 100 84 80 100 9 5 77 100 98 80 100 100 100 100 100 100 100 63
100 100 100 100 100 99 100 100 59 42 22 56 7 5 5 5 22 98 97 100 74 47 89 26 74 99 100 99 76 100 16 35 76 94 87 84 100 100 100 100 100 100 100 78
100 100 100 100 100 100 100 100 100 100 83 16 46 69 40 89 97 100 100 100 100 100 100 77 80 100 100 100 100 100 91 97 98 75 95 80 100 100 100 100 100 100 100 94
100 100 100 100 100 100 100 98 100 76 97 68 53 83 100 97 77 100 100 100 100 100 99 84 100 100 96 100 100 100 96 96 92 46 69 100 100 100 100 100 98 100 100 100
100 100 100 100 100 98 100 95 95 100 97 61 91 96 75 100 100 100 100 100 100 100 52 100 65 100 100 99 69 59 6 5 5 99 100 92 100 100 100 100 100 99 100 100
100 100 100 100 98 98 100 100 93 54 87 85 71 100 100 100 100 99 100 100 100 71 94 78 99 100 100 100 82 8 5 5 5 10 94 86 94 100 100 100 100 100 82 100
100 100 100 100 100 100 100 86 100 100 100 100 100 100 100 100 74 21 92 80 13 5 89 76 100 96 90 100 99 55 74 71 8 54 79 17 99 96 100 100 100 100 85 97
100 100 100 100 100 100 100 100 100 100 100 100 100 100 100 60 5 5 56 56 9 75 88 76 100 80 100 100 100 96 88 74 5 5 96 79 95 100 100 100 100 100 98 96
100 100 100 100 100 100 100 100 100 100 100 100 100 100 84 10 5 34 75 54 99 100 100 100 100 100 100 100 100 100 100 96 72 87 98 100 100 100 100 100 100 100 100 100
100 100 100 100 100 100 100 100 100 100 100 100 95 99 52 27 5 23 60 93 100 100 100 100 100 100 100 100 100 100 100 100 80 84 80 72 99 100 100 100 99 100 100 100
100 100 100 100 100 100 100 100 100 100 69 15 56 35 70 96 30 11 80 83 100 100 100 100 100 100 100 100 100 100 100 100 100 100 87 98 100 100 100 100 100 100 100 100
100 100 100 100 100 100 100 100 58 3 12 24 38 69 100 31 86 57 82 100 100 100 100 100 100 100 100 100 100 100 96 94 99 99 100 100 100 100 100 100 100 100 100 100
100 100 100 100 100 56 5 24 82 93 95 99 100 100 88 98 88 92 100 97 84 58 88 98 100 100 100 100 100 100 100 100 100 100 100 100 100 100 100 100 100 100 100 100

GFSNGP_prec_cloud_018.txt.gz
Cloud_Cover
0 0 0 5 5 0 0 2 1 0 0 0 0 2 4 4 5 5 7 85 93 77 74 5 31 42 6 5 5 5 57 6 5 68 0 0 3 18 38 76 51 100 100 100
0 0 5 1 0 0 0 0 0 0 0 0 0 3 5 5 5 90 100 100 98 25 5 5 5 6 5 5 5 5 5 5 1 0 0 0 0 5 23 57 100 100 100 100
5 5 5 5 2 1 0 0 0 0 0 0 0 0 0 5 5 96 99 75 5 5 5 6 11 5 5 5 5 5 0 1 2 0 0 0 4 33 68 78 100 100 100 100
5 5 5 5 5 2 1 0 0 0 0 0 1 3 5 5 5 10 5 5 5 5 5 5 5 5 16 5 5 5 5 2 0 0 1 0 5 13 76 55 100 100 98 36
81 16 5 6 5 5 5 41 5 5 0 0 4 4 4 5 5 54 88 7 5 5 5 5 5 5 5 5 5 5 0 0 0 0 5 2 7 66 34 72 10 86 84 77
93 5 5 7 6 30 41 99 39 100 47 5 5 11 6 5 5 62 93 5 14 23 8 39 12 6 5 5 5 2 0 1 5 5 5 5 11 100 96 36 95 100 89 34
79 25 35 6 5 5 55 75 5 5 88 8 99 100 28 10 99 76 26 83 77 70 70 77 13 5 5 4 5 0 5 5 5 5 5 47 98 98 68 76 53 65 65 5
100 100 100 32 5 9 12 51 6 71 100 100 100 95 24 32 93 97 100 92 73 80 65 41 16 5 5 5 1 5 32 14 10 5 5 16 59 37 78 25 73 34 5 5
100 100 100 100 79 42 5 82 100 100 60 100 100 92 94 76 100 100 82 73 82 100 48 5 5 5 5 4 15 94 30 7 5 5 5 5 5 32 61 8 5 5 5 6
93 100 100 26 56 56 54 97 99 19 80 100 100 88 16 66 99 89 90 100 93 31 5 5 5 5 5 6 100 66 5 5 5 5 5 5 5 5 5 5 5 5 5 5
6 78 6 95 86 5 12 99 90 100 100 100 69 14 97 97 91 64 61 88 50 13 6 5 5 5 36 99 100 26 12 23 5 5 5 5 44 100 72 14 5 5 5 5
6 12 8 61 12 5 93 100 100 100 97 92 50 88 88 45 12 30 83 66 65 32 5 5 7 58 100 100 86 100 93 100 48 6 12 5 82 99 99 64 5 5 5 5
82 100 100 100 67 100 100 100 100 98 96 100 86 69 8 60 53 86 46 65 29 5 5 5 36 92 100 99 94 100 98 100 100 6 50 100 100 76 98 12 5 5 5 5
100 100 100 100 100 100 100 100 91 75 98 97 72 46 76 81 9 31 5 5 5 41 82 40 78 99 100 51 100 86 100 100 100 97 65 100 100 94 99 98 82 47 5 10
100 100 100 100 100 100 100 100 100 72 97 88 72 75 91 67 18 5 19 32 88 99 100 92 100 100 48 100 100 100 100 100 96 52 48 100 100 15 100 99 92 82 53 27
100 100 100 100 100 100 100 100 100 90 99 79 99 100 76 5 5 11 25 68 100 100 100 100 100 65 100 100 100 100 100 100 93 84 100 99 100 50 100 100 99 99 80 71
100 100 100 100 100 100 100 100 100 100 100 85 82 55 5 34 13 64 67 100 100 100 100 100 86 100 100 100 100 100 100 100 100 100 100 100 100 100 100 100 100 100 86 99
100 100 100 100 100 100 100 100 100 100 91 70 21 49 99 100 27 69 100 100 100 100 100 78 100 100 100 100 100 100 100 100 100 100 68 75 92 100 100 100 100 100 85 80
100 100 100 100 100 100 100 93 100 100 46 28 91 100 96 50 77 100 100 100 100 48 5 93 100 100 100 100 100 100 96 89 32 15 11 38 90 89 100 100 99 100 100 83
100 100 100 100 100 100 100 100 98 86 99 100 96 98 100 82 94 100 100 100 13 24 9 6 96 58 100 100 70 100 96 70 5 5 70 80 94 72 100 99 100 100 99 100
100 100 100 100 100 100 100 100 100 100 100 99 98 100 77 100 100 100 100 100 5 28 77 95 100 89 100 100 100 100 98 97 75 77 88 77 72 77 62 100 100 100 100 99
100 100 100 100 100 100 100 100 100 100 100 100 100 100 99 100 100 100 100 76 5 40 100 100 100 100 100 100 100 100 90 100 100 99 99 97 85 88 84 92 100 100 100 100
100 100 100 100 100 100 100 100 100 100 100 100 100 100 100 100 100 100 30 5 14 27 40 92 100 100 100 100 100 100 100 100 100 100 100 97 98 100 100 100 100 100 100 100
100 100 100 100 100 100 100 100 100 100 100 99 100 100 100 100 16 73 60 9 40 20 82 88 100 100 100 100 100 100 100 100 84 82 82 100 89 99 95 100 100 100 100 100
100 100 100 100 100 100 100 100 100 100 100 100 100 38 97 100 79 46 70 15 78 100 98 95 91 97 100 100 100 100 100 97 90 100 100 100 100 100 100 100 100 100 100 100
100 100 100 100 100 100 100 100 100 100 99 41 32 30 9 41 100 99 73 99 100 100 90 95 99 100 100 100 96 100 100 100 90 97 100 100 100 100 100 100 100 100 100 100
100 100 100 100 100 100 65 55 99 100 25 51 96 82 68 96 100 100 100 100 88 100 100 100 95 100 100 77 98 100 98 100 100 100 100 100 100 100 100 100 100 100 100 100

GFSNGP_prec_cloud_021.txt.gz
Cloud_Cover
3 0 0 0 1 0 0 1 4 3 2 0 0 0 0 0 0 5 5 5 90 77 78 100 98 50 5 10 5 5 5 5 5 5 5 0 0 0 1 70 100 32 63 100
5 2 1 0 0 3 5 5 5 5 5 0 0 0 0 0 1 5 5 74 83 97 100 100 85 5 5 5 5 5 6 6 5 5 0 0 0 0 5 12 40 100 96 87
5 5 5 6 5 5 14 5 5 5 5 5 5 5 5 5 5 10 88 100 100 83 88 95 14 7 5 5 5 5 5 5 5 5 2 0 5 5 16 95 92 77 36 81
18 5 54 29 40 5 12 6 5 5 5 10 48 85 11 34 11 58 100 45 38 25 10 50 7 6 5 36 23 5 5 5 5 5 1 6 39 5 5 27 51 6 35 99
5 14 8 99 88 5 7 55 5 5 5 48 82 69 72 6 27 73 67 80 100 82 62 68 42 74 100 85 39 52 29 5 5 5 10 54 8 12 62 56 68 82 52 9
80 6 9 100 76 10 5 98 100 16 26 100 100 100 93 22 47 61 79 100 100 100 72 47 97 92 73 60 99 97 5 5 4 6 100 88 5 59 54 100 98 10 90 98
92 100 100 100 87 52 85 57 100 100 100 100 100 100 68 91 96 88 100 100 99 64 59 86 99 97 84 100 49 3 0 0 6 100 100 17 5 11 81 87 93 100 93 13
100 100 100 100 98 85 94 35 21 51 100 100 100 85 94 41 95 100 100 86 93 96 100 100 80 63 76 20 4 2 3 5 90 100 77 5 5 5 13 94 96 25 5 5
100 100 100 44 14 100 76 5 60 83 100 100 100 100 100 100 100 100 77 24 26 59 84 35 47 30 5 1 5 5 5 78 100 100 5 5 5 5 5 5 5 10 7 51
100 100 100 17 100 100 90 25 69 100 100 100 100 100 100 100 85 76 7 56 61 79 35 58 27 6 5 5 5 7 99 100 100 70 5 5 5 5 25 97 98 7 14 33
43 93 13 96 100 99 66 58 100 100 100 100 100 100 100 100 98 76 92 89 100 96 72 27 28 5 5 5 7 96 100 100 100 92 78 5 7 93 100 100 87 80 60 5
5 77 78 100 92 22 22 74 74 100 93 94 100 100 100 99 99 100 93 90 98 100 72 13 5 5 5 5 97 100 100 100 100 100 100 43 54 74 98 99 87 100 47 12
10 86 25 6 5 34 91 99 100 100 100 100 100 100 100 100 100 100 91 99 100 84 32 5 5 5 45 93 100 100 100 100 100 100 100 100 100 100 99 61 76 66 44 5
100 97 96 100 99 100 100 100 100 100 100 100 100 100 100 100 100 100 100 100 100 71 53 22 8 99 81 100 100 100 100 100 100 100 100 100 100 100 98 98 100 72 44 5
100 100 100 100 100 100 100 100 100 100 100 100 100 100 100 100 100 100 100 100 95 81 58 57 100 80 100 99 100 100 100 100 100 100 100 100 100 99 100 100 100 100 87 14
100 100 100 100 100 100 100 100 100 100 100 100 100 100 100 100 100 100 100 100 100 93 100 100 100 100 100 100 100 100 100 100 100 100 100 100 100 100 100 100 100 100 92 76
100 100 100 100 100 100 100 100 100 100 100 100 100 100 100 100 100 100 100 100 100 100 86 81 100 100 100 100 100 100 100 100 100 100 100 100 100 83 100 97 100 94 61 82
100 100 100 100 100 100 100 100 100 100 100 100 100 100 100 100 100 100 100 100 99 98 100 100 98 79 100 100 100 100 100 100 100 100 100 99 60 85 99 81 90 100 27 83
100 100 100 100 100 100 100 100 100 100 100 100 100 100 100 100 100 100 100 100 100 100 100 100 42 83 81 89 87 100 100 100 100 100 69 51 72 61 82 65 94 100 96 84
100 100 100 100 100 100 100 100 100 100 100 100 100 100 100 100 98 83 100 100 100 100 91 5 55 100 100 99 97 100 100 100 100 100 87 63 88 71 74 73 60 71 100 98
100 100 100 100 100 100 100 100 100 100 100 100 100 100 100 100 100 100 100 100 100 16 5 8 36 94 100 100 100 100 100 100 100 100 100 96 100 89 74 84 93 100 100 100
98 100 100 100 100 100 100 100 100 100 100 100 100 100 100 100 100 100 100 62 12 6 11 5 21 16 92 100 100 100 100 100 100 100 100 100 99 99 95 90 100 100 100 100
100 99 99 100 100 100 100 97 96 100 100 100 100 100 100 100 96 90 98 17 70 66 58 24 48 95 81 98 93 100 100 100 100 100 99 100 100 100 100 100 100 100 100 100
100 100 100 100 100 100 100 100 100 100 100 100 100 100 48 38 69 81 33 78 100 100 79 98 96 100 100 100 100 100 96 100 100 100 100 100 100 100 100 100 100 100 100 100
100 100 100 100 100 100 100 100 94 83 29 27 8 5 5 30 100 45 100 100 98 90 92 100 83 96 100 100 100 100 100 92 97 96 100 100 99 100 100 100 100 100 100 100
90 65 47 6 5 5 5 5 36 64 100 100 58 6 5 9 88 100 100 100 99 99 100 96 100 95 82 100 100 98 96 100 100 99 100 100 94 99 100 100 100 100 100 100
21 43 61 19 9 25 53 94 100 100 100 100 100 87 74 78 90 92 100 100 99 100 98 86 89 36 55 96 100 100 100 92 78 100 100 100 99 100 99 100 100 100 100 100

GFSNGP_prec_cloud_024.txt.gz
Cloud_Cover
4 5 5 5 3 2 4 5 5 5 5 5 5 5 5 5 5 3 4 5 5 5 96 74 91 99 8 60 18 5 5 5 6 19 8 47 5 5 5 4 6 98 54 94
12 5 5 5 5 18 5 10 5 5 5 5 5 5 5 5 5 5 16 80 44 97 86 100 97 74 6 5 5 5 5 20 47 39 33 48 32 5 0 12 100 100 100 99
7 5 54 100 5 12 65 46 5 5 5 10 40 65 95 100 100 100 100 100 92 100 100 100 100 74 73 37 69 76 31 49 16 48 100 5 5 3 5 9 98 75 89 5
5 5 74 17 26 5 5 7 11 5 25 45 67 100 100 51 79 100 100 100 100 100 80 36 66 92 100 100 100 100 72 83 99 100 27 5 5 2 9 98 83 16 38 45
5 5 15 96 100 58 12 87 100 5 8 5 24 99 100 78 95 65 100 100 97 99 52 88 100 100 100 100 100 100 99 100 80 37 5 5 0 5 100 66 98 99 99 7
48 5 5 100 100 100 58 98 31 98 53 100 100 100 100 84 19 47 60 44 98 100 100 100 100 100 100 100 100 100 100 71 68 29 0 4 5 78 100 7 53 9 81 48
90 5 65 100 100 100 82 16 55 60 52 99 100 100 100 97 50 66 86 100 100 100 100 100 96 86 100 100 100 100 100 45 5 5 5 5 49 100 5 5 8 63 71 24
60 32 69 100 97 80 11 96 100 100 91 100 100 100 100 100 100 98 100 100 100 100 100 95 94 100 100 100 100 84 41 5 5 7 39 17 100 6 5 5 9 20 5 5
32 64 54 100 98 25 100 100 100 100 100 100 100 100 100 100 100 100 100 100 100 100 100 100 100 100 94 100 93 58 97 5 5 42 93 97 9 5 5 5 29 86 85 62
100 100 100 99 100 100 44 91 98 100 100 100 98 100 100 100 100 100 100 100 100 100 100 100 99 100 100 94 90 100 54 5 5 6 86 88 69 56 5 54 100 100 100 45
86 91 27 100 100 88 36 23 93 100 100 100 100 100 100 100 100 100 100 100 100 100 100 100 100 100 100 95 100 100 23 24 31 97 95 100 92 65 18 72 96 96 100 50
5 5 7 82 77 71 75 100 100 100 100 100 100 100 100 100 100 100 100 100 100 100 100 100 100 100 98 100 100 100 79 61 98 100 100 100 97 70 48 25 16 96 88 33
5 5 12 92 59 53 34 64 66 35 71 100 100 100 100 100 100 100 100 100 100 100 100 100 100 100 100 100 96 91 65 98 100 100 100 100 100 82 98 68 52 69 76 22
26 22 33 25 56 94 88 94 100 100 100 100 100 100 100 100 100 100 100 100 100 100 100 100 100 100 100 100 88 47 88 100 100 100 100 100 100 99 100 100 65 88 98 90
75 51 34 94 100 100 100 100 100 100 100 100 100 100 100 100 100 100 100 100 100 100 100 100 100 100 95 81 93 99 100 100 100 100 99 98 99 100 100 95 72 99 89 95
100 100 100 100 100 100 100 100 100 100 100 100 100 100 100 100 100 100 100 100 100 100 100 73 79 90 99 100 100 93 99 100 100 93 97 89 100 97 87 96 100 100 100 98
100 100 92 100 97 100 100 100 100 100 100 100 100 100 100 100 100 100 100 100 100 99 17 77 99 100 100 100 95 81 92 100 100 99 100 100 97 100 85 87 82 100 97 96
69 83 97 100 100 100 100 100 100 100 100 100 100 100 100 100 100 100 100 100 94 98 95 100 100 100 100 88 89 100 99 100 100 100 97 100 98 72 83 77 51 34 88 100
100 100 100 100 100 100 100 100 100 100 100 100 100 100 100 100 100 100 100 100 100 100 100 100 100 100 10 87 100 100 100 99 100 100 100 98 95 80 59 68 79 88 86 86
100 100 100 100 100 100 100 100 100 100 100 100 100 100 100 100 100 100 100 100 100 100 100 99 19 5 6 50 94 100 100 100 100 100 100 100 96 97 75 80 98 93 72 74
100 100 100 100 100 100 100 100 100 100 99 99 100 100 100 100 100 100 100 100 100 94 62 75 94 58 5 21 90 100 100 100 100 100 100 95 89 88 94 100 96 100 100 100
92 98 98 90 87 94 89 100 100 100 100 100 100 100 100 100 100 100 100 62 5 5 72 88 98 83 34 83 100 100 100 100 100 100 100 100 95 96 98 100 100 100 100 100
100 100 100 100 100 100 100 100 100 100 100 100 100 100 100 96 38 93 8 6 30 71 100 96 97 89 99 99 100 100 100 100 100 98 100 98 88 88 89 99 100 100 100 100
100 100 100 100 100 100 100 100 100 100 100 86 14 7 28 36 7 8 16 73 69 100 100 100 93 18 82 89 100 100 100 100 100 100 100 100 100 92 99 95 93 100 100 100
100 100 99 100 92 89 39 23 16 14 57 74 80 50 24 35 91 73 100 100 99 94 100 100 100 96 96 100 100 100 100 100 100 100 100 100 100 100 99 96 87 100 100 99
73 97 92 61 94 100 100 100 100 100 100 97 68 94 99 72 100 83 80 100 99 82 90 100 100 77 93 100 100 100 100 100 100 100 100 100 100 100 100 92 89 98 94 98
82 79 100 100 100 100 71 82 97 95 89 95 100 87 86 100 100 100 52 88 100 99 100 100 99 88 100 100 100 100 100 100 97 100 100 100 100 100 100 99 95 100 95 98

GFSNGP_prec_cloud_027.txt.gz
Cloud_Cover
0 0 4 41 24 2 5 0 5 5 18 36 8 5 5 5 12 7 5 15 54 13 88 100 100 84 98 100 57 41 7 5 9 80 100 100 100 94 100 23 16 44 98 100
5 5 70 97 22 3 5 2 5 11 20 5 5 5 66 89 17 34 8 5 5 14 100 100 100 100 100 73 5 5 25 37 33 86 100 100 100 100 24 21 27 66 43 76
82 17 98 100 30 5 5 5 5 5 5 5 87 100 48 28 26 63 6 15 49 85 100 100 89 96 100 73 60 59 47 92 100 100 100 100 100 24 14 38 5 5 71 6
89 5 63 99 93 12 4 5 5 5 5 100 61 54 100 96 99 64 5 27 71 99 100 100 99 100 91 84 85 94 100 100 100 100 100 100 41 45 100 16 5 5 16 35
5 5 54 100 99 71 4 6 4 4 97 100 23 91 100 100 84 26 68 62 100 100 100 100 91 92 98 94 100 100 100 100 100 100 35 7 64 90 16 5 5 5 5 5
5 5 82 100 100 16 5 38 64 100 100 100 50 65 81 5 30 100 100 100 100 100 100 100 100 100 100 100 100 100 100 100 100 27 14 100 55 42 4 0 5 5 5 7
6 5 28 40 5 6 7 42 100 100 99 97 63 9 8 12 77 55 100 100 100 100 100 100 100 100 100 100 100 100 100 97 86 65 92 40 63 6 5 5 5 5 17 56
24 20 5 5 5 81 93 85 54 30 5 5 7 21 16 16 95 100 100 100 100 100 100 100 100 100 100 100 100 100 96 96 94 79 5 27 7 5 5 5 5 5 5 10
21 7 4 4 5 13 72 99 48 5 5 21 25 31 28 89 100 100 100 100 100 100 100 100 100 100 100 100 100 100 100 99 100 100 5 5 5 18 38 5 5 29 93 65
5 36 17 96 100 96 16 5 5 5 5 9 36 48 68 90 100 100 100 100 100 100 100 100 100 93 100 100 100 100 100 100 100 14 5 21 71 94 32 5 5 62 80 77
100 100 100 100 73 10 5 5 5 6 49 48 64 46 56 94 100 100 100 100 99 98 100 100 100 100 100 100 100 100 100 100 94 13 7 79 97 73 76 10 5 83 88 77
100 54 5 21 30 5 58 44 63 72 60 78 100 100 100 100 100 100 100 100 100 100 100 100 100 100 100 100 100 100 100 65 5 38 40 100 94 52 23 66 81 57 5 6
8 5 5 5 5 6 6 6 19 44 35 100 100 100 100 100 100 100 100 100 100 100 100 100 100 100 100 100 90 6 13 6 24 40 100 79 84 94 72 60 81 77 5 5
5 5 5 5 17 17 8 31 45 88 100 100 100 100 100 100 100 100 100 100 100 100 100 100 100 100 100 100 99 34 5 6 84 100 96 99 96 90 95 94 100 84 5 21
65 26 5 5 20 27 10 47 100 100 100 100 100 100 100 100 100 100 100 100 100 100 100 100 100 100 100 100 95 82 69 100 100 99 100 95 100 100 82 99 92 18 38 36
100 98 79 68 100 100 100 100 100 100 100 100 100 100 100 100 100 100 100 100 100 100 100 100 100 46 97 100 99 99 100 100 80 82 100 96 99 100 98 71 70 81 82 78
99 97 100 100 100 100 100 100 100 100 100 100 100 100 100 100 100 100 100 100 100 100 100 99 100 100 100 100 100 100 66 98 66 60 100 98 98 100 99 99 83 90 91 68
100 100 100 100 100 100 100 100 99 100 100 100 100 100 100 100 100 100 100 100 100 100 100 100 100 100 100 100 97 52 82 92 93 89 88 100 100 100 100 90 36 86 69 66
100 100 100 100 100 100 100 100 100 100 100 100 100 100 100 100 100 100 100 100 100 100 100 100 100 100 90 94 98 70 94 99 94 99 100 100 100 100 100 91 37 52 79 100
100 100 100 100 100 100 100 100 100 100 100 100 100 100 100 100 100 100 100 100 100 100 100 80 33 100 100 100 100 64 100 100 82 100 100 100 100 100 100 90 96 73 71 82
86 78 69 65 71 88 97 96 99 100 100 100 100 100 100 100 100 100 100 100 89 10 5 6 58 91 100 100 97 100 100 100 99 100 100 98 100 97 100 100 97 96 90 82
100 100 100 100 100 100 100 100 100 100 100 100 100 100 100 91 64 18 6 32 5 9 10 11 87 100 88 100 100 96 100 100 100 96 100 100 97 99 100 100 100 99 100 100
89 96 100 100 100 100 100 100 100 99 94 52 31 51 90 100 100 100 80 12 37 73 96 98 96 100 100 99 80 61 91 100 100 100 100 100 100 100 100 100 94 93 97 94
100 100 99 70 28 40 63 64 30 32 51 63 74 62 81 94 98 99 100 97 100 100 100 100 88 100 100 97 93 99 93 97 100 100 100 100 100 100 100 100 100 98 97 97
100 88 93 97 98 99 94 63 68 91 62 18 5 54 68 100 100 75 100 99 89 100 100 93 86 95 100 95 90 100 100 100 100 100 100 100 99 100 100 100 100 98 88 100
86 86 91 92 90 85 17 5 60 8 5 30 17 20 8 5 5 49 79 100 100 100 100 100 100 100 100 100 100 100 100 100 100 100 100 100 100 100 100 100 100 100 99 100
71 42 26 16 39 65 17 12 49 35 59 92 100 36 40 56 67 94 86 76 88 100 100 100 100 100 100 100 100 100 100 100 100 100 100 100 100 100 100 100 100 100 100 100

GFSNGP_prec_cloud_030.txt.gz
Cloud_Cover
5 5 5 5 41 24 9 5 5 2 5 0 98 28 78 24 35 5 5 20 5 5 5 57 97 78 86 96 100 79 98 95 100 38 11 62 49 68 46 52 44 10 69 73
23 5 5 90 92 5 5 5 5 5 5 0 5 14 5 6 5 5 5 5 16 20 5 32 93 100 99 100 93 99 100 100 82 60 65 63 73 9 61 65 61 84 80 86
5 5 61 100 13 6 5 5 4 4 5 5 5 4 8 91 100 20 5 5 5 5 5 83 100 100 100 100 100 100 100 95 88 88 94 76 75 95 56 97 93 91 100 99
5 49 100 100 11 3 0 0 0 1 5 4 0 2 15 20 6 5 5 7 11 19 67 100 100 100 100 100 100 100 100 98 99 99 100 100 100 75 100 100 100 100 100 93
68 5 93 100 57 8 4 5 0 2 5 5 3 5 12 34 5 5 5 51 35 48 89 100 100 100 100 100 100 100 100 100 100 100 100 100 100 100 100 100 100 98 100 94
6 67 41 74 7 5 5 5 98 37 6 5 5 8 34 6 5 5 7 52 46 99 100 100 100 100 100 100 100 100 100 100 100 100 98 100 100 100 56 98 71 73 90 70
7 35 87 30 5 15 33 57 72 10 76 100 100 100 21 5 5 18 63 100 100 97 100 72 100 100 100 100 100 100 100 100 100 100 100 100 100 100 36 90 85 62 6 13
6 64 52 5 40 75 54 19 58 100 63 100 59 15 5 5 33 84 100 83 99 99 100 100 100 100 100 100 100 100 100 100 100 100 100 100 100 100 100 94 88 96 89 30
5 5 5 5 5 5 5 5 96 100 27 5 5 5 25 79 100 100 86 69 100 100 100 100 100 100 100 100 100 100 100 100 100 100 100 100 100 100 100 100 100 100 100 100
5 6 4 3 1 4 95 100 60 5 5 5 6 39 99 100 95 57 75 100 100 100 100 100 100 100 100 100 100 100 100 100 100 100 100 100 100 100 100 100 100 100 100 100
5 5 8 44 69 100 100 28 5 5 6 42 70 100 96 35 32 89 100 100 100 100 100 100 100 100 100 100 100 100 100 100 100 100 100 100 86 100 100 100 95 99 100 100
100 100 97 88 89 56 6 29 5 5 6 33 71 26 36 81 99 100 100 100 100 100 100 100 100 100 100 100 100 100 100 100 100 100 76 80 100 100 99 84 25 5 5 5
5 5 15 63 81 19 6 5 5 5 5 8 53 89 89 100 100 100 100 100 100 100 100 100 100 100 100 100 96 100 100 100 100 100 91 100 98 100 100 92 99 70 24 66
100 100 30 5 5 5 5 13 42 98 100 100 100 100 100 100 100 100 100 100 100 100 100 100 100 100 100 100 100 100 100 100 100 100 100 100 98 99 100 100 97 99 91 77
99 16 10 28 26 93 100 100 100 100 100 100 100 100 100 100 100 100 100 100 100 100 100 100 100 100 100 100 100 100 100 92 93 98 100 99 93 100 98 100 100 100 95 100
92 77 92 99 100 100 100 100 100 100 100 100 100 100 100 100 100 100 100 100 100 100 100 100 100 100 100 100 100 90 41 85 100 99 100 100 93 100 100 100 100 100 100 100
100 100 100 100 100 100 100 98 96 100 100 100 100 100 100 100 100 100 100 100 100 100 100 100 100 100 100 57 8 97 100 100 100 100 100 100 86 100 100 100 100 100 100 100
100 100 100 100 100 100 100 100 100 89 97 98 100 100 100 100 100 100 100 100 100 100 100 89 16 24 90 99 90 100 100 100 100 100 100 100 88 92 100 100 100 100 100 100
100 100 100 100 100 100 100 98 100 100 100 100 100 100 100 97 84 97 100 99 88 70 92 98 49 14 5 5 28 100 100 100 100 99 100 94 100 100 100 100 100 100 100 100
100 100 100 100 100 100 100 100 100 38 13 25 28 77 87 93 100 86 100 100 71 5 5 5 6 18 49 66 78 96 100 100 100 100 100 100 100 100 100 100 100 100 100 100
100 100 99 98 96 98 90 75 95 97 73 62 34 20 45 46 20 40 100 100 36 97 92 25 47 65 80 84 99 100 100 100 100 94 100 100 100 100 100 100 100 100 100 100
57 15 20 34 58 82 86 67 7 5 5 8 13 27 65 26 100 100 100 84 92 100 100 100 100 95 89 99 100 100 100 100 95 97 100 100 100 100 100 100 100 100 100 100
54 67 66 34 13 51 50 7 5 31 21 60 56 8 5 27 78 100 95 60 100 100 99 93 93 100 100 100 100 100 100 100 100 100 100 100 100 100 100 100 100 100 100 100
22 46 64 58 26 5 5 8 4 5 5 5 5 5 6 5 10 6 48 9 11 83 96 99 99 97 100 100 100 100 100 100 100 100 100 100 100 100 100 100 100 100 100 100
100 76 11 5 5 5 2 13 55 52 20 1 5 5 13 66 89 21 53 42 68 33 60 64 99 100 100 100 100 100 100 100 100 100 100 100 100 100 100 100 100 100 100 100
5 5 5 5 6 61 70 99 55 7 5 5 5 69 95 100 100 100 100 100 100 100 100 100 100 100 100 100 100 100 100 100 100 100 100 100 100 100 100 100 100 100 100 100
5 5 5 55 69 50 28 5 5 5 44 96 88 99 100 100 100 100 100 100 100 100 100 100 100 100 100 100 100 100 100 100 100 100 100 100 100 100 100 100 100 100 100 100

GFSNGP_prec_cloud_033.txt.gz
Cloud_Cover
0 0 0 0 2 5 5 1 5 0 5 0 4 29 8 5 4 3 5 2 23 100 37 5 13 18 7 22 95 100 99 100 91 96 98 94 95 99 45 77 92 5 66 70
0 0 0 5 5 5 0 5 5 5 10 0 4 5 5 5 5 5 0 5 71 96 8 5 9 5 43 54 96 100 100 100 100 100 100 100 99 100 100 98 56 100 97 99
0 3 5 5 5 0 3 5 2 5 30 5 7 5 3 3 5 5 0 5 6 5 5 21 8 53 62 73 100 100 100 100 100 100 100 100 100 100 100 100 100 100 100 100
7 5 54 5 2 3 5 5 4 5 5 5 5 5 5 5 5 3 5 58 20 5 5 42 60 52 63 96 100 100 100 100 98 100 100 100 100 100 100 100 100 100 100 100
20 5 44 5 5 5 5 4 2 5 4 4 5 5 5 5 4 2 5 10 5 5 56 74 50 88 100 99 100 100 100 100 100 100 100 100 100 100 100 100 100 100 100 100
5 66 65 38 5 5 5 0 19 6 2 5 5 5 0 0 22 9 5 5 7 34 19 49 53 40 98 91 95 100 100 100 100 100 100 100 100 100 100 100 100 100 100 100
5 35 5 12 5 5 5 22 5 5 5 5 5 5 59 100 58 5 9 61 53 7 26 43 79 98 100 100 100 100 100 100 100 100 100 100 98 100 100 100 100 100 100 89
6 63 63 22 47 55 23 9 19 19 5 5 5 76 100 63 5 52 68 98 93 97 99 94 90 100 100 100 100 93 100 100 100 100 100 100 100 100 100 100 100 100 100 90
5 5 6 5 5 5 19 9 5 5 5 5 99 95 10 5 46 87 47 58 100 100 69 83 100 100 100 100 100 100 100 100 100 100 100 100 100 100 100 100 100 100 100 81
6 14 5 5 5 5 5 5 6 9 26 80 26 5 18 86 11 30 78 81 35 94 100 100 100 100 100 100 100 100 100 100 100 100 100 100 100 100 100 100 100 100 97 100
38 6 5 5 7 60 71 15 5 5 5 7 5 6 65 7 54 65 23 72 100 100 100 100 100 100 100 100 100 100 100 100 100 100 100 100 100 100 100 100 61 97 100 100
5 71 95 100 92 16 4 21 83 5 5 5 5 32 12 24 78 99 100 100 99 100 100 100 100 100 100 100 100 100 100 100 100 100 100 100 100 100 100 76 12 45 91 100
100 100 33 8 5 27 100 90 46 6 10 79 53 32 82 100 100 100 100 100 100 100 100 100 100 100 100 100 100 100 100 100 100 100 100 100 100 100 88 53 61 94 82 10
40 5 85 16 32 97 68 92 93 100 100 100 100 100 100 100 100 100 100 100 100 100 100 100 100 100 100 100 100 100 100 100 100 100 100 100 100 85 79 97 100 100 100 94
26 48 45 52 77 93 100 100 57 84 100 100 96 97 96 96 98 100 100 100 100 100 100 100 100 100 100 100 100 100 100 100 87 54 92 72 20 64 100 99 100 100 100 100
84 92 94 100 98 100 90 78 81 80 66 96 97 76 88 93 89 80 92 100 100 95 85 92 100 100 100 100 88 28 72 100 100 80 61 77 81 96 90 100 100 100 100 100
100 100 100 100 68 86 100 98 100 100 96 94 99 100 76 8 11 74 95 100 99 100 55 42 25 5 5 5 36 94 77 99 89 83 98 99 100 100 100 100 100 100 100 100
100 66 71 80 95 96 100 100 100 100 100 99 75 99 100 100 90 36 33 7 99 97 6 4 19 14 5 5 5 5 7 67 100 40 73 92 88 96 100 100 100 100 100 100
98 100 100 100 100 100 100 100 100 100 100 95 95 100 98 100 41 52 71 100 100 36 5 7 62 33 55 68 72 64 99 100 100 84 88 82 72 75 100 100 100 100 100 100
100 100 100 100 100 100 100 100 100 76 33 40 75 94 29 43 54 78 100 99 62 7 69 52 98 94 82 43 91 98 100 100 100 100 100 91 42 81 100 100 100 100 100 100
100 100 100 100 100 99 97 75 58 6 6 5 5 5 5 5 5 5 5 5 5 78 93 87 66 85 99 96 94 72 93 100 100 100 100 87 71 99 100 100 100 100 100 100
100 100 100 84 36 20 22 7 6 5 5 5 5 5 5 4 5 5 5 22 36 33 5 5 11 46 54 68 80 100 100 96 100 100 100 88 96 97 100 100 100 100 100 100
62 44 78 44 31 67 8 4 5 5 5 5 5 5 5 5 5 5 5 36 42 45 43 5 82 83 47 6 71 99 100 98 100 100 100 99 100 100 100 100 100 100 100 100
100 52 61 44 5 5 5 4 0 5 5 5 1 5 12 5 56 68 98 80 98 97 99 100 100 94 86 89 96 100 100 100 100 100 100 100 100 100 100 100 100 100 100 100
56 29 5 5 5 5 1 4 5 5 5 5 5 9 57 90 92 98 100 100 100 100 100 100 100 100 99 100 100 100 100 100 100 100 100 100 100 100 100 100 100 100 100 100
72 84 12 5 4 5 5 5 5 5 5 5 56 90 100 100 100 100 100 100 100 100 100 100 100 100 100 100 100 100 100 100 100 100 100 100 100 100 100 100 100 100 100 100
61 5 5 5 5 5 5 7 36 62 71 100 90 94 100 100 100 100 100 100 100 100 100 100 100 100 100 100 100 100 100 100 100 100 100 100 100 100 100 100 100 100 100 100

GFSNGP_prec_cloud_036.txt.gz
Cloud_Cover
1 27 64 8 47 56 5 2 0 0 0 0 3 8 5 4 0 4 2 4 5 74 56 88 87 29 56 93 48 18 23 97 100 100 100 100 100 100 100 100 100 100 100 100
0 0 0 0 0 0 0 0 0 0 0 0 1 9 3 5 5 5 5 1 5 5 5 11 97 100 74 100 80 21 61 100 100 100 100 100 100 100 100 100 100 100 98 71
0 0 0 2 0 0 0 0 1 1 5 5 0 2 87 4 0 4 2 4 4 5 8 32 92 100 100 100 95 49 98 100 100 100 100 100 100 100 100 100 100 100 100 100
0 0 3 0 0 0 0 0 0 5 67 6 5 5 1 1 5 5 5 5 5 34 79 6 59 100 100 97 88 100 100 100 100 100 100 100 100 100 100 100 100 100 100 100
23 0 0 0 0 0 5 0 2 5 5 5 1 5 2 5 6 6 5 5 9 100 86 5 27 88 39 34 44 91 100 100 100 100 100 100 100 100 100 100 100 100 100 100
0 0 4 0 0 0 0 0 5 4 5 5 5 5 5 5 5 5 5 5 100 91 5 5 5 5 5 37 99 98 98 100 100 100 100 100 100 100 100 100 100 100 100 100
1 31 2 5 5 5 5 5 4 5 5 5 5 5 5 5 5 5 5 28 7 5 41 45 41 59 72 100 100 100 100 100 100 100 100 100 100 100 100 100 100 100 100 100
26 70 62 5 7 32 5 23 11 5 7 5 5 20 6 5 75 100 6 33 84 96 98 98 87 85 100 84 100 100 100 100 100 100 100 100 100 100 100 100 100 100 100 100
6 5 5 7 14 5 81 52 5 9 5 5 87 83 100 90 93 62 76 90 99 98 100 64 100 100 100 100 100 100 100 100 100 100 100 100 100 100 100 100 100 100 100 100
38 5 5 5 5 82 38 32 97 47 86 100 100 35 47 99 96 84 86 52 81 73 95 100 100 100 100 100 100 100 100 100 100 100 100 100 100 100 100 100 100 100 100 100
99 6 5 5 85 45 10 57 100 99 100 73 6 71 74 71 57 46 74 100 100 100 100 100 100 100 99 100 100 100 100 100 100 100 100 100 100 100 100 100 100 100 100 80
15 73 50 5 8 68 90 97 100 92 5 5 71 25 34 55 95 100 100 100 100 100 100 100 100 95 88 100 100 98 100 100 100 100 100 100 100 100 100 100 93 73 61 28
5 5 5 5 80 100 100 100 27 5 5 74 30 35 74 100 100 100 100 79 90 98 96 79 93 99 77 100 100 100 100 100 99 100 100 100 73 68 75 5 5 52 73 98
42 21 32 77 100 100 83 68 57 8 18 6 73 68 69 64 74 100 100 100 82 40 56 52 29 25 10 5 74 66 62 33 7 5 5 8 60 42 76 5 5 5 6 74
48 10 38 99 64 89 70 45 46 54 44 60 49 51 93 100 100 100 100 96 75 24 5 5 4 0 4 1 4 3 3 5 5 5 90 79 90 27 12 7 7 5 65 57
78 90 66 67 71 66 87 57 18 8 50 92 59 88 97 100 89 100 72 9 5 5 5 58 72 4 5 5 5 5 5 5 8 72 99 100 96 75 82 94 79 77 86 98
35 74 61 75 77 96 98 97 100 100 100 62 87 90 100 100 66 5 5 5 41 100 99 26 27 90 90 74 7 5 5 5 5 5 44 78 100 100 100 100 100 91 70 80
83 96 90 94 100 100 100 97 83 85 97 100 100 100 100 100 80 38 89 96 82 52 5 37 34 5 34 30 89 76 9 61 46 17 57 86 94 76 58 48 69 95 90 95
96 100 67 68 98 100 99 87 100 100 100 100 100 99 93 94 7 21 6 5 5 5 49 32 11 5 5 5 5 5 42 84 80 86 71 63 93 73 93 100 27 82 100 100
100 100 100 100 100 100 100 100 100 100 100 96 54 5 5 5 5 5 5 5 5 77 46 7 5 5 30 89 84 16 8 5 66 58 99 99 94 86 100 87 82 94 100 100
100 100 100 100 100 100 100 100 90 14 9 58 5 5 5 5 5 5 5 5 45 5 5 5 7 99 73 32 5 5 55 65 81 88 80 86 100 100 100 99 95 100 100 100
100 100 100 100 100 100 90 44 21 6 5 5 5 5 5 3 4 5 5 29 5 18 6 8 100 52 5 14 87 100 83 90 100 100 100 100 100 100 100 100 96 100 100 100
100 100 100 100 89 83 67 12 5 5 5 5 5 5 5 5 5 5 85 97 46 8 32 90 88 6 5 98 98 100 100 100 100 100 100 100 100 100 100 100 100 100 100 100
100 100 100 96 60 32 5 5 5 5 5 2 5 5 5 8 13 59 50 14 60 64 100 100 100 48 69 98 100 99 90 100 99 100 100 100 100 100 100 100 100 100 100 100
100 98 58 7 5 5 5 5 5 5 4 5 11 46 13 62 78 59 58 98 93 96 100 100 100 94 91 100 100 100 100 100 100 100 100 100 100 100 100 100 100 100 100 100
100 88 6 5 5 5 5 5 5 5 5 31 62 10 30 100 87 30 99 96 100 100 100 100 99 100 100 100 100 100 100 100 100 100 100 100 100 100 100 100 100 100 100 100
68 71 43 32 5 5 5 12 70 63 59 83 79 5 89 99 100 97 79 100 100 98 100 100 100 100 100 100 100 100 100 100 100 99 100 100 100 100 100 100 100 100 100 100

GFSNGP_prec_cloud_039.txt.gz
Cloud_Cover
42 5 38 46 36 5 72 2 3 0 0 0 4 4 2 0 0 0 0 0 0 3 5 8 23 21 4 43 100 100 100 100 100 100 100 88 100 69 100 99 79 98 95 100
0 0 0 5 2 5 5 0 0 5 1 2 5 5 5 1 0 3 3 0 2 1 5 5 21 17 32 44 100 100 100 100 100 100 100 100 100 100 100 100 100 100 100 100
0 0 0 0 0 0 0 0 0 0 0 0 0 0 0 5 6 9 5 5 1 4 3 5 5 5 5 5 5 66 100 100 100 100 49 100 100 100 100 100 100 100 100 100
0 0 0 0 0 0 0 0 0 4 5 0 0 0 0 0 3 5 5 5 20 9 8 5 5 5 52 5 21 75 100 100 100 100 100 100 100 100 100 100 100 100 100 100
1 0 0 0 0 0 0 0 0 5 0 0 0 0 0 0 4 5 5 5 5 5 5 5 5 5 5 5 46 99 100 100 100 100 100 100 100 100 100 100 100 100 100 100
0 0 1 0 0 0 0 0 5 1 0 2 0 0 5 5 5 5 5 5 5 17 84 5 5 5 5 13 92 100 100 100 100 100 100 100 100 100 100 100 100 100 100 100
8 12 0 5 1 0 0 1 5 3 5 5 5 5 5 5 5 5 4 9 98 85 5 32 47 56 94 100 98 100 100 100 100 100 100 100 100 100 99 100 100 100 100 100
67 58 12 22 5 1 4 6 5 5 5 30 33 5 5 5 4 8 89 100 29 5 60 92 99 100 100 100 100 95 100 84 78 93 99 100 100 100 100 100 100 100 100 100
0 0 0 5 5 55 94 5 5 5 5 5 5 5 5 20 93 100 84 56 49 89 98 100 100 100 100 98 90 94 83 96 97 99 100 100 100 100 100 100 100 100 100 100
0 5 5 9 49 96 100 10 17 12 27 37 36 12 56 100 92 42 62 100 100 100 100 100 93 82 100 100 100 97 97 97 98 77 72 87 91 57 83 56 25 7 23 56
5 5 11 6 75 100 100 92 64 90 97 36 27 88 100 96 86 100 100 100 100 89 85 89 98 98 97 95 59 20 5 4 0 0 0 0 0 0 0 5 5 5 5 41
8 5 6 5 16 65 35 59 66 37 41 52 100 82 60 65 63 100 100 100 84 68 42 35 59 50 96 46 24 5 0 0 0 0 0 0 0 0 5 5 5 5 5 5
19 24 100 100 100 43 5 15 12 5 6 49 67 62 57 40 53 18 55 6 25 17 49 99 100 70 43 5 5 0 0 0 0 0 0 0 1 5 5 5 5 5 5 5
100 100 100 100 100 82 98 67 7 34 18 29 27 83 55 5 5 7 41 23 85 100 100 98 100 35 5 3 1 2 4 4 13 22 14 16 32 78 18 64 55 5 5 5
100 100 100 100 100 84 19 5 35 51 43 71 66 18 28 12 17 91 100 100 100 100 100 70 32 10 5 20 15 6 5 5 5 10 86 100 100 99 96 93 100 46 5 6
100 100 72 35 52 31 52 35 49 94 98 80 38 21 64 56 62 97 100 100 100 100 100 100 100 89 100 95 86 58 5 6 29 14 6 8 7 87 100 98 100 98 87 47
27 22 12 51 55 82 58 66 98 89 99 86 99 89 77 77 84 100 100 94 23 5 98 100 97 28 5 0 0 6 5 5 5 5 47 76 92 84 49 100 90 100 96 27
18 30 91 84 85 100 99 100 100 89 91 100 100 100 97 95 100 100 83 5 5 5 5 5 5 5 5 54 99 83 72 14 5 5 5 27 26 56 100 100 100 76 30 6
100 100 100 100 100 100 100 100 99 92 100 100 96 100 100 100 100 20 5 5 5 5 38 14 10 78 75 48 5 4 5 10 74 100 97 93 82 39 86 100 100 78 93 74
100 100 100 100 99 99 100 100 98 100 100 100 100 100 100 100 67 37 30 29 97 80 7 9 99 18 5 5 21 94 100 100 100 100 99 100 100 99 92 61 98 99 97 94
100 100 100 100 100 100 100 100 100 100 100 100 100 100 100 96 40 17 11 10 100 31 5 83 42 5 1 16 98 100 99 100 99 100 100 100 100 100 100 100 100 100 100 100
100 100 100 100 100 100 100 100 100 100 100 100 100 100 100 55 49 34 89 37 18 5 15 54 76 26 5 23 82 100 63 100 73 100 100 100 100 100 100 100 100 100 100 92
100 100 100 100 100 100 100 100 100 100 100 100 100 100 100 74 36 44 59 77 5 5 5 74 79 8 5 5 50 84 73 100 100 100 100 100 100 100 100 100 100 100 100 100
100 100 100 100 100 100 100 100 100 100 100 100 100 100 100 82 75 24 41 15 34 32 33 8 26 70 51 30 9 83 80 100 100 100 100 100 100 100 100 100 100 100 100 100
100 100 100 100 100 100 100 100 100 100 100 100 100 96 92 86 63 46 26 12 35 8 51 10 6 66 60 51 49 25 99 77 63 100 99 100 100 100 100 100 100 100 100 100
100 100 100 100 100 100 100 100 100 100 100 100 71 62 49 100 99 48 25 23 5 37 46 55 53 50 74 71 53 79 54 46 20 100 67 77 100 100 100 100 100 100 100 100
100 100 100 100 100 100 100 100 90 61 70 40 50 30 95 100 90 19 12 5 48 76 45 86 74 31 5 98 78 77 54 5 16 100 52 9 84 100 100 100 100 100 100 100

GFSNGP_prec_cloud_042.txt.gz
Cloud_Cover
100 100 100 98 100 100 78 29 17 1 0 0 0 0 0 0 0 0 0 0 0 0 5 3 3 5 87 97 83 53 14 56 93 96 100 90 76 72 79 93 89 100 96 100
5 3 5 18 65 34 15 5 2 0 0 0 0 0 5 0 0 0 0 1 8 5 0 0 2 12 5 81 74 13 100 100 100 39 5 16 90 46 100 100 100 100 100 100
0 0 0 0 0 0 0 5 37 45 5 5 0 0 0 0 0 1 5 3 0 0 0 0 4 5 17 15 20 49 100 97 100 100 88 100 100 99 100 100 100 100 100 100
0 0 0 0 0 0 0 0 0 0 0 0 0 0 0 0 5 33 18 5 3 4 5 5 5 5 8 64 66 88 84 100 100 100 85 99 100 100 100 100 100 100 99 100
0 1 0 0 0 0 0 0 0 0 3 0 0 0 0 0 5 5 5 2 5 5 5 5 6 49 99 47 5 7 46 74 67 90 100 100 100 100 100 99 81 23 46 81
19 5 5 0 0 0 0 0 5 5 4 5 5 5 5 5 5 5 5 5 5 5 8 14 35 100 62 29 5 10 47 96 100 100 100 91 87 83 96 80 16 98 100 99
17 5 5 1 0 0 2 36 11 5 5 3 4 2 5 5 5 5 5 10 42 69 74 83 93 57 74 89 79 97 100 100 100 96 100 100 75 32 5 2 4 2 0 0
15 6 25 2 0 4 34 50 5 5 5 5 5 14 7 7 7 98 100 100 100 84 99 71 100 75 97 100 95 95 100 100 99 86 46 72 39 6 0 0 0 0 0 1
2 5 8 5 5 5 5 5 5 43 88 96 84 50 24 78 56 33 77 62 87 100 100 100 97 73 100 46 49 8 53 99 73 60 48 11 5 1 0 0 0 0 1 5
1 5 5 5 5 21 6 5 6 9 53 86 100 100 100 100 100 77 71 98 100 100 100 100 95 86 37 48 86 100 100 86 26 6 25 10 5 5 5 0 0 0 5 5
5 2 7 64 42 85 100 100 100 100 100 100 100 100 100 100 100 72 100 100 100 100 100 59 5 23 94 100 100 100 91 27 11 27 6 5 5 5 0 0 0 1 5 5
5 5 5 12 67 86 79 99 100 100 100 100 100 100 100 100 86 63 91 100 99 62 5 5 45 78 44 83 100 100 52 52 11 5 5 5 5 4 2 4 5 5 11 68
99 23 20 24 5 38 82 84 79 100 100 100 100 100 76 98 96 79 60 54 16 5 5 36 32 5 70 98 79 46 26 5 5 5 8 13 24 40 51 5 5 6 91 99
44 100 100 94 51 41 92 100 100 100 97 59 76 38 80 55 23 25 39 5 5 9 59 60 69 60 94 75 45 5 5 5 5 13 5 6 47 98 82 91 73 54 48 96
46 60 100 100 100 100 100 100 100 100 96 45 39 59 50 51 33 59 66 35 43 71 100 100 79 80 81 28 5 5 6 6 6 23 23 5 5 13 96 100 100 100 99 39
97 63 100 100 100 100 100 100 50 71 82 49 30 7 27 69 85 98 99 99 100 78 99 97 73 63 23 8 9 30 32 17 6 5 5 6 65 81 69 21 35 94 100 80
100 70 11 56 100 100 100 80 100 85 22 62 98 71 88 82 92 98 100 100 100 100 82 99 93 65 90 90 61 12 5 6 8 82 100 100 100 100 100 100 89 70 89 100
100 100 45 44 68 97 100 100 99 76 100 98 90 96 100 98 90 81 100 100 96 65 70 77 99 100 100 53 25 62 99 100 100 100 100 100 100 100 100 100 100 98 97 100
100 100 95 100 100 100 100 100 100 100 100 100 100 100 94 95 98 100 100 92 93 100 100 100 100 100 69 50 80 100 44 100 93 33 87 81 100 100 100 100 100 100 100 100
100 100 100 100 100 100 98 99 100 100 100 100 97 100 100 100 100 96 79 100 100 100 100 100 98 50 29 28 62 23 36 100 20 90 100 100 100 100 100 100 100 100 100 100
100 100 100 100 100 100 100 100 100 100 93 100 100 100 100 100 100 99 100 100 100 100 100 98 69 27 47 48 68 11 9 100 65 100 100 100 100 100 100 100 100 100 100 100
100 100 100 100 100 100 100 100 100 100 100 100 100 100 100 100 100 100 100 100 100 98 56 72 80 54 24 43 25 41 54 88 92 97 100 100 100 100 100 100 100 100 100 100
100 100 100 100 100 100 100 100 100 100 100 100 100 100 100 100 100 100 100 94 40 24 22 64 92 74 46 53 62 75 89 60 86 100 98 86 100 100 100 100 100 100 100 100
100 100 100 100 100 100 100 100 100 100 100 100 100 100 100 100 100 99 44 65 83 70 81 62 94 99 54 72 89 86 100 96 60 100 50 42 93 100 100 100 100 100 100 100
100 100 100 100 100 100 100 100 100 100 100 100 100 100 100 99 79 84 82 65 74 63 57 67 84 93 98 96 100 100 100 95 56 100 68 5 62 97 100 100 100 100 100 100
100 100 100 100 100 100 100 100 100 100 100 100 100 89 92 100 95 93 77 56 61 54 60 98 79 50 51 90 84 100 81 46 55 99 41 32 31 70 98 100 100 100 100 100
100 100 100 100 100 100 100 100 100 100 91 69 55 50 99 100 100 85 65 42 98 80 86 96 75 46 5 76 95 94 72 5 84 56 64 82 26 49 96 100 100 100 100 100

GFSNGP_prec_cloud_045.txt.gz
Cloud_Cover
38 5 11 5 9 5 5 5 13 61 5 5 6 33 25 1 1 1 0 0 5 2 5 5 11 37 6 18 32 24 6 68 84 99 98 100 100 100 100 95 100 100 100 100
48 5 16 58 75 51 14 15 50 85 93 5 3 5 0 0 0 0 2 5 0 5 4 4 4 42 77 38 7 89 91 52 56 100 100 100 100 94 100 100 100 100 100 100
4 3 22 41 22 0 0 0 0 80 10 0 0 0 0 0 0 0 0 0 0 0 1 18 45 5 5 10 62 61 5 61 100 100 100 100 100 100 100 100 100 100 94 92
3 4 0 0 0 0 0 0 0 0 3 2 1 4 4 2 5 2 0 4 5 5 22 5 5 5 5 5 5 5 32 92 89 60 76 100 100 100 100 100 100 100 98 5
2 4 0 0 0 0 0 0 0 0 0 0 0 0 0 0 0 4 5 5 5 5 3 5 5 5 5 5 5 68 100 100 100 100 100 100 100 100 100 100 100 91 29 12
20 17 5 0 0 3 4 5 5 0 0 0 0 0 0 0 1 5 5 5 4 5 5 5 5 5 5 5 23 98 98 100 100 100 100 100 100 91 100 99 92 98 5 27
22 75 48 0 0 14 5 1 0 0 0 2 4 5 5 1 0 1 2 11 29 11 5 5 6 38 82 74 98 100 100 100 100 100 97 95 100 100 100 96 88 42 98 75
0 3 17 0 1 3 0 0 0 0 2 5 5 5 5 6 45 58 20 6 9 56 85 99 99 100 100 100 83 98 90 98 73 93 100 100 100 100 84 79 93 95 26 64
3 5 20 5 0 0 5 5 2 5 5 5 5 5 5 5 5 11 86 99 100 100 100 100 100 100 100 61 98 20 30 94 100 100 100 100 83 99 96 86 44 34 88 77
2 85 70 49 5 0 1 5 5 5 11 56 42 52 95 100 100 100 100 91 93 100 100 100 100 100 95 71 40 16 28 40 48 88 81 83 74 24 5 57 91 100 99 75
5 90 20 87 40 5 2 4 5 34 86 100 100 100 100 100 86 29 49 100 100 100 100 100 92 72 66 26 5 5 5 7 61 16 54 53 6 19 65 100 100 100 89 72
5 5 99 54 78 98 94 82 64 66 83 100 72 61 78 85 93 100 100 100 100 100 88 82 83 55 5 5 5 5 5 5 20 37 25 26 31 96 100 100 100 100 28 42
100 95 5 57 96 100 100 100 100 100 100 100 100 100 100 100 100 100 100 100 100 87 84 63 6 5 5 5 5 5 6 55 46 78 94 97 100 98 35 99 100 18 5 5
100 98 100 72 9 38 79 100 100 100 100 100 100 100 100 100 98 75 90 93 60 100 100 80 5 5 5 5 5 19 64 93 46 62 65 80 62 72 99 99 85 14 5 5
100 100 100 100 57 42 5 27 62 76 85 90 72 62 94 98 84 75 70 50 73 72 74 42 5 23 30 22 82 100 98 61 96 100 100 83 80 97 100 100 100 100 57 14
100 100 100 100 68 16 23 5 5 20 44 56 59 84 81 100 100 93 97 78 78 70 61 69 78 69 86 100 100 100 99 100 100 91 94 99 63 60 99 100 79 100 100 85
100 100 100 100 100 17 5 10 90 100 100 100 92 77 82 100 98 85 88 87 74 72 86 79 83 98 99 92 100 100 100 91 36 55 51 69 99 100 100 100 100 98 100 100
100 100 100 100 100 48 77 100 100 100 100 97 100 99 100 100 100 100 100 100 93 85 98 95 68 69 71 76 82 78 50 97 58 13 96 100 100 100 100 100 100 100 99 87
100 100 100 100 100 100 100 100 100 100 100 100 100 100 100 100 100 100 100 95 72 48 88 55 38 50 79 74 66 64 46 88 5 5 82 95 100 100 100 100 100 100 100 100
100 100 100 100 100 100 100 100 100 100 100 100 100 100 100 100 100 100 100 88 70 57 91 91 100 100 100 100 50 46 42 97 19 36 91 100 100 100 100 100 100 100 100 100
100 100 100 100 100 100 100 100 100 100 100 100 100 100 100 100 100 100 98 98 100 100 100 100 100 100 100 65 24 55 70 74 94 94 98 99 100 100 99 100 100 100 100 100
100 100 100 100 100 100 100 100 100 100 100 100 100 100 100 100 100 100 100 74 91 100 100 100 100 87 63 81 23 80 45 33 52 90 93 88 78 100 100 100 100 100 100 100
100 100 100 100 100 100 100 100 100 100 100 100 100 100 100 100 100 100 100 100 100 100 100 84 88 84 98 69 84 100 99 97 64 100 86 56 36 97 100 100 100 100 100 100
100 100 100 100 100 100 100 100 100 100 100 100 100 100 100 100 100 100 100 100 100 99 74 79 100 100 100 98 100 100 100 100 80 94 18 33 26 37 53 77 100 100 100 100
100 100 100 100 100 100 100 100 100 100 100 100 100 100 100 100 100 100 87 99 99 90 74 100 98 86 100 100 100 100 100 80 93 100 91 76 32 50 34 29 98 100 100 100
100 100 100 100 100 100 100 100 100 100 100 100 100 100 100 100 100 100 100 100 86 83 96 100 81 46 42 100 100 100 90 38 99 98 76 57 30 30 49 52 92 100 100 100
100 100 100 100 100 100 100 100 100 100 100 100 100 100 100 100 100 100 100 99 100 100 100 99 98 71 20 94 100 95 98 57 99 100 68 79 42 67 54 74 74 73 81 100

GFSNGP_prec_cloud_048.txt.gz
Cloud_Cover
0 1 5 5 4 50 40 4 6 99 60 6 14 69 100 100 98 5 0 0 0 0 0 4 31 6 5 39 6 5 29 60 61 49 96 100 100 83 100 74 100 100 88 100
0 0 4 1 2 6 5 5 5 5 17 7 84 21 76 100 89 3 0 0 0 0 0 0 3 5 5 5 5 4 9 75 74 95 100 98 80 82 100 97 100 100 100 100
4 55 92 3 53 60 5 5 5 45 0 0 100 26 4 0 0 2 1 1 0 0 1 21 7 5 5 6 38 93 100 96 100 100 100 100 100 93 100 100 100 100 100 100
76 99 5 0 0 0 0 0 0 0 0 0 19 3 5 5 5 2 5 1 1 5 5 5 5 5 27 73 76 62 72 96 100 100 100 100 100 100 100 100 100 100 100 100
96 5 5 5 0 0 0 0 0 0 0 0 0 0 0 0 0 0 0 0 5 5 3 5 8 14 6 10 50 63 86 100 100 100 100 100 100 100 100 100 100 100 100 100
10 4 5 5 0 0 0 0 0 0 0 0 0 0 0 0 0 4 2 5 2 5 5 5 5 5 15 58 75 100 100 100 97 100 100 100 94 100 100 100 100 100 100 100
18 3 5 5 97 20 2 1 0 0 0 0 0 0 0 0 0 2 5 5 5 5 5 6 21 44 8 5 13 96 99 91 100 99 100 100 55 35 78 99 100 99 93 96
5 2 9 6 3 1 0 0 0 0 0 5 0 0 0 2 5 5 5 5 31 52 49 64 14 6 20 60 90 97 100 100 100 100 75 62 7 5 22 70 78 89 85 100
5 5 13 5 0 0 1 4 4 0 0 0 2 0 0 5 6 48 71 58 17 14 6 5 5 12 80 100 100 95 43 62 61 12 5 5 5 41 53 30 55 91 74 17
5 73 54 2 0 0 0 4 5 5 1 0 0 4 5 5 5 40 32 10 6 6 8 43 86 100 100 100 68 51 73 62 5 5 6 5 5 5 13 63 55 7 9 33
81 100 99 4 4 5 5 5 5 40 31 5 1 0 5 5 5 5 5 7 7 45 97 98 100 100 100 87 67 80 57 5 6 5 5 5 5 5 58 45 9 8 8 17
100 100 100 100 97 74 47 28 5 9 48 48 16 5 9 36 46 46 26 37 92 94 100 100 100 100 84 68 74 20 5 5 8 5 5 5 5 9 96 85 100 91 91 36
100 100 100 100 100 100 100 100 61 13 8 5 16 36 68 98 98 100 100 100 100 100 100 75 69 50 71 69 15 10 5 5 5 5 5 70 62 89 98 70 90 100 97 77
100 100 100 100 100 100 100 100 100 100 94 56 39 48 18 20 35 41 84 100 100 100 100 99 85 79 41 30 6 5 5 5 5 45 40 77 88 95 29 69 93 62 47 16
100 100 100 100 84 100 100 100 100 100 100 100 100 100 98 90 79 91 91 100 90 83 85 98 100 81 31 48 43 5 5 24 50 42 83 69 65 45 94 100 100 100 43 13
100 100 100 100 98 100 100 100 100 100 94 86 100 100 100 100 96 100 100 97 91 88 100 100 92 78 89 73 44 40 36 66 45 38 91 80 69 100 100 100 100 100 100 100
100 100 100 100 100 100 100 100 99 100 100 100 100 100 100 100 100 100 100 100 100 100 100 94 94 87 83 81 80 99 100 100 100 74 58 88 97 100 100 100 100 100 100 100
100 100 100 100 100 100 80 100 100 100 100 100 100 100 100 100 100 100 100 100 100 100 100 100 96 99 100 100 99 100 89 90 80 61 60 93 91 94 100 100 100 100 100 100
100 100 99 100 81 100 100 100 100 100 100 100 100 100 100 100 100 100 100 100 100 100 100 100 100 100 100 100 100 100 100 98 50 27 52 47 10 43 100 99 100 100 100 100
100 100 100 100 100 100 100 100 100 100 100 100 100 100 100 100 100 100 100 100 100 100 100 100 100 100 100 100 100 100 100 98 84 25 46 26 30 52 98 40 78 100 100 100
100 100 100 100 100 100 100 100 100 100 100 100 100 100 100 100 100 100 100 100 100 100 100 100 100 100 100 100 100 100 100 97 90 100 95 100 86 28 88 8 42 84 100 100
100 100 100 100 100 100 100 100 100 100 100 100 100 100 100 100 100 100 100 100 100 100 100 100 100 100 100 100 100 100 100 98 38 97 66 37 42 54 67 32 56 88 97 100
100 100 100 100 100 100 100 100 100 100 100 100 100 100 100 100 100 100 100 100 100 100 100 100 100 100 100 100 100 100 100 95 57 100 89 64 60 57 37 62 64 66 92 93
100 100 100 100 100 100 100 100 100 100 100 100 100 100 100 100 100 100 100 100 100 100 100 100 100 100 100 100 100 100 100 93 84 100 60 25 59 34 6 47 50 44 66 78
100 100 100 100 100 100 100 100 100 100 100 100 100 100 100 100 100 100 100 100 100 100 100 100 100 100 100 100 100 100 100 86 87 100 100 88 46 19 5 21 18 61 75 68
100 100 100 100 100 100 100 100 100 100 100 100 100 100 100 100 100 100 100 100 100 100 100 100 100 100 100 99 100 100 100 100 99 100 91 53 31 19 21 13 18 45 60 64
100 100 100 100 100 100 100 100 100 100 100 100 100 100 100 100 100 100 100 100 100 100 100 100 100 100 78 87 100 100 100 100 99 100 98 60 48 24 35 54 66 54 55 55

GFSNGP_prec_cloud_051.txt.gz
Cloud_Cover
0 4 4 0 0 0 0 5 5 90 78 69 5 53 100 96 100 46 26 5 5 0 2 0 2 0 3 24 40 72 100 100 100 100 100 100 74 70 100 100 71 99 100 100
5 5 1 0 0 0 3 5 34 5 95 26 15 12 8 47 50 30 5 5 5 0 4 0 0 2 16 19 59 46 60 100 100 91 100 64 100 100 100 31 100 100 100 100
1 3 5 8 0 0 0 5 5 25 100 100 34 5 2 0 5 5 5 5 4 5 5 19 33 26 32 12 4 2 21 49 85 100 100 100 100 100 97 95 100 100 100 100
17 39 50 0 0 0 2 0 0 2 1 0 0 0 0 1 5 16 24 5 3 0 0 0 1 2 3 3 2 17 52 99 100 86 92 94 90 100 100 100 100 100 99 100
5 12 8 6 0 0 3 5 0 0 0 0 0 0 0 0 0 0 3 0 0 0 0 0 4 5 5 5 5 14 96 97 84 91 99 94 100 100 100 93 98 100 72 32
5 44 68 20 1 0 0 4 0 0 0 0 0 0 0 0 0 0 0 0 0 0 0 1 5 5 5 5 5 5 19 70 77 90 98 100 98 100 100 98 100 85 5 5
99 83 87 100 10 0 0 5 2 0 0 5 0 0 0 4 1 5 0 0 0 0 3 5 5 5 5 9 58 65 78 67 74 100 99 88 87 91 5 5 5 5 5 5
99 74 94 100 5 0 0 0 33 18 4 5 5 0 0 0 2 0 2 1 0 4 5 5 5 5 5 6 16 37 65 69 67 55 28 26 5 5 5 6 5 5 5 9
86 97 100 18 55 2 0 5 5 5 1 4 5 5 2 0 5 5 5 3 0 2 5 5 5 5 5 6 17 17 8 5 5 5 5 8 21 39 19 5 5 5 5 5
74 70 46 96 80 50 5 5 5 5 5 2 5 5 5 5 5 5 5 5 5 5 5 6 19 24 42 71 33 44 40 5 7 24 51 55 57 59 33 5 5 5 5 8
19 92 100 79 66 100 57 5 0 5 5 5 5 5 5 5 5 16 39 61 76 77 67 57 82 88 100 71 21 5 5 6 25 60 84 52 49 41 5 5 5 13 59 71
100 100 73 100 100 100 100 100 77 10 19 7 97 59 5 28 38 80 38 5 6 32 100 95 100 100 74 5 5 24 22 35 18 18 5 5 26 59 53 67 37 53 50 74
100 100 100 94 100 100 100 100 100 50 5 15 30 100 98 98 100 100 100 99 89 96 100 100 100 39 21 28 40 25 65 71 52 21 5 23 54 87 100 76 11 70 58 63
100 100 100 100 100 100 100 100 100 100 49 32 97 100 82 82 70 96 99 100 96 100 100 97 91 73 55 73 86 83 71 34 7 35 26 22 57 28 10 5 37 5 5 34
100 100 100 100 100 100 100 100 100 100 100 100 100 64 96 100 100 85 100 99 86 88 87 92 86 92 82 89 86 83 82 64 43 29 25 6 5 5 5 11 12 5 5 5
100 100 100 100 100 100 100 100 100 100 100 100 100 100 100 100 100 100 100 100 100 100 97 100 100 95 85 90 85 81 88 85 87 37 8 34 30 16 5 61 14 62 35 75
100 100 100 100 100 100 100 100 100 100 100 100 100 100 100 100 100 100 100 100 100 100 100 100 100 100 95 97 100 100 88 81 93 73 72 60 41 55 78 91 80 86 99 100
100 100 100 100 100 100 100 100 100 100 100 98 95 100 98 100 100 100 99 100 100 100 100 100 100 100 98 91 89 93 90 89 96 100 98 75 84 42 88 90 71 96 95 88
100 100 100 100 100 100 100 100 100 100 100 100 100 100 100 100 95 99 100 100 100 100 100 100 93 90 83 82 79 97 99 100 100 99 80 100 100 100 85 90 79 99 97 100
100 100 100 100 100 100 100 100 100 100 100 100 100 100 100 100 100 100 100 100 100 100 100 96 93 91 98 96 100 98 98 100 100 99 100 100 100 98 62 21 42 77 98 100
100 100 100 100 100 100 100 100 100 100 100 100 100 100 100 100 100 100 100 100 100 100 100 100 100 100 100 95 98 100 100 100 100 100 100 100 80 64 45 71 76 98 100 100
100 100 100 100 100 100 100 100 100 100 100 100 100 100 100 100 100 100 100 100 100 100 100 100 100 100 100 99 100 100 100 100 100 100 97 95 92 68 70 85 97 100 100 100
100 100 100 100 100 100 100 100 100 100 100 100 100 100 100 100 100 100 100 100 100 100 100 100 100 100 100 100 100 100 100 100 100 100 99 98 87 85 74 83 89 100 100 100
100 100 100 100 100 100 100 100 100 100 100 100 100 100 100 100 100 100 100 100 100 100 100 100 100 100 100 100 100 100 100 100 100 100 92 76 100 84 35 62 82 100 100 100
100 100 100 100 100 100 100 100 100 100 100 100 100 100 100 100 100 100 100 100 100 100 100 100 100 100 100 100 100 100 100 100 100 100 100 100 100 94 73 34 77 99 100 100
100 100 100 100 100 100 100 100 100 100 100 100 100 100 100 100 100 100 100 100 100 100 100 100 100 100 100 100 100 100 73 100 100 100 99 100 100 92 80 17 51 90 100 100
100 100 100 100 100 100 100 100 100 100 100 100 100 100 100 100 100 100 100 100 100 100 100 100 100 100 100 100 93 93 100 100 99 100 100 100 100 100 80 69 83 88 100 100

GFSNGP_prec_cloud_054.txt.gz
Cloud_Cover
5 5 5 5 1 16 58 2 5 88 6 100 50 7 25 80 53 74 100 97 89 67 100 100 100 79 34 92 100 100 100 100 100 100 100 100 100 99 94 100 100 100 100 100
14 6 5 5 0 5 10 5 0 0 67 57 5 5 5 5 5 9 14 48 100 100 16 37 93 29 46 64 86 100 100 100 100 100 100 100 83 78 60 85 51 100 100 100
91 5 5 61 3 5 5 5 5 2 0 0 5 5 5 5 2 4 5 6 100 100 91 19 5 5 9 21 37 28 85 98 65 31 43 14 18 28 76 100 70 100 94 100
94 6 42 74 1 3 1 0 2 5 0 0 1 4 2 0 0 0 0 0 72 71 35 5 5 5 1 0 0 1 5 9 11 31 23 83 79 75 26 87 98 97 100 100
55 55 48 99 28 0 3 1 4 5 4 5 0 0 0 0 0 0 0 0 0 0 0 0 4 0 0 0 0 5 5 13 50 74 69 76 64 56 86 98 100 100 100 100
100 84 52 100 3 0 2 15 5 5 5 5 5 5 4 0 0 0 0 3 7 6 5 5 5 5 5 54 41 39 88 100 96 78 88 100 100 100 100 97 100 100 77 38
100 36 98 100 29 4 3 69 4 0 5 5 5 5 5 5 15 3 0 0 2 5 5 5 5 5 6 42 94 82 59 69 92 100 96 78 62 73 100 78 41 57 8 8
89 39 100 100 8 4 36 4 4 2 3 0 5 5 5 3 5 5 13 5 5 5 5 5 23 41 58 56 57 61 70 97 90 69 72 92 81 31 29 9 26 28 28 27
99 100 100 100 100 84 51 5 5 23 4 0 2 5 5 5 2 5 28 56 68 36 7 5 31 37 94 99 99 99 92 85 81 78 75 52 54 12 5 42 53 88 48 5
100 100 100 100 100 62 5 5 88 100 94 64 5 5 5 5 5 5 5 57 100 100 98 88 89 72 63 53 62 66 66 62 27 30 24 5 5 5 61 86 45 5 5 5
100 100 100 100 93 74 18 48 96 85 95 100 100 36 5 5 5 8 9 62 74 74 76 92 85 71 60 74 93 97 86 60 10 28 34 14 25 26 44 16 5 5 5 5
100 100 100 100 85 79 71 82 93 69 100 100 100 49 9 9 8 5 5 54 9 11 5 5 9 51 100 98 43 8 46 58 92 100 98 66 76 75 36 5 5 13 31 36
100 100 100 99 100 98 46 86 100 100 100 100 100 100 100 63 34 21 100 100 98 82 7 97 82 100 100 79 100 100 100 100 100 88 75 87 100 81 51 6 5 5 6 7
100 100 100 100 100 100 97 100 100 100 98 100 100 100 100 92 93 100 100 100 100 100 100 100 84 100 97 70 58 64 70 65 62 86 100 88 9 29 27 6 8 5 15 10
100 100 100 100 100 100 100 100 89 100 100 100 99 100 100 100 100 100 100 100 90 96 100 96 92 94 91 90 97 92 87 67 68 77 67 10 24 9 5 5 27 53 51 5
100 100 100 100 100 100 100 100 76 100 100 100 100 100 100 100 100 100 100 98 100 100 100 100 97 89 94 100 90 96 99 92 87 78 67 51 21 8 40 76 76 44 32 86
100 100 100 100 100 100 100 100 100 100 100 100 100 100 100 91 100 95 98 100 100 100 100 100 84 95 100 78 100 52 90 100 92 100 98 80 72 86 94 81 66 59 92 100
47 43 64 12 100 100 100 100 100 100 100 100 100 100 100 93 98 100 100 100 100 100 100 100 100 80 93 96 80 91 100 100 100 87 83 97 89 90 68 78 84 82 78 68
4 2 1 5 69 100 100 100 100 100 100 100 100 100 100 100 100 100 100 100 100 100 100 100 100 98 98 99 100 100 100 100 100 100 96 99 100 80 85 99 80 91 86 96
42 70 63 93 98 100 100 100 100 100 100 100 100 100 100 100 100 100 100 100 100 100 100 100 100 100 100 100 100 100 100 100 100 100 100 100 100 100 100 74 100 99 100 100
100 100 100 100 100 100 100 100 100 100 100 100 100 100 100 100 100 100 100 100 100 100 100 100 100 100 100 100 100 100 100 100 100 100 100 100 100 100 100 100 100 100 100 100
100 100 100 100 100 100 100 100 100 100 100 100 100 100 100 100 100 100 100 100 100 100 100 100 100 100 100 100 100 100 100 100 100 100 100 100 100 100 100 100 100 100 100 100
100 100 100 100 100 100 100 100 100 100 100 100 100 100 100 100 100 100 100 100 100 100 100 100 100 100 100 100 100 100 100 100 100 100 100 100 100 100 100 100 100 100 100 100
100 100 100 100 100 100 100 100 100 100 100 100 100 100 100 100 100 100 100 100 100 100 100 100 100 100 100 100 100 100 100 100 100 100 100 100 100 100 100 100 100 100 100 100
100 100 100 100 100 100 100 100 100 100 100 100 100 100 100 100 100 100 100 100 100 100 100 100 100 100 100 100 100 100 100 100 100 100 100 100 100 100 100 100 100 100 100 100
100 100 100 100 100 100 100 100 100 100 100 100 100 100 100 100 100 100 100 100 100 100 100 100 100 100 100 100 100 100 100 100 100 100 100 100 100 100 100 100 100 100 100 100
100 100 100 100 100 100 100 100 100 100 100 100 100 100 100 100 100 100 100 100 100 100 100 100 100 100 100 100 100 100 100 100 100 100 100 100 100 100 100 100 100 100 100 100

GFSNGP_prec_cloud_057.txt.gz
Cloud_Cover
100 100 100 100 77 85 100 96 99 67 79 100 100 89 99 100 99 100 100 100 99 28 9 25 18 13 98 100 95 79 66 94 100 100 100 100 100 100 100 100 100 100 100 100
100 100 98 98 58 77 100 100 80 6 78 100 5 5 5 5 77 8 55 72 85 25 40 86 52 21 97 100 100 100 100 100 100 100 95 85 91 83 66 59 66 51 94 100
100 100 100 80 100 5 5 5 16 49 49 93 95 24 5 5 29 33 17 5 5 5 24 51 88 90 75 81 79 93 83 60 42 38 33 34 21 52 65 85 98 100 100 100
100 87 98 100 100 5 4 4 5 62 91 45 55 5 2 2 3 1 0 0 0 0 0 10 30 54 6 5 34 69 5 5 6 45 76 91 90 89 100 100 100 100 100 100
100 100 100 38 90 88 5 2 5 60 57 11 5 2 0 0 0 0 0 0 0 0 0 1 5 5 2 5 5 5 5 49 72 83 98 100 100 100 100 100 100 100 100 88
100 100 100 100 100 92 4 25 2 62 6 5 5 5 4 0 0 3 0 0 5 1 0 0 0 2 5 5 5 5 6 40 87 98 92 95 100 100 98 74 28 30 29 49
100 100 100 100 100 100 22 97 76 14 5 5 5 5 5 5 4 5 2 1 5 5 5 6 5 2 5 5 10 23 35 35 32 74 97 76 36 50 61 55 28 28 20 5
100 100 100 100 100 100 35 37 8 0 5 6 5 4 5 5 5 5 5 5 4 5 5 12 89 95 65 44 49 52 82 85 63 73 97 100 100 100 86 60 50 54 99 100
100 100 100 100 100 100 92 14 23 0 8 97 16 5 54 49 7 5 66 56 8 5 16 85 99 100 98 85 61 57 65 88 93 69 88 81 30 11 8 87 100 31 78 71
100 100 100 100 100 100 100 100 100 5 25 100 54 81 100 100 100 100 5 62 64 17 5 5 12 49 46 36 33 27 30 38 59 10 18 5 5 5 5 5 5 5 7 32
100 100 100 100 100 100 100 100 100 63 90 98 27 7 93 100 100 91 13 12 36 5 5 7 56 99 90 81 84 16 100 99 45 7 28 5 35 5 5 20 8 21 21 18
100 100 100 100 100 100 100 88 79 77 34 15 61 55 99 100 100 100 100 100 100 78 6 8 73 100 100 31 71 100 76 51 8 5 11 25 7 5 30 5 5 5 5 5
100 100 100 100 100 100 100 100 78 27 7 15 65 84 100 100 100 100 100 100 71 80 23 99 100 100 88 100 89 76 65 5 5 5 5 5 5 5 5 7 50 5 5 5
100 100 100 100 100 100 100 100 100 34 74 74 36 14 74 97 100 100 100 100 100 100 100 100 100 88 87 100 98 95 100 96 96 90 74 8 8 25 38 5 5 54 66 8
100 100 100 100 100 100 100 100 100 89 62 100 96 82 98 100 99 100 100 100 100 100 100 84 100 100 100 100 100 100 98 95 82 100 100 100 89 60 45 40 37 5 8 35
100 100 100 100 100 100 100 100 100 100 100 100 100 44 55 91 94 100 100 100 100 100 100 100 100 100 100 100 100 100 98 92 85 87 100 100 100 99 97 79 62 73 96 99
100 100 100 100 100 100 100 100 100 100 100 100 100 100 100 100 100 100 100 100 100 100 100 100 100 100 100 100 100 100 100 100 100 100 100 100 100 100 100 100 100 100 100 100
100 100 100 100 100 100 100 100 95 89 96 100 100 100 100 100 100 100 100 100 100 100 100 100 100 100 100 100 100 100 100 100 100 100 100 100 100 100 100 100 100 100 100 100
100 100 100 100 100 92 74 92 92 96 99 93 100 99 100 100 100 100 100 100 100 100 100 100 100 100 100 100 100 100 100 100 100 100 100 100 100 100 100 100 100 100 100 100
100 98 89 77 100 100 100 100 100 100 100 100 100 100 100 100 100 100 100 100 100 100 100 100 100 100 100 100 100 100 100 100 100 100 100 100 100 100 100 100 100 100 100 100
100 100 100 100 100 100 100 100 100 100 100 100 100 100 100 100 100 100 100 100 100 100 100 100 100 100 100 100 100 100 100 100 100 100 100 100 100 100 100 100 100 100 100 100
100 100 100 100 100 100 100 100 100 100 100 100 100 100 100 100 100 100 100 100 100 100 100 100 100 100 100 100 100 100 100 100 100 100 100 100 100 100 100 100 100 100 100 100
100 100 100 100 100 100 100 100 100 100 100 100 100 100 100 100 100 100 100 100 100 100 100 100 100 100 100 100 100 100 100 100 100 100 100 100 100 100 100 100 100 100 100 100
100 100 100 100 100 100 100 100 100 100 100 100 100 100 100 100 100 100 100 100 100 100 100 100 100 100 100 100 100 100 100 100 100 100 100 100 100 100 100 100 100 100 100 100
100 100 100 100 100 100 100 100 100 100 100 100 100 100 100 100 100 100 100 100 100 100 100 100 100 100 100 100 100 100 100 100 100 100 100 100 100 100 100 100 100 100 100 100
100 100 100 100 100 100 100 100 100 100 100 100 100 100 100 100 100 100 100 100 100 100 100 100 100 100 100 100 100 100 100 100 100 100 100 100 100 100 100 100 100 100 100 100
100 100 100 100 100 100 100 100 100 100 100 100 100 100 100 100 100 100 100 100 100 100 100 100 100 100 100 100 100 100 100 100 100 100 100 100 100 100 100 100 100 100 100 100

GFSNGP_prec_cloud_060.txt.gz
Cloud_Cover
96 100 100 100 71 100 100 92 26 96 5 5 51 29 75 32 98 40 80 4 6 79 100 90 96 98 12 2 4 7 65 100 88 73 100 100 100 100 100 100 100 100 100 100
100 100 100 100 95 100 100 85 96 60 48 16 65 100 59 41 5 0 4 17 15 0 5 4 0 5 13 26 20 3 21 44 60 100 100 100 97 100 100 100 100 99 72 23
100 100 100 100 98 100 100 100 80 100 84 37 57 75 28 16 4 0 0 4 1 5 78 12 85 94 18 68 100 35 16 76 100 100 98 100 97 100 52 45 26 77 100 97
100 100 100 100 100 100 100 100 48 5 24 91 57 60 80 44 60 2 0 0 0 0 6 1 7 96 72 43 100 97 76 84 58 31 28 49 22 11 67 99 52 73 15 5
100 100 100 100 100 100 100 100 100 29 17 88 71 95 17 5 5 5 0 0 0 0 0 0 39 80 8 13 18 9 64 4 4 5 5 90 100 79 100 98 28 15 21 31
100 100 100 100 100 100 100 100 100 70 96 9 82 6 5 5 3 0 0 0 0 0 0 0 0 0 0 1 5 6 5 18 5 22 78 100 100 58 36 46 70 92 12 5
100 100 100 100 100 100 100 100 100 100 16 99 100 8 5 5 4 4 7 5 5 5 2 0 1 0 1 2 5 5 5 5 22 87 88 51 35 21 11 94 26 15 9 34
100 100 75 100 100 100 100 100 100 43 44 100 27 6 5 5 8 20 7 82 94 97 80 5 5 5 5 5 4 4 5 5 5 5 5 6 41 58 100 71 31 82 12 7
100 100 100 100 100 100 100 100 100 100 100 100 7 44 95 96 5 5 6 85 100 100 100 100 14 59 97 59 30 21 48 7 62 44 7 5 92 100 99 72 41 22 6 5
100 99 100 100 100 100 100 100 100 84 20 28 87 100 23 5 5 5 10 81 92 100 100 100 87 61 9 6 26 22 5 10 91 98 81 74 94 63 76 12 5 5 5 5
96 100 100 100 100 100 100 100 100 100 100 100 75 13 26 98 39 5 5 25 44 100 100 100 100 100 100 95 51 11 20 64 56 92 90 57 99 90 9 5 5 5 5 16
100 100 100 100 100 100 100 100 100 100 100 100 100 100 100 81 5 5 16 72 91 98 100 100 100 100 100 100 100 100 100 100 100 100 67 25 97 60 18 56 82 24 28 6
100 100 100 100 100 100 100 100 100 100 100 100 100 100 94 8 43 44 70 96 97 100 100 100 100 100 100 100 100 100 100 100 100 100 100 94 100 100 100 78 82 78 53 5
100 100 100 100 100 100 100 100 100 100 100 100 100 81 79 43 75 74 79 78 96 100 99 100 100 100 100 100 100 100 100 100 100 100 100 100 100 91 76 76 97 100 99 75
100 100 100 100 100 100 100 78 100 100 100 100 100 100 98 100 86 65 41 67 100 100 98 95 97 100 100 99 100 100 100 100 100 100 100 100 100 100 100 98 98 90 79 100
100 100 100 100 100 100 100 100 100 100 100 100 100 100 100 100 97 86 99 100 100 100 100 100 100 100 100 100 100 100 100 100 100 100 100 100 100 100 100 100 100 100 100 100
100 100 100 100 100 100 100 100 100 100 100 100 100 100 100 100 100 100 100 100 100 100 100 100 100 100 100 100 100 100 100 100 100 100 100 100 100 100 100 100 100 100 100 100
100 100 100 100 100 100 100 100 100 100 100 100 100 100 100 100 100 100 100 100 100 100 100 100 100 100 100 100 100 100 100 100 100 100 100 100 100 100 100 100 100 100 100 100
100 100 100 100 100 100 100 100 100 100 86 96 100 100 100 100 100 100 100 100 100 100 100 100 100 100 100 100 100 100 100 100 100 100 100 100 100 100 100 100 100 100 100 100
100 100 100 100 100 93 100 100 100 100 100 100 100 100 100 100 100 100 100 100 100 100 100 100 100 100 100 100 100 100 100 100 100 100 100 100 100 100 100 100 100 100 100 100
100 100 100 100 100 100 100 100 100 100 100 100 100 100 100 100 100 100 100 100 100 100 100 100 100 100 100 100 100 100 100 100 100 100 100 100 100 100 100 100 100 100 100 100
100 100 100 100 100 100 100 100 100 100 100 100 100 100 100 100 100 100 100 100 100 100 100 100 100 100 100 100 100 100 100 100 100 100 100 100 100 100 100 100 100 100 100 100
100 100 100 100 100 100 100 100 100 100 100 100 100 100 100 100 100 100 100 100 100 100 100 100 100 100 100 100 100 100 100 100 100 100 100 100 100 100 100 100 100 100 99 100
100 100 100 100 100 100 100 100 100 100 100 100 100 100 100 100 100 100 100 100 100 100 100 100 100 100 100 100 100 100 100 100 100 100 100 100 100 100 100 100 100 100 100 100
100 100 100 100 100 100 100 100 100 100 100 100 100 100 100 100 100 100 100 100 100 100 100 100 100 99 99 100 100 100 100 100 100 100 100 100 99 100 100 100 100 100 100 98
100 100 100 100 100 100 100 100 100 100 100 100 100 100 100 100 100 100 100 100 100 100 100 100 100 100 100 100 100 100 100 100 100 100 100 100 100 100 100 100 100 100 100 100
100 100 100 100 100 100 100 100 100 100 100 100 100 100 100 100 100 100 100 100 100 100 100 100 100 100 99 100 100 100 100 100 100 100 100 100 100 100 100 100 100 100 99 94

GFSNGP_prec_cloud_066.txt.gz
Cloud_Cover
100 100 100 100 100 100 100 8 5 21 5 5 5 10 100 100 5 5 5 4 2 2 0 8 15 18 63 96 100 100 100 100 100 100 100 100 100 100 100 100 100 100 100 100
100 100 100 100 85 97 95 96 46 44 20 100 89 57 56 100 100 95 6 5 1 2 0 0 48 88 92 22 100 100 100 100 100 100 100 100 100 100 100 100 100 100 100 100
39 100 100 99 20 100 95 100 41 18 100 100 35 85 14 86 100 96 6 8 38 5 0 0 22 98 100 100 89 100 100 100 100 100 100 100 100 100 100 100 100 100 100 100
93 100 100 32 49 58 41 100 99 56 100 100 89 92 90 68 100 100 100 16 5 43 1 0 21 66 100 100 100 100 100 100 100 100 100 100 100 100 100 100 100 100 100 100
100 90 66 82 85 95 62 68 100 99 100 100 100 95 50 94 100 100 100 100 3 5 5 22 50 33 50 100 100 100 100 100 100 100 100 100 100 100 100 100 100 98 16 4
100 100 57 99 100 100 100 94 100 100 100 100 100 95 30 86 100 82 30 96 97 5 5 18 38 3 11 40 66 99 96 62 100 100 98 100 100 100 86 40 10 33 11 22
100 100 89 77 88 100 100 99 100 100 27 100 100 51 100 100 100 100 13 53 93 73 66 9 5 5 7 12 30 22 23 95 100 100 100 83 38 4 2 2 37 69 59 100
100 100 100 100 100 100 85 96 100 100 100 100 100 69 88 100 100 100 96 94 42 16 100 100 95 11 5 7 5 5 72 100 85 75 43 97 100 64 5 5 17 28 26 5
100 100 100 100 100 98 100 88 100 100 100 100 88 100 24 96 99 100 100 100 26 17 78 22 5 82 98 5 50 70 28 40 100 99 78 100 52 22 5 11 54 50 5 52
100 100 100 100 92 55 78 100 100 100 95 92 78 100 100 48 100 100 100 100 99 26 16 83 96 100 100 99 100 100 46 6 45 76 76 59 56 70 100 87 67 47 83 100
100 100 100 100 100 100 100 100 100 100 100 100 88 90 100 100 100 100 100 100 100 21 61 100 100 100 100 100 100 100 94 40 84 100 86 88 99 89 100 100 82 75 82 90
100 100 100 60 9 86 100 100 100 100 100 100 100 100 100 100 100 100 100 100 100 99 97 100 100 100 100 100 100 100 71 88 100 100 100 100 100 100 100 100 100 100 100 100
100 100 100 80 100 100 100 100 100 100 100 100 100 99 100 100 100 100 100 92 81 100 100 100 100 100 100 100 100 100 99 97 100 100 100 100 100 100 100 100 100 100 100 100
100 100 100 100 100 100 100 100 100 100 100 100 100 100 100 100 100 100 100 100 100 96 100 100 100 97 100 100 100 100 100 100 100 100 100 100 100 100 100 100 100 100 100 100
5 95 100 100 100 100 100 100 100 100 100 100 100 100 100 100 100 100 100 99 95 100 100 100 97 100 100 100 100 100 100 100 100 100 100 100 100 100 100 100 100 100 100 100
100 100 100 100 98 100 100 100 100 100 100 100 100 100 100 100 100 100 100 91 95 100 100 100 100 100 100 100 100 100 100 100 100 100 100 100 100 100 100 100 100 100 100 100
99 100 43 98 100 100 100 100 100 100 100 100 100 100 100 100 100 100 100 100 100 100 100 100 100 100 100 100 100 100 100 100 100 100 100 100 100 100 100 100 100 100 100 100
100 100 100 100 100 100 100 100 100 100 100 100 100 100 100 100 100 100 100 100 100 100 100 100 100 100 100 100 100 100 100 100 100 100 100 100 100 100 100 100 100 100 100 100
100 100 100 100 100 100 100 100 100 100 100 100 100 100 100 100 100 100 100 100 100 100 100 100 100 100 100 100 100 100 100 100 100 100 100 100 100 100 100 100 100 100 100 100
100 100 100 100 100 100 100 100 100 100 100 100 100 100 100 100 100 100 100 100 100 100 100 100 100 100 100 100 100 100 100 100 100 100 100 100 100 100 100 100 100 100 100 100
99 100 100 100 100 100 100 100 100 100 100 100 100 100 100 100 100 100 100 100 100 100 100 100 100 100 100 100 100 100 100 100 100 100 100 100 100 100 100 100 100 100 100 100
100 100 100 100 100 100 100 100 100 100 100 100 100 100 100 100 100 100 100 100 100 100 100 100 100 100 100 100 100 100 100 100 100 100 100 100 100 100 100 100 100 100 100 100
100 100 100 100 100 100 100 100 100 100 100 100 100 100 100 100 100 100 100 100 100 100 100 100 100 100 100 100 100 100 100 100 100 100 100 100 100 100 100 100 100 100 99 98
100 100 100 100 100 100 100 100 100 100 100 100 100 100 100 100 100 100 100 100 100 100 100 100 100 100 100 100 100 100 100 100 100 100 100 100 100 80 91 94 83 72 91 100
100 100 100 100 100 100 100 100 100 100 100 100 100 100 100 100 100 100 100 100 100 100 100 100 100 100 100 100 100 100 100 100 100 99 93 91 98 100 100 100 91 78 96 100
100 100 100 100 100 100 100 100 100 100 100 100 100 100 100 100 100 100 100 100 100 100 100 100 100 100 100 100 100 87 93 99 99 94 98 99 100 100 100 95 82 76 69 84
100 100 100 100 100 100 100 100 100 100 100 100 100 100 100 100 100 100 100 100 100 100 100 85 77 65 58 51 63 99 84 73 29 5 65 100 100 100 87 68 78 84 97 98

GFSNGP_prec_cloud_069.txt.gz
Cloud_Cover
100 100 100 100 100 100 100 100 100 100 99 99 5 8 100 46 23 92 48 5 5 5 6 0 0 0 0 0 7 18 100 100 100 100 96 100 100 100 100 100 100 100 100 100
100 100 100 100 100 100 100 100 100 100 100 100 68 5 5 99 65 81 99 100 8 5 0 26 99 18 1 0 0 50 100 92 100 100 65 100 100 100 100 100 100 100 100 100
100 100 100 94 94 100 100 100 100 100 100 100 74 5 75 22 64 84 100 100 100 60 12 1 42 6 6 1 3 3 87 77 100 100 100 100 100 100 100 100 100 100 100 100
100 100 100 37 96 100 100 100 100 100 100 100 72 21 18 100 44 83 100 100 100 100 100 56 22 30 40 58 72 79 100 100 100 100 100 100 100 100 100 100 100 100 100 100
89 100 62 70 99 100 100 100 100 100 100 100 100 36 5 30 83 79 100 68 70 100 100 100 97 95 100 100 100 100 100 100 100 100 100 100 100 100 100 100 100 100 100 100
99 100 100 14 100 100 100 14 100 100 92 65 24 5 27 13 44 99 100 95 88 100 75 88 100 100 100 100 100 100 100 100 100 100 100 100 100 100 100 100 100 100 100 100
98 100 8 50 100 100 84 27 100 99 83 88 97 67 96 100 97 100 100 93 100 98 76 13 56 93 100 100 100 100 100 100 100 100 100 100 100 100 100 100 100 100 100 100
100 100 100 94 100 100 95 93 86 100 61 43 85 96 97 35 100 93 100 100 100 100 100 65 99 44 100 100 100 100 100 100 100 100 100 100 100 100 100 100 100 98 76 100
24 51 100 100 100 100 100 100 100 70 23 100 95 100 82 84 100 100 100 100 100 100 100 100 83 17 100 96 34 69 100 100 100 100 100 100 100 100 100 100 96 100 100 100
0 0 94 100 100 100 100 100 72 100 100 83 85 100 88 100 100 100 100 100 100 99 100 100 100 100 100 100 60 27 63 100 100 100 100 100 100 100 100 88 100 100 100 99
0 0 23 100 100 100 100 100 100 91 100 100 100 100 100 100 100 100 91 100 100 100 100 100 100 100 100 100 100 95 89 100 100 100 100 100 100 100 99 92 93 94 91 100
44 5 44 42 100 100 100 100 99 100 100 100 100 100 100 100 100 100 100 100 100 100 100 100 100 100 100 100 99 72 86 99 100 100 100 100 100 100 100 100 100 100 100 100
90 10 100 100 100 100 100 100 100 100 100 100 100 100 100 100 100 100 100 100 100 100 100 100 100 100 100 100 100 100 100 100 100 100 100 100 100 100 100 100 100 100 100 100
96 86 100 100 100 100 100 100 100 100 100 100 99 92 100 100 100 100 100 100 100 100 100 100 100 100 100 100 100 100 100 100 100 100 100 100 100 100 100 100 100 100 100 100
100 100 100 100 100 100 100 100 100 94 99 99 80 97 100 100 100 99 100 100 100 100 100 100 100 100 100 100 100 100 100 100 100 100 100 100 100 100 100 100 100 100 100 100
100 86 100 100 100 100 100 100 100 100 53 100 100 100 100 100 100 100 100 100 100 100 100 100 100 99 100 100 100 100 100 100 100 100 100 100 100 100 100 100 100 100 100 100
100 100 100 100 100 100 100 100 100 100 97 100 100 100 100 100 100 100 100 100 100 100 100 100 100 100 100 100 100 100 100 100 100 100 100 100 100 100 100 100 100 100 100 100
100 100 100 100 100 100 100 100 100 100 100 100 100 97 100 100 100 100 100 100 100 100 100 100 100 100 100 100 100 100 100 100 100 100 100 100 99 100 100 100 100 100 99 100
100 100 100 100 100 100 100 100 100 100 100 100 96 100 100 100 100 100 100 100 100 100 100 100 100 100 100 100 100 100 100 100 100 100 100 100 100 100 100 93 92 97 100 100
100 100 100 100 100 100 100 100 100 100 100 100 100 100 100 100 100 100 100 100 100 100 100 100 100 100 100 100 100 100 100 100 100 100 100 99 90 95 100 99 100 100 100 100
99 100 100 100 100 100 100 100 100 100 100 100 100 100 100 100 100 100 100 100 100 100 100 100 100 100 100 100 100 100 100 100 100 100 100 99 98 100 100 100 99 100 100 100
98 99 100 100 100 100 100 100 100 100 100 100 100 100 100 100 100 100 100 100 100 100 100 100 100 100 100 100 100 100 100 100 100 100 100 100 100 100 100 100 100 100 100 100
100 100 100 100 100 100 100 100 100 100 100 100 100 100 100 100 100 100 100 100 100 100 100 100 100 100 100 100 100 100 100 100 100 100 100 98 96 97 96 95 97 100 100 96
100 100 100 100 100 100 100 100 100 100 100 100 100 100 100 100 100 100 100 100 100 100 100 100 100 100 100 100 100 100 100 100 100 100 100 100 100 100 100 100 100 100 99 80
100 100 100 100 100 100 100 100 100 100 100 100 100 100 100 100 100 100 100 100 100 100 98 92 90 90 100 96 90 99 97 100 100 100 100 100 100 100 100 100 100 100 93 83
100 100 100 100 100 100 100 99 100 100 100 100 100 100 100 100 100 100 100 100 100 100 100 98 94 88 82 77 93 100 99 100 100 100 100 100 100 100 99 72 89 91 100 100
100 100 100 100 100 100 100 100 100 100 100 100 100 100 100 100 91 93 84 72 58 43 33 15 11 38 86 98 72 75 64 77 98 98 100 100 100 100 100 100 100 100 100 100

GFSNGP_prec_cloud_072.txt.gz
Cloud_Cover
100 100 100 100 100 100 86 74 65 95 82 100 100 5 59 100 99 100 100 100 100 100 85 25 23 12 0 0 0 0 0 19 100 100 100 55 78 58 100 100 100 100 100 100
100 100 100 96 91 5 5 35 9 71 80 100 100 100 100 100 100 100 100 100 79 99 100 86 8 5 5 0 0 0 0 0 0 33 99 100 100 100 100 100 100 100 100 100
90 100 100 100 100 87 34 61 100 100 100 100 100 100 100 100 100 100 99 100 100 100 100 100 96 98 100 31 1 0 0 0 2 5 71 96 96 89 100 100 100 100 100 100
93 98 96 100 100 100 100 81 100 100 100 100 82 100 100 100 100 100 100 100 73 77 94 96 100 100 44 99 23 14 0 4 2 6 53 94 100 100 100 100 100 100 100 100
96 100 16 7 100 100 100 6 61 75 100 100 100 100 74 64 100 95 68 100 100 100 100 100 100 52 100 100 100 100 89 34 98 100 100 100 100 100 100 100 100 100 100 100
95 90 54 9 100 100 6 46 98 36 26 68 99 100 100 100 96 99 99 85 100 99 100 98 100 100 98 100 100 100 100 100 100 100 100 100 100 100 100 100 100 100 100 100
100 96 9 6 100 100 54 26 8 5 44 60 81 89 100 100 100 99 100 91 100 100 99 100 100 100 100 100 100 100 100 100 100 100 100 100 100 100 100 100 100 100 100 100
93 74 70 0 100 100 100 67 12 83 45 78 26 100 71 96 100 100 61 98 100 100 82 100 100 100 100 100 100 100 100 100 100 100 100 100 100 100 100 100 100 100 100 100
2 4 0 0 1 94 100 78 82 88 100 100 100 99 100 100 100 100 98 100 100 100 100 100 100 100 100 100 100 100 100 100 100 100 100 100 100 100 100 100 100 100 100 100
68 0 0 0 0 3 14 100 100 65 100 100 87 100 100 100 100 100 100 100 98 100 100 100 100 100 100 100 100 100 100 100 100 100 100 100 100 100 100 100 100 100 100 100
0 0 0 0 0 4 5 100 100 97 98 100 100 100 87 94 100 100 100 100 100 100 97 100 100 100 100 100 100 100 100 100 100 100 100 100 100 100 100 100 100 100 100 100
0 54 98 48 4 0 38 100 100 100 100 100 100 100 30 99 100 100 100 100 100 100 100 100 100 100 100 100 100 87 81 100 100 100 100 100 100 100 100 100 100 100 100 100
98 37 29 28 11 5 83 100 100 100 100 100 99 100 99 100 65 100 100 100 100 100 100 100 100 100 100 100 100 100 100 100 100 100 100 100 100 100 100 100 100 100 100 100
100 92 49 59 100 72 94 100 100 100 100 100 100 82 83 100 89 97 100 100 100 100 100 100 100 100 100 100 100 100 100 100 100 100 100 100 100 100 100 100 100 100 100 100
90 100 100 72 100 85 100 100 100 100 100 100 100 100 100 44 74 100 100 100 100 100 100 100 100 100 100 100 100 100 100 100 100 100 100 100 100 100 100 100 100 100 100 100
96 100 100 66 100 100 100 100 61 100 100 100 100 76 93 100 100 100 100 100 100 100 100 100 100 100 100 100 100 100 100 100 100 100 100 100 100 100 100 100 100 100 100 100
100 100 100 100 100 100 100 100 90 87 100 100 100 96 95 96 100 100 100 100 100 100 100 100 100 100 100 100 100 100 100 100 100 100 100 100 100 100 100 100 100 100 100 100
100 100 100 100 100 100 100 100 100 100 100 100 100 100 86 99 100 100 100 100 100 100 100 100 100 100 100 100 100 100 100 100 100 100 100 100 100 100 100 100 100 100 100 100
100 100 100 100 100 100 100 100 100 100 100 100 100 100 100 100 100 100 100 100 100 100 100 100 100 100 100 100 100 100 100 100 100 100 100 100 100 100 100 100 100 100 100 100
100 100 100 100 100 100 100 100 100 100 100 100 100 100 100 100 100 100 100 100 100 100 100 100 100 100 100 100 100 100 100 100 100 100 100 100 100 100 100 100 100 100 100 99
100 100 100 100 100 100 100 100 100 100 100 100 100 100 100 100 100 100 100 100 100 100 100 100 100 100 100 100 100 100 100 100 100 100 100 100 100 100 100 100 97 83 91 98
100 100 100 100 100 100 100 100 100 100 100 100 100 100 100 100 100 100 100 100 100 100 100 100 100 100 100 100 100 100 100 100 100 100 100 100 99 87 96 100 100 100 100 98
100 100 100 100 100 100 100 100 100 100 100 100 100 100 100 100 100 100 100 100 100 100 100 100 100 100 100 100 100 100 100 100 100 88 93 92 82 96 100 100 100 100 100 91
100 100 100 100 100 100 100 100 100 100 100 100 100 100 100 100 100 100 100 100 100 100 100 100 99 99 100 99 96 100 100 100 100 100 97 100 100 100 100 100 100 100 100 99
100 100 100 100 100 100 100 100 100 100 100 100 100 100 100 100 100 100 100 100 100 100 100 100 100 100 100 99 100 97 91 64 68 100 100 100 100 100 100 100 100 100 100 100
100 100 100 100 100 100 100 100 100 100 100 100 100 100 100 100 99 99 90 79 78 95 100 100 99 84 86 72 70 64 51 63 84 100 100 100 100 100 100 95 100 100 100 100
100 100 100 100 100 100 100 100 100 100 100 100 100 100 95 75 98 100 97 97 65 60 82 98 98 90 77 94 97 100 100 100 100 100 100 100 100 100 100 100 100 100 100 100

GFSNGP_prec_cloud_075.txt.gz
Cloud_Cover
87 98 100 100 100 100 100 100 100 100 100 100 100 100 100 99 85 100 100 93 100 88 8 71 94 85 86 5 4 5 5 2 0 8 100 88 56 38 44 5 71 26 32 100
100 100 100 100 95 98 100 100 99 100 100 100 100 100 100 100 77 97 100 100 100 100 26 100 100 100 100 100 49 5 5 16 5 0 0 68 100 100 100 61 87 100 100 49
100 100 100 84 100 100 57 6 5 35 100 100 100 100 100 100 100 100 98 100 100 100 100 100 94 96 100 88 96 31 5 7 5 5 4 0 0 0 11 85 100 98 94 100
79 100 84 100 100 100 100 87 42 5 7 82 93 100 100 100 100 100 100 100 100 100 100 100 100 48 94 100 98 100 97 79 83 21 2 4 7 9 20 100 100 100 100 100
94 55 27 88 100 100 100 100 100 87 5 12 65 92 100 100 100 100 100 100 100 100 100 100 100 98 48 100 100 100 100 100 100 100 99 54 80 100 100 100 100 100 100 100
100 100 57 100 100 100 100 100 100 100 100 100 84 45 74 100 100 100 100 100 100 100 94 100 100 100 100 99 77 78 94 100 96 100 100 100 100 100 100 100 100 100 100 100
67 85 10 4 3 13 44 9 6 81 44 68 30 5 40 95 100 100 100 100 100 100 100 100 100 99 98 98 88 100 98 100 100 100 100 100 100 100 100 100 100 100 100 100
67 96 57 10 5 27 20 3 4 69 100 12 5 74 70 83 100 98 100 100 100 100 100 100 100 100 100 100 100 100 100 100 100 100 100 100 100 100 100 100 100 100 100 100
9 11 12 91 42 3 0 0 0 0 100 100 22 25 90 91 98 96 97 100 100 100 100 100 100 100 100 100 100 100 100 100 100 100 100 100 100 100 100 100 100 100 100 100
4 5 5 0 3 5 13 1 0 0 45 100 100 26 70 100 99 22 83 34 38 100 100 100 100 100 100 100 100 100 100 100 100 100 100 100 100 100 100 100 100 100 100 100
5 37 17 5 1 34 2 0 0 0 7 33 100 100 99 42 100 100 43 59 99 100 100 100 100 100 100 100 100 100 100 100 100 100 100 100 100 100 100 100 100 100 100 100
5 90 98 68 32 100 4 44 13 0 2 73 100 100 100 84 24 99 100 92 80 100 100 100 100 100 100 100 100 100 100 100 100 100 100 100 100 100 100 100 100 100 100 100
92 85 44 95 87 100 10 23 20 5 5 26 56 100 100 100 99 82 100 100 95 100 100 100 100 100 100 100 100 100 100 100 100 100 100 100 100 100 100 100 100 100 100 100
100 69 100 100 100 68 68 37 16 13 85 49 66 100 100 100 100 100 100 100 100 100 100 100 96 100 100 100 100 100 100 100 100 100 100 100 100 100 100 100 100 100 100 100
100 100 100 100 100 98 53 100 100 82 100 100 100 100 100 100 100 100 100 100 100 100 100 100 100 100 100 100 100 100 100 100 100 100 100 100 100 100 100 100 100 100 100 100
100 71 100 100 100 100 100 100 100 99 100 100 99 100 100 100 100 100 100 100 100 100 100 100 100 100 100 100 100 100 100 100 100 100 100 100 100 100 100 100 100 100 100 100
77 85 100 100 100 100 100 100 100 100 100 100 100 100 100 100 100 100 100 100 100 100 100 100 100 100 100 100 100 100 100 100 100 100 100 100 100 100 100 100 100 100 100 100
100 100 100 100 100 100 100 100 100 100 100 100 100 100 100 100 100 100 100 100 100 100 100 100 100 100 100 100 100 100 100 100 100 100 100 100 100 100 100 100 100 100 100 100
100 100 100 100 100 100 100 100 100 100 100 100 100 100 100 100 100 100 100 100 100 100 100 100 100 100 100 100 100 100 100 100 100 100 100 100 100 100 100 100 100 100 100 100
100 100 100 100 100 100 100 100 100 100 100 100 100 100 100 100 100 100 100 100 100 100 100 100 100 100 100 100 100 100 100 100 100 100 100 100 100 100 100 100 100 100 100 100
100 100 100 100 100 100 100 100 100 100 100 100 100 100 100 100 100 100 100 100 100 100 100 100 100 100 100 100 100 100 100 100 100 100 100 100 100 100 100 100 100 100 100 100
100 100 100 100 100 100 100 100 100 100 100 100 100 100 100 100 100 100 100 100 100 100 100 100 100 100 100 100 100 100 100 100 100 100 100 100 100 100 100 100 100 100 100 100
100 100 100 100 100 100 100 100 100 100 100 100 100 100 100 100 100 100 100 100 100 100 100 100 100 100 100 100 100 100 100 100 100 100 100 100 100 90 92 100 95 84 80 70
100 100 100 100 100 100 100 100 100 100 100 100 100 100 100 100 100 100 100 100 100 100 100 100 100 100 100 100 100 100 100 100 100 100 100 93 99 100 76 98 63 67 67 63
100 100 100 100 100 100 100 100 100 100 100 100 100 100 100 100 100 100 100 100 100 100 100 100 100 100 100 100 100 93 100 94 96 82 86 86 87 98 81 64 64 63 71 84
100 100 100 100 100 100 100 100 100 100 100 100 100 100 100 100 100 100 100 100 100 89 93 99 100 100 100 100 93 84 84 86 82 78 85 84 61 42 18 30 62 77 87 96
100 100 100 100 100 100 100 100 100 100 100 100 100 100 100 100 100 100 100 100 100 100 100 100 100 98 95 100 92 92 99 92 68 80 71 68 50 72 74 86 94 98 100 98

GFSNGP_prec_cloud_078.txt.gz
Cloud_Cover
100 100 100 100 100 100 100 92 77 100 69 100 100 100 100 100 100 100 100 88 69 59 48 79 92 100 94 5 35 98 100 77 5 4 0 0 0 2 5 5 28 6 19 53
100 100 100 100 100 100 100 100 100 100 100 100 100 100 100 100 100 100 100 100 100 62 45 31 65 99 100 49 5 6 86 100 100 77 5 5 0 0 0 2 31 5 27 44
98 100 100 36 99 100 80 69 97 100 100 100 100 100 100 100 100 100 100 100 100 89 75 100 85 29 76 96 39 5 27 90 100 88 72 78 70 25 0 0 12 11 35 27
100 100 95 100 100 100 92 83 5 8 5 20 76 100 100 100 100 100 100 100 100 100 100 100 100 100 98 66 82 100 10 58 78 100 100 100 96 93 100 26 15 31 36 67
100 100 100 100 100 100 100 100 87 80 5 5 5 12 74 97 52 91 93 58 100 100 100 100 100 100 100 92 100 100 90 100 100 100 100 100 100 100 100 100 92 96 100 47
84 85 99 98 100 100 100 100 100 92 6 5 21 12 28 20 54 10 87 66 97 100 100 100 100 100 100 97 35 100 100 100 100 100 100 100 100 100 100 100 100 100 100 100
85 98 94 95 42 35 84 92 100 100 100 100 78 62 50 34 24 95 99 74 100 100 100 100 100 100 100 100 100 100 100 100 61 98 100 100 94 100 100 100 100 100 100 100
96 74 95 5 9 23 33 59 10 32 73 67 24 15 46 96 93 71 100 100 100 100 100 100 100 100 100 100 100 100 100 100 100 100 96 98 100 100 100 100 100 100 100 100
82 92 45 100 28 5 10 15 18 7 6 5 16 5 5 5 76 99 55 29 37 100 58 100 100 100 100 100 100 100 100 100 100 100 100 100 100 100 100 100 100 100 100 100
93 37 71 14 4 4 1 0 0 4 0 0 0 0 3 5 5 20 86 70 66 54 96 100 100 100 100 100 100 100 100 100 100 100 100 100 100 100 100 100 100 100 100 100
100 100 51 5 5 5 3 4 4 3 0 0 0 0 0 19 99 33 41 84 86 94 100 100 100 100 100 100 100 100 100 100 100 100 100 100 100 100 100 100 100 100 100 100
100 100 100 31 30 93 12 14 24 2 0 5 5 3 4 5 76 94 93 77 88 100 100 100 100 100 100 100 100 100 100 100 100 100 100 100 100 100 100 100 100 100 100 100
100 100 99 70 30 100 43 28 16 5 0 5 5 61 77 97 74 96 100 100 100 100 100 100 100 100 100 100 100 100 100 100 100 100 100 100 100 100 100 100 100 100 100 100
83 50 40 100 100 100 100 52 58 52 50 52 54 46 88 92 93 100 100 100 100 100 100 100 100 100 100 100 100 100 100 100 100 100 100 100 100 100 100 100 100 100 100 100
100 100 100 100 100 100 100 100 100 100 100 100 98 98 93 98 100 100 100 100 100 100 100 100 100 100 100 100 100 100 100 100 100 100 100 100 100 100 100 100 100 100 100 100
66 50 100 97 100 100 100 100 100 100 100 100 100 100 100 100 100 100 100 100 100 100 100 100 100 100 100 100 100 100 100 100 100 100 100 100 100 100 100 100 100 100 100 100
97 59 91 96 99 99 98 93 100 100 100 100 100 100 100 100 100 100 100 100 100 100 100 100 100 100 100 100 100 100 100 100 100 100 100 100 100 100 100 100 100 100 100 100
100 100 100 100 100 100 100 100 99 100 100 100 100 100 100 100 100 100 100 100 100 100 100 100 100 100 100 100 100 100 100 100 100 100 100 100 100 100 100 100 100 100 100 100
100 100 100 100 100 100 100 100 100 100 100 100 100 100 100 100 100 100 100 94 100 100 100 100 100 100 100 100 100 100 100 100 100 100 100 100 100 100 100 100 100 100 100 100
100 100 100 100 100 100 100 100 100 100 100 100 100 100 100 100 100 100 100 100 100 100 100 100 100 100 100 100 99 100 100 100 100 100 100 100 100 100 100 100 100 100 100 100
100 100 100 100 100 100 100 100 100 100 100 100 100 100 100 100 100 100 100 100 100 100 100 100 100 100 100 100 100 100 100 100 100 100 100 100 100 100 100 100 100 100 100 100
100 100 100 100 100 100 100 100 100 100 100 100 100 100 100 100 100 100 100 100 100 100 100 100 100 100 100 100 100 100 100 100 100 100 100 100 100 100 100 100 100 100 100 100
100 100 100 100 100 100 100 100 100 100 100 100 100 100 100 100 100 100 100 100 95 100 100 100 100 100 100 100 100 100 100 98 100 100 100 100 100 100 100 100 100 100 100 100
100 100 100 100 100 100 100 100 100 100 100 100 100 100 100 100 100 100 100 96 100 100 100 100 100 100 100 100 100 100 100 100 100 100 100 100 100 100 100 100 100 100 100 92
100 100 100 100 100 100 100 100 100 100 100 100 100 100 100 100 100 100 100 100 100 96 100 97 96 99 100 100 100 100 100 100 100 100 100 100 100 100 100 100 100 100 100 100
100 100 100 100 100 100 100 100 100 100 100 100 100 100 100 100 100 100 100 100 100 100 100 100 100 100 100 100 100 100 100 100 100 100 100 100 100 100 100 100 100 100 100 100
100 100 100 100 100 100 100 100 100 100 100 100 100 100 100 100 100 100 100 100 100 100 100 100 100 89 99 100 100 100 100 100 65 100 100 100 100 100 100 100 100 100 100 100

GFSNGP_prec_cloud_081.txt.gz
Cloud_Cover
100 100 99 100 100 100 99 100 100 100 100 100 99 100 100 99 100 100 100 99 96 96 92 54 37 5 5 5 5 89 100 42 10 53 98 49 2 4 2 0 1 4 5 5
100 100 100 100 100 100 100 100 100 100 100 100 100 90 100 100 100 100 100 100 100 100 67 92 100 100 49 5 5 6 82 100 85 5 15 100 100 67 14 72 80 4 2 4
100 100 100 100 100 100 100 100 100 100 100 100 91 52 100 100 100 100 100 100 100 100 100 18 49 98 82 21 46 8 83 66 29 100 73 68 68 9 26 22 45 94 100 99
100 100 100 100 100 100 100 100 100 100 100 100 100 100 100 100 100 100 100 100 100 100 100 100 100 100 99 100 37 52 100 46 73 100 51 41 98 100 100 100 100 100 27 94
100 100 100 100 92 100 100 100 100 100 100 100 100 100 100 100 100 100 100 100 100 100 100 100 100 100 91 76 80 99 100 100 85 98 93 99 100 100 100 100 93 80 100 100
100 100 100 100 100 100 100 100 85 65 99 100 100 100 97 100 97 78 75 98 100 100 100 38 67 100 100 100 100 12 100 100 97 44 97 100 100 100 100 91 89 100 100 100
100 100 100 100 100 100 100 100 100 100 95 75 68 47 23 5 32 5 20 24 17 21 73 99 19 54 97 100 91 100 65 41 100 100 100 100 100 100 100 100 100 100 100 100
100 100 100 100 98 85 100 100 100 100 100 98 88 73 26 5 10 5 5 14 5 5 10 58 97 74 74 100 95 100 100 100 96 100 92 97 100 100 100 100 100 100 100 100
100 100 100 100 100 99 96 45 45 30 5 35 17 6 4 6 6 5 15 4 5 5 19 99 100 100 100 100 100 100 100 100 100 100 100 100 100 100 100 100 100 100 100 100
97 86 100 48 100 100 15 8 5 5 5 5 5 2 1 1 0 0 1 0 0 1 89 100 100 100 100 100 100 100 100 100 100 100 100 100 100 100 100 100 100 100 100 100
100 100 97 100 100 93 24 53 5 0 0 0 0 0 0 0 0 0 0 0 10 46 99 100 100 100 100 100 100 100 100 100 100 100 100 100 100 100 100 100 100 100 100 100
98 79 76 63 92 13 11 65 54 34 1 0 0 0 1 5 13 42 80 86 94 100 100 100 100 100 100 100 100 100 100 100 100 100 100 100 100 100 100 100 100 100 100 100
96 100 56 20 87 62 75 96 46 29 28 14 40 53 23 37 68 91 88 100 100 100 100 100 100 100 100 100 100 100 100 100 100 100 100 100 100 100 100 100 100 100 100 100
100 99 54 100 96 99 100 100 78 97 100 100 100 100 100 73 92 100 92 100 100 100 100 100 100 100 100 100 100 100 100 100 100 100 100 100 100 100 100 100 100 100 100 100
100 99 99 100 100 93 72 34 34 49 85 83 83 99 100 100 100 100 100 100 100 100 100 100 100 100 100 100 100 100 100 100 100 100 100 100 100 100 100 100 100 100 100 100
100 100 100 99 100 94 82 78 78 95 100 100 89 90 100 100 100 100 100 100 100 100 100 100 100 100 100 100 100 100 100 100 100 100 100 100 100 100 100 100 100 100 100 100
68 64 77 96 100 100 100 100 100 100 100 100 100 100 100 100 100 100 100 100 100 100 100 100 100 100 100 100 100 100 100 100 100 100 100 100 100 100 100 100 100 100 100 100
94 100 100 100 100 100 100 100 100 100 100 100 100 100 100 100 100 100 100 100 100 100 100 100 100 100 100 100 100 100 100 100 100 100 100 100 100 100 100 100 100 100 100 100
100 100 100 100 94 100 100 100 100 100 100 100 100 100 100 100 100 100 100 100 100 100 100 100 100 100 100 100 100 100 100 100 100 100 100 100 100 100 100 100 100 100 100 100
100 100 100 100 100 100 100 100 100 100 100 100 100 100 100 100 100 100 100 100 100 100 100 100 100 100 100 100 100 100 100 100 100 100 100 100 100 100 100 100 100 100 100 100
100 100 100 100 100 100 100 100 100 100 100 100 100 100 100 100 100 100 100 100 100 100 100 100 100 100 100 91 94 100 100 100 100 100 100 100 100 100 100 100 100 100 100 100
100 100 100 100 100 100 100 100 100 100 100 100 100 100 100 100 100 100 100 100 100 100 100 100 100 99 82 78 92 100 100 100 100 100 100 100 100 100 100 100 100 100 100 100
100 100 100 100 100 100 100 100 100 100 100 100 100 100 100 100 100 100 100 100 100 100 100 100 100 100 100 100 100 100 100 100 100 100 100 100 100 100 100 100 100 100 100 100
100 100 100 100 100 100 100 100 100 100 100 100 100 100 100 100 100 100 100 100 100 100 100 100 100 100 100 100 100 100 100 100 100 100 100 100 100 100 100 100 100 100 100 100
100 100 100 100 100 100 100 100 100 100 100 100 100 100 100 100 100 100 100 100 100 100 100 100 100 100 100 100 100 100 100 100 100 100 100 100 100 100 100 100 100 100 100 100
100 100 100 100 100 100 100 100 100 100 100 100 100 100 100 100 100 100 100 100 100 100 100 100 100 100 100 100 100 100 100 100 100 100 100 100 100 100 100 100 100 100 100 100
100 100 100 100 100 100 100 100 100 100 100 100 100 100 100 100 100 100 100 100 100 100 100 100 100 100 100 100 100 100 100 100 57 90 100 100 100 100 100 100 100 100 100 100

GFSNGP_prec_cloud_084.txt.gz
Cloud_Cover
100 100 100 100 100 100 100 100 100 100 100 100 100 100 100 100 45 100 100 100 100 85 80 79 5 21 48 5 85 91 5 2 0 5 6 81 93 43 88 99 64 14 24 6
100 100 100 100 100 100 100 100 100 100 100 100 100 100 100 100 100 96 100 94 83 100 100 100 100 100 100 93 27 69 5 5 5 5 6 92 31 67 99 100 100 33 28 22
100 100 100 100 100 100 100 100 100 100 100 100 97 66 89 100 100 100 100 100 99 89 100 100 90 88 100 95 12 40 100 98 92 5 5 6 34 8 100 96 92 66 23 100
100 100 89 100 100 100 100 100 100 100 100 100 100 100 100 98 100 100 100 100 100 96 82 87 99 100 100 66 59 98 100 100 98 28 54 7 7 61 100 100 52 76 80 88
100 100 100 100 100 100 100 100 100 98 100 100 100 100 100 100 100 100 100 90 100 84 100 100 99 100 100 100 100 100 100 100 99 99 69 54 34 93 65 42 57 100 100 100
100 100 100 100 100 100 100 100 100 100 100 100 100 100 100 100 100 100 100 100 100 100 100 100 100 100 100 100 100 100 100 83 43 78 80 50 49 72 93 99 100 100 100 100
100 100 100 100 100 100 100 100 100 100 100 100 100 100 100 100 100 100 100 100 100 100 100 100 100 100 100 99 78 51 60 15 46 98 15 84 18 99 94 95 96 100 100 100
100 100 100 100 100 100 100 100 100 100 100 100 100 100 100 100 100 100 100 100 100 100 100 100 100 100 100 98 100 100 100 100 90 38 78 100 68 73 81 100 100 100 100 100
100 100 100 100 100 100 100 100 100 100 100 100 100 69 8 6 19 54 6 22 22 40 60 92 100 100 100 100 100 98 100 100 100 100 100 100 100 100 100 100 100 100 100 100
100 100 100 100 100 100 100 100 99 85 48 42 31 45 37 6 7 9 12 36 49 58 100 100 100 100 100 100 100 100 94 100 100 100 100 100 100 100 100 100 100 100 100 100
100 100 100 100 100 100 100 100 93 45 44 33 5 5 5 12 19 36 38 73 95 100 100 100 100 100 100 100 100 100 86 100 100 100 100 100 100 100 100 100 100 100 100 100
100 100 100 100 100 100 94 100 88 8 5 5 5 26 39 88 10 42 67 100 100 100 100 100 100 100 100 100 100 100 100 100 100 100 100 100 100 100 100 100 100 100 100 100
100 100 98 97 98 83 86 43 14 7 18 5 33 72 93 100 93 100 100 100 100 100 100 100 100 100 100 100 100 100 100 100 100 100 100 100 100 100 100 100 100 100 100 100
100 100 97 100 94 100 100 40 40 41 57 49 53 46 59 49 100 98 100 100 100 100 100 100 100 100 100 100 100 100 100 100 100 100 100 100 100 100 100 100 100 100 100 100
100 100 100 100 99 100 90 94 96 100 100 100 100 89 89 91 97 100 100 100 100 100 100 100 100 100 100 100 100 100 100 100 100 100 100 100 100 100 100 100 100 100 100 100
100 100 100 100 100 100 100 100 100 100 100 100 100 100 100 100 100 100 100 100 96 100 100 100 100 100 100 100 100 100 100 100 100 100 100 100 100 100 100 100 100 100 100 100
100 100 100 100 100 100 100 100 100 100 100 100 100 100 100 100 100 100 100 95 100 100 100 100 100 100 100 100 100 100 100 100 100 100 100 100 100 100 100 100 100 100 100 100
100 100 100 100 100 100 100 100 100 100 100 100 100 96 99 100 100 100 100 100 99 96 100 100 100 100 100 100 100 100 100 100 100 100 100 100 100 100 100 100 100 100 100 100
100 100 100 100 100 100 100 100 100 100 100 99 86 94 100 100 100 100 100 100 100 100 100 100 100 100 100 100 100 100 100 100 100 100 100 99 100 100 100 100 100 100 100 100
100 100 100 100 100 100 100 100 100 100 100 91 98 82 99 100 100 100 100 100 100 100 100 100 100 100 100 100 100 100 100 100 100 100 100 100 98 99 100 100 100 100 100 100
100 100 96 99 100 99 100 96 94 89 100 95 99 96 100 100 100 100 100 100 100 100 100 100 100 100 100 100 100 100 100 100 100 100 91 75 92 82 90 90 73 100 100 98
100 100 98 99 100 100 97 88 86 99 100 100 100 100 100 100 100 100 100 100 100 100 100 100 100 100 100 100 100 100 100 100 93 83 89 98 97 99 97 92 94 94 94 97
100 100 100 99 99 100 98 100 100 100 100 100 100 100 100 100 100 100 100 100 100 100 100 100 100 100 97 96 100 100 99 93 100 100 96 90 100 80 72 100 100 83 37 100
100 100 100 100 100 100 100 100 100 99 99 100 100 100 100 100 100 100 100 100 100 100 100 100 100 99 100 96 100 100 97 100 100 100 98 100 100 100 99 100 100 100 100 100
100 100 100 91 96 100 99 100 100 100 100 100 100 100 100 100 100 100 100 100 100 100 100 100 100 100 99 100 100 100 96 67 96 100 100 100 100 100 100 100 73 79 100 100
100 100 100 94 100 100 100 100 100 100 100 100 100 100 100 100 100 100 100 100 100 100 100 100 100 100 100 100 100 100 100 100 100 100 100 100 100 100 100 100 100 100 100 100
99 100 100 100 100 100 100 100 100 100 100 100 100 100 100 100 100 100 100 100 100 100 100 100 84 70 85 91 100 100 100 100 79 80 100 100 100 100 100 100 100 100 100 100

GFSNGP_prec_cloud_087.txt.gz
Cloud_Cover
100 100 100 100 100 100 100 100 100 100 100 100 100 100 100 100 100 46 89 100 100 92 69 96 68 94 90 36 5 5 5 99 100 100 2 5 4 4 23 96 68 28 31 12
100 100 100 100 100 100 100 100 100 100 100 100 100 100 100 99 100 42 100 100 100 100 91 87 27 44 37 79 79 69 44 100 100 98 5 3 3 5 5 5 15 20 52 8
100 100 100 100 100 100 100 100 100 100 100 100 100 100 99 100 100 100 100 100 46 99 100 100 100 100 100 100 100 100 100 98 100 51 5 5 24 11 10 20 5 38 54 93
100 100 100 100 100 100 100 100 100 100 100 100 100 100 88 100 100 100 100 100 100 100 100 100 100 36 63 99 76 69 100 100 100 78 15 96 100 100 100 52 56 17 18 44
100 100 100 100 100 100 100 100 100 74 100 100 99 100 100 100 100 100 100 17 48 76 94 100 100 70 73 99 100 25 65 100 100 100 100 100 100 100 100 41 42 35 51 66
100 100 100 100 100 100 100 100 18 100 100 100 100 100 100 100 100 100 100 100 100 100 100 100 100 100 100 100 97 97 71 61 91 100 100 100 100 100 100 100 12 98 100 100
100 100 100 100 100 100 100 100 98 100 100 100 100 100 100 100 100 100 100 100 100 100 100 100 99 100 100 100 100 100 100 100 100 100 100 100 100 100 100 100 99 100 100 100
100 100 100 100 100 100 100 100 100 100 100 100 100 100 100 93 100 100 100 100 100 100 100 100 100 100 100 100 100 100 100 100 100 100 100 100 100 100 100 99 100 100 100 100
100 100 100 100 100 100 100 100 100 100 100 100 100 100 100 100 100 100 100 100 100 100 100 100 100 100 100 100 100 100 100 100 100 100 100 100 100 100 100 100 100 100 100 100
100 100 100 100 100 100 100 100 100 100 100 100 100 100 100 100 100 100 100 100 100 100 100 100 100 100 100 100 100 100 100 100 100 100 100 100 100 100 100 100 100 100 100 100
100 100 100 100 100 100 100 100 100 100 100 100 100 100 100 100 100 100 100 100 100 100 100 100 100 100 100 100 100 100 100 98 99 83 85 100 100 100 100 100 100 100 100 100
100 100 100 100 100 100 100 100 100 100 100 100 100 100 100 100 100 99 66 100 100 100 100 100 100 100 100 100 100 100 100 100 100 100 92 89 99 100 100 100 100 100 100 100
100 100 100 100 100 100 100 100 100 100 100 96 48 31 37 23 80 83 100 100 100 100 100 100 100 100 100 100 100 100 100 100 100 100 99 86 92 100 100 100 100 100 100 100
100 100 100 100 100 100 100 100 100 100 100 100 94 92 84 90 96 100 97 94 100 100 100 100 100 100 100 100 100 100 100 100 100 100 100 100 100 94 100 100 100 100 100 100
100 100 100 100 100 100 100 96 100 100 100 100 100 96 93 99 100 100 100 100 100 100 100 100 100 100 100 100 100 100 100 100 100 100 100 100 95 80 92 100 100 100 100 100
86 100 100 100 100 100 100 96 92 100 100 100 100 88 76 94 100 100 100 100 96 100 100 100 100 100 100 96 92 94 100 100 100 100 99 98 100 100 100 100 100 100 100 100
100 100 100 100 100 100 100 100 100 100 100 100 100 100 100 100 100 99 100 96 99 100 100 100 100 100 90 100 100 100 100 100 100 100 100 99 98 100 100 100 100 100 100 100
100 100 100 100 100 100 100 100 100 100 100 100 100 100 100 98 100 100 100 91 80 83 100 100 100 100 100 98 97 100 100 100 100 100 100 99 100 100 100 99 100 100 100 100
100 100 100 100 100 100 100 100 100 100 100 95 87 92 95 95 100 100 100 100 97 97 100 100 100 100 100 100 100 100 100 100 100 100 100 100 100 100 100 100 100 100 98 100
90 74 61 98 93 86 100 100 89 81 95 80 91 92 97 100 100 100 100 100 100 100 100 100 100 100 100 100 100 100 100 100 100 100 100 100 100 100 100 100 100 98 97 100
64 26 80 97 100 100 100 74 54 89 97 82 98 98 100 100 100 100 100 100 97 100 100 100 100 100 100 100 100 100 100 100 100 100 100 100 100 100 100 100 100 100 100 100
75 67 72 60 91 99 91 74 67 72 77 86 99 100 100 100 100 99 100 100 98 100 100 100 100 100 100 100 100 100 100 100 100 100 100 100 100 100 98 95 100 98 100 99
93 71 64 64 76 90 80 89 93 98 93 86 85 89 99 99 100 100 100 100 100 100 100 100 100 100 100 100 100 100 100 100 100 97 100 100 100 83 81 96 42 49 75 56
82 80 65 32 62 77 94 97 95 91 88 91 93 100 100 100 100 100 100 100 100 100 100 100 100 100 100 100 100 100 100 100 99 100 91 100 61 36 91 100 98 79 76 80
80 87 96 96 100 100 100 100 100 100 100 100 100 100 100 100 100 100 100 100 100 100 100 100 100 100 100 100 100 100 100 98 92 96 96 83 70 71 90 92 78 98 67 46
90 91 95 100 100 100 100 100 100 100 100 100 100 100 100 100 100 100 100 100 100 100 100 100 100 100 100 100 100 100 100 100 100 100 90 82 100 79 83 88 99 100 90 39
94 99 100 100 100 100 100 100 100 100 100 100 100 100 100 100 100 100 100 100 100 100 100 99 81 65 57 42 66 84 100 100 100 95 71 72 94 74 59 37 13 51 75 85

GFSNGP_prec_cloud_090.txt.gz
Cloud_Cover
100 100 100 100 100 100 100 100 100 100 100 100 100 100 100 100 100 100 100 100 100 100 100 100 100 100 100 100 100 100 98 99 74 8 5 100 100 55 100 48 12 28 5 5
100 100 100 100 100 100 100 100 100 100 100 100 100 100 100 100 100 100 100 100 100 100 96 76 100 86 95 100 100 100 100 100 100 100 83 88 100 100 100 17 54 38 84 18
100 100 100 100 100 100 100 100 100 100 100 100 100 100 100 100 100 100 100 100 100 100 98 100 100 100 100 93 90 99 100 100 100 100 100 99 100 100 100 100 88 100 100 100
100 100 100 100 100 100 100 100 100 100 100 100 100 100 100 100 100 100 100 100 100 100 100 98 59 65 100 100 100 100 100 100 100 100 100 100 100 100 100 100 100 100 100 100
100 100 100 100 100 100 100 100 100 100 100 100 100 100 100 100 100 100 100 100 100 100 94 26 21 47 98 100 100 100 100 100 100 100 100 100 100 100 100 100 100 100 100 100
100 100 100 100 100 100 100 100 100 100 100 100 100 100 100 100 100 100 100 100 100 100 100 100 98 41 90 100 100 100 100 100 100 100 100 100 100 100 100 100 100 100 100 100
100 100 100 100 70 100 100 100 100 100 100 100 100 100 100 100 100 100 100 90 70 98 100 100 100 98 71 100 100 100 100 100 100 100 100 100 100 100 100 100 100 100 100 100
91 100 100 100 94 92 88 100 100 100 100 100 100 100 100 100 100 100 100 91 83 100 100 100 100 100 100 100 100 100 100 86 100 100 100 100 100 100 100 100 100 100 100 100
36 100 100 100 100 99 100 100 100 100 100 100 100 100 100 100 81 37 87 100 100 100 100 100 100 100 100 100 100 100 100 95 100 100 100 100 100 100 100 100 100 100 100 100
99 100 100 100 100 100 100 100 100 100 100 100 100 100 100 100 100 100 100 100 100 100 100 100 100 100 100 100 100 100 100 100 100 100 100 100 100 100 100 100 100 100 100 100
100 100 100 100 100 100 100 100 100 100 100 100 100 100 98 100 100 100 100 100 100 100 100 100 100 100 100 100 100 100 100 100 100 100 100 100 100 100 100 100 100 100 100 100
100 100 100 100 100 100 100 100 100 100 100 100 100 100 100 100 100 100 100 100 100 100 100 100 100 100 100 100 100 100 100 100 100 100 100 100 100 100 100 100 84 72 76 77
100 100 100 100 100 100 100 100 100 100 100 100 100 100 100 100 100 100 100 100 100 100 100 100 100 100 100 100 100 100 100 100 100 100 100 100 99 95 96 98 95 98 96 100
100 100 100 100 100 100 100 100 100 100 100 100 100 100 100 100 100 100 100 100 100 100 99 99 99 100 100 100 100 100 100 100 100 100 100 100 100 100 96 97 100 100 100 100
100 100 99 99 100 93 98 100 100 100 100 100 100 100 100 100 100 100 100 100 88 57 98 100 96 100 96 80 92 100 100 100 100 100 100 100 94 98 100 100 100 100 96 67
100 99 94 100 100 100 86 98 100 100 100 100 100 100 100 100 100 100 100 100 94 99 100 100 100 100 98 82 84 95 99 84 71 93 98 100 96 100 100 100 100 100 100 100
98 100 100 100 100 100 99 100 100 100 100 100 100 98 95 100 100 100 100 100 99 100 100 100 100 100 84 86 89 94 96 95 96 79 86 100 100 100 100 100 100 100 100 100
98 89 100 100 100 100 100 100 100 100 100 100 100 91 83 84 100 100 100 92 90 92 99 100 100 98 100 82 79 91 99 96 100 99 100 100 100 100 100 100 100 100 100 100
88 99 100 100 100 100 100 100 100 100 99 91 90 92 93 92 99 98 98 95 87 86 96 96 95 85 98 95 82 81 86 97 100 100 100 100 100 100 100 100 100 100 100 100
100 100 100 100 98 100 100 100 100 96 92 97 89 95 93 96 98 100 98 100 100 100 100 92 76 80 89 93 81 91 96 100 100 100 100 100 100 100 100 100 100 100 100 100
88 73 94 100 100 92 84 84 90 79 91 89 97 100 96 94 98 98 100 100 98 90 92 91 99 99 100 99 91 98 100 100 100 100 100 100 100 100 100 100 100 100 100 100
77 79 88 71 75 84 81 87 99 92 98 100 99 89 86 81 82 80 91 95 90 89 95 91 99 100 100 100 96 96 94 99 100 100 100 100 100 100 100 100 100 100 100 100
72 63 56 71 82 97 83 82 78 86 86 86 88 89 97 99 100 93 94 87 79 100 100 100 100 100 100 100 100 100 100 100 100 100 100 100 100 100 100 100 100 100 100 100
65 20 62 56 49 61 78 85 65 60 61 72 90 88 97 99 100 100 100 100 100 99 100 100 100 100 100 100 100 100 100 100 100 100 100 100 100 100 100 100 100 99 94 70
63 84 98 82 57 67 73 85 84 87 84 81 98 100 100 100 100 100 100 100 100 100 100 100 100 100 100 100 100 100 100 100 100 100 100 100 100 100 100 100 100 100 85 67
100 93 100 100 100 100 100 100 100 100 100 100 100 100 100 100 100 100 100 100 100 100 100 100 100 100 100 100 100 100 100 100 100 100 100 98 97 100 100 100 100 100 100 98
80 82 96 96 93 75 91 100 100 100 96 100 97 99 91 100 98 100 100 100 100 100 100 100 100 100 100 100 100 98 68 60 81 57 85 100 93 91 70 70 91 100 100 100

GFSNGP_prec_cloud_096.txt.gz
Cloud_Cover
100 100 100 100 99 53 23 86 86 12 74 100 100 100 100 100 100 100 100 100 100 100 100 100 100 100 100 100 100 100 100 100 100 100 100 100 100 98 95 18 66 16 4 5
100 100 100 100 34 32 5 72 5 20 89 100 100 100 100 100 100 100 100 100 100 100 100 100 100 100 100 100 100 100 100 100 100 100 100 100 96 71 32 17 5 6 9 59
100 29 6 15 5 25 49 6 6 93 100 100 100 100 100 100 100 100 100 100 100 100 100 100 100 100 100 100 100 100 100 100 100 100 100 100 100 100 100 67 44 26 76 41
100 89 85 64 5 3 5 42 93 97 100 100 100 100 100 100 100 100 100 100 100 100 100 100 100 100 100 100 100 100 100 100 100 100 100 100 100 100 100 100 100 99 98 86
100 100 100 100 41 5 5 49 100 100 100 100 100 100 100 100 100 100 100 100 100 100 100 100 100 100 100 100 100 100 100 100 100 100 100 100 100 100 100 100 100 100 100 100
100 100 100 100 46 6 42 54 100 100 100 100 100 100 100 100 100 100 100 100 100 100 100 100 100 100 100 100 100 100 100 100 100 100 100 100 100 100 100 100 100 100 100 100
100 100 100 100 69 5 4 98 100 100 100 100 100 100 100 100 100 100 100 100 100 100 100 100 100 100 100 100 100 100 100 100 100 100 100 100 100 100 100 100 100 100 100 100
100 100 100 100 99 22 100 100 100 100 100 100 100 100 100 100 100 100 100 100 100 100 100 100 100 100 100 100 100 100 100 100 100 100 100 100 100 100 100 100 100 100 100 100
96 100 100 100 100 100 100 100 100 100 100 100 100 100 100 100 100 100 100 100 100 100 100 100 100 100 100 100 100 100 100 100 100 100 100 100 100 100 100 100 100 100 100 100
100 100 100 100 100 100 100 100 100 100 100 100 100 100 100 100 100 100 100 100 100 100 100 100 100 100 100 100 100 100 100 100 100 100 100 100 100 100 100 100 100 100 100 100
100 100 100 100 100 100 100 100 100 99 100 100 100 100 100 100 100 100 100 100 100 100 100 100 100 100 100 100 100 100 100 100 100 100 100 93 100 100 100 100 100 100 100 100
100 100 100 100 100 100 100 100 100 100 100 100 100 100 100 100 99 100 100 100 100 100 100 100 100 100 100 100 100 100 100 100 100 100 100 99 98 100 100 100 100 100 99 93
100 100 100 100 100 100 100 100 100 100 100 68 100 100 100 100 100 100 100 100 100 100 100 100 100 100 100 100 96 100 100 100 100 100 100 100 100 100 83 96 100 100 100 100
100 100 100 100 100 100 100 100 98 100 100 100 100 94 100 100 100 100 100 99 94 100 100 100 100 100 100 99 96 97 88 96 88 99 100 95 95 92 76 75 100 100 100 100
100 100 100 100 100 100 100 100 100 100 100 100 100 100 100 100 100 100 100 100 90 79 97 100 100 100 100 100 100 94 99 97 99 100 99 100 94 98 100 100 100 100 100 92
100 100 100 100 100 100 100 100 100 100 100 100 100 100 100 100 100 100 100 100 98 97 100 91 89 100 99 100 98 95 91 100 100 100 100 100 100 100 100 97 100 100 100 100
100 100 100 100 100 99 100 100 100 100 100 100 100 100 100 100 96 99 91 100 96 97 100 100 100 96 90 95 100 89 84 87 84 82 91 99 100 100 100 99 100 100 100 100
100 98 100 100 100 100 100 100 100 100 100 100 80 58 59 73 92 96 99 98 96 93 92 99 99 92 99 93 92 92 94 88 85 90 97 98 100 99 96 98 96 99 92 70
92 100 100 100 100 99 100 100 100 100 94 91 90 90 84 81 79 78 79 82 82 86 98 85 94 95 92 97 78 93 100 97 100 100 100 100 97 96 89 95 93 89 80 76
100 78 51 58 54 70 96 91 55 71 68 15 55 60 68 100 85 78 76 100 100 100 70 66 72 84 77 74 80 95 100 100 100 96 96 92 87 90 90 95 98 94 98 99
100 99 99 100 98 79 83 49 12 83 68 9 9 93 98 69 59 12 12 82 98 30 48 56 58 63 67 82 90 97 100 100 100 100 93 90 94 82 92 100 100 98 95 88
43 72 92 77 80 100 96 80 65 69 85 97 86 30 21 20 35 78 96 100 94 86 84 86 89 88 92 96 98 97 97 100 100 100 100 100 100 100 99 99 100 93 93 100
57 38 56 22 55 99 85 65 66 31 52 61 62 64 88 88 67 76 85 78 85 84 83 83 90 91 98 100 100 100 100 100 100 100 100 100 100 100 100 100 100 100 100 100
61 51 69 73 62 34 66 69 53 37 73 84 99 84 39 83 98 95 82 89 99 100 100 100 100 100 100 100 100 100 100 100 100 100 100 100 100 100 100 100 100 100 100 100
12 59 67 94 55 57 39 54 62 45 24 40 8 6 23 39 35 62 6 50 79 100 100 100 100 100 100 100 100 100 100 100 100 100 100 100 100 100 100 100 100 100 100 100
63 69 81 90 91 94 97 94 87 83 93 95 73 90 74 82 62 62 82 89 50 41 69 97 99 100 100 100 100 100 100 100 100 100 100 100 100 100 97 96 100 100 100 100
92 75 86 95 100 100 99 99 100 100 100 100 83 81 84 95 78 25 95 100 100 100 99 98 79 48 46 99 95 96 99 99 100 78 100 100 91 100 93 95 100 100 100 100

GFSNGP_prec_cloud_099.txt.gz
Cloud_Cover
100 100 100 100 96 15 5 5 20 4 33 84 98 95 100 89 100 100 100 100 100 100 100 100 100 100 100 100 100 100 100 100 100 100 100 100 100 100 100 100 100 100 60 80
100 100 100 100 11 6 6 5 5 5 5 43 50 81 100 100 100 100 100 100 100 100 100 100 100 100 100 100 100 100 100 100 100 100 100 100 100 100 93 93 98 100 96 22
100 100 100 100 100 100 100 17 5 26 63 62 66 100 100 100 100 100 100 100 100 100 100 100 100 100 100 100 100 100 100 100 100 100 100 100 100 100 100 95 80 100 100 90
100 100 100 100 100 100 100 5 6 23 74 96 100 100 100 100 100 100 100 100 100 100 100 100 100 100 100 100 100 100 100 100 100 100 100 100 100 100 100 100 100 100 100 100
100 100 100 100 100 100 100 5 61 98 100 84 100 100 100 100 100 100 100 100 100 100 100 100 100 100 100 100 100 100 100 100 100 100 100 100 100 100 100 100 100 100 100 100
100 100 100 100 100 100 100 5 91 98 100 100 100 100 100 100 100 100 100 100 100 100 100 100 100 100 100 100 100 100 100 100 100 100 100 100 100 100 100 100 100 100 100 100
100 100 100 100 94 96 100 76 100 100 100 100 100 100 100 100 100 100 100 100 100 100 100 100 100 100 100 100 100 100 100 100 100 100 100 100 100 100 100 100 100 100 100 100
100 100 100 100 100 70 100 100 100 100 100 100 100 100 100 100 100 100 100 100 100 100 100 100 100 100 100 100 100 100 100 100 100 100 100 100 100 100 100 100 100 100 100 100
100 100 100 100 100 100 100 100 100 100 100 100 100 100 100 100 100 100 100 100 100 100 100 100 100 100 100 100 100 100 100 100 100 100 100 100 100 100 100 100 100 100 100 100
100 100 100 100 100 100 100 100 100 100 100 100 100 100 100 100 100 100 100 100 100 100 100 100 100 100 100 100 100 100 100 100 100 100 100 100 100 100 100 100 100 100 100 100
100 100 100 100 100 100 100 100 99 100 100 100 100 100 100 100 100 100 100 100 100 100 98 100 100 100 100 100 100 100 100 100 100 100 100 100 100 100 100 100 100 100 100 100
100 100 100 100 100 100 100 100 100 100 91 99 100 100 100 100 100 100 100 100 100 100 99 100 100 100 100 100 100 100 100 100 100 100 100 100 100 100 100 100 100 100 98 100
100 100 97 100 100 100 100 100 95 93 98 96 98 100 100 100 100 100 100 100 100 100 100 100 100 100 100 100 97 100 100 100 100 89 100 100 100 99 100 99 100 100 100 100
100 100 100 96 100 100 100 87 84 97 94 97 100 100 100 100 100 100 100 96 98 100 100 100 100 100 100 100 100 100 100 100 100 100 100 100 100 100 100 100 100 100 100 100
100 100 100 100 100 100 100 96 99 100 99 97 100 100 98 100 100 100 100 100 98 99 100 99 100 100 100 100 99 100 99 100 100 100 100 100 100 100 100 100 100 100 100 99
100 100 100 100 100 100 100 100 100 100 100 100 100 100 100 100 100 100 100 100 98 100 100 100 100 100 100 100 97 96 98 100 100 100 100 100 100 100 100 100 100 100 100 100
100 100 100 100 100 100 100 100 100 100 100 100 100 100 100 100 100 100 100 100 100 100 100 100 100 100 100 100 100 100 100 100 93 100 100 100 100 100 100 100 100 100 100 100
100 100 100 100 100 100 100 100 100 100 100 100 84 67 76 89 100 100 100 98 90 59 99 100 100 97 95 100 97 100 100 100 100 100 100 100 100 100 100 100 100 100 100 100
100 100 100 100 100 100 100 100 100 100 75 30 49 96 92 99 100 91 65 37 70 55 88 99 94 99 100 100 98 100 100 100 100 100 100 100 100 100 100 96 88 98 98 99
96 100 99 94 85 97 100 100 93 81 73 5 6 7 75 88 66 10 53 100 100 100 99 66 84 99 99 73 66 87 100 100 100 100 100 100 100 100 100 100 100 100 100 100
100 100 100 100 100 99 87 51 10 60 63 17 14 53 83 98 61 5 8 29 99 43 66 27 37 63 65 46 62 100 100 100 99 99 100 100 100 100 100 100 100 98 100 100
61 66 62 38 54 96 87 73 46 23 27 31 66 5 5 17 23 78 93 99 100 11 46 90 47 62 66 82 90 96 98 100 100 100 100 100 100 100 100 100 100 100 100 100
55 38 55 16 20 90 75 54 15 5 21 11 13 14 43 83 89 42 53 97 100 63 63 76 75 89 98 98 100 100 100 100 100 100 100 100 100 100 100 100 100 100 100 100
63 57 57 72 60 70 56 66 53 50 28 78 80 65 53 87 98 65 73 44 10 36 63 82 66 75 92 95 100 100 100 100 100 100 100 100 100 100 100 100 100 100 100 100
13 33 59 64 62 44 51 64 79 85 71 70 45 89 77 44 16 19 5 6 5 5 33 74 99 100 100 100 100 100 100 100 100 100 100 100 100 100 100 100 100 100 100 100
37 28 60 79 93 100 99 99 100 100 100 100 92 62 79 85 98 99 100 78 73 56 19 5 9 58 72 74 78 81 87 79 86 92 92 100 92 82 95 92 98 100 100 100
88 84 100 100 100 96 87 96 100 100 100 100 92 90 89 100 88 63 66 91 95 98 100 99 93 62 86 96 100 99 96 89 57 77 99 100 84 83 61 58 84 98 100 100

GFSNGP_prec_cloud_102.txt.gz
Cloud_Cover
100 100 100 100 100 100 100 100 98 22 11 82 69 82 98 100 100 100 96 52 100 100 100 100 100 100 100 100 100 100 100 100 100 100 100 100 100 100 100 100 100 100 100 100
100 100 100 100 100 100 100 100 84 6 90 100 72 66 100 100 100 100 100 100 100 100 100 100 100 100 100 100 100 100 100 100 100 100 100 100 100 100 100 100 100 100 100 100
100 100 100 100 94 100 100 54 93 99 99 64 98 100 100 100 100 100 100 100 100 100 100 100 100 100 100 100 100 100 100 100 100 100 100 100 100 100 100 100 100 100 100 100
100 100 99 89 68 99 32 41 75 80 96 66 88 100 100 100 100 100 100 100 100 100 100 100 100 100 100 100 100 100 100 100 100 100 100 100 100 100 100 100 100 100 100 100
100 100 100 100 100 100 100 98 98 100 100 100 100 100 95 100 100 100 100 100 100 100 100 100 100 100 100 100 100 100 100 100 100 100 100 100 100 100 100 100 100 100 100 100
100 100 100 100 100 100 100 100 100 100 100 100 100 100 100 100 100 100 100 100 100 100 100 100 100 100 100 100 100 100 100 100 100 100 100 100 100 100 100 100 100 100 100 100
100 100 100 100 100 100 100 84 100 100 100 100 100 100 100 100 100 100 100 100 100 100 100 100 100 100 100 100 100 100 100 100 100 100 100 100 100 100 100 100 100 100 100 100
100 100 100 100 92 100 100 100 100 100 100 100 100 100 100 100 100 100 100 100 100 100 100 100 100 100 100 100 100 100 100 100 100 100 100 100 100 100 100 100 100 100 100 100
94 100 100 100 100 100 100 100 100 100 100 100 100 100 100 100 100 100 100 100 100 100 100 100 100 100 100 100 100 100 100 100 100 100 100 100 100 100 100 100 100 100 100 100
100 100 100 100 100 100 100 100 100 100 100 100 88 90 98 100 100 100 100 100 100 100 100 100 100 100 100 100 100 100 100 100 100 100 100 100 100 100 100 100 100 100 100 100
100 100 100 100 100 100 100 100 100 99 96 98 83 81 99 100 100 100 100 100 100 100 100 100 100 100 100 100 100 100 100 100 100 100 100 100 100 100 100 100 100 100 100 100
100 100 100 100 100 100 99 100 87 99 97 98 82 87 90 100 100 100 100 100 100 100 100 100 100 100 100 100 100 100 100 100 100 100 100 100 100 100 100 100 100 100 100 100
100 96 92 97 100 100 100 100 98 90 73 63 97 100 86 98 100 100 100 100 100 100 100 99 100 100 100 100 100 100 100 100 100 100 100 100 100 100 100 100 100 100 100 100
94 97 100 100 100 100 100 100 86 78 20 28 88 94 94 95 100 100 100 100 100 100 100 99 95 100 100 100 100 100 100 100 100 100 100 100 100 100 100 100 100 100 100 100
100 89 100 100 100 100 100 100 100 100 100 96 97 100 98 100 100 100 100 100 100 100 100 100 100 100 100 100 100 100 100 100 100 100 100 100 100 100 100 100 100 100 100 100
100 100 100 100 100 99 100 100 100 100 100 100 100 100 100 100 100 100 100 100 96 100 100 100 100 100 100 100 100 100 100 100 100 100 100 100 100 100 100 100 100 100 100 100
100 100 100 100 100 100 100 100 100 100 100 100 100 99 100 100 100 100 100 100 100 100 100 100 100 100 100 100 100 100 100 100 100 100 100 100 100 100 100 100 100 100 100 100
79 85 100 97 100 98 100 100 100 100 100 100 100 90 100 100 100 100 100 100 98 76 98 100 100 100 100 100 100 100 100 100 100 100 100 100 100 100 100 100 100 100 100 96
92 100 100 100 98 100 100 100 99 100 100 94 86 100 100 100 100 100 100 99 100 91 92 100 100 100 100 100 100 100 100 100 100 100 100 100 100 100 100 100 100 100 100 100
100 100 100 100 99 99 100 100 100 100 100 77 80 87 84 88 88 84 99 95 100 100 100 94 99 100 100 61 47 100 100 100 100 100 100 100 100 100 80 71 99 100 100 100
100 100 100 100 100 91 90 71 58 67 56 5 5 5 21 70 70 71 94 100 99 84 93 65 23 58 5 39 71 100 100 100 100 100 100 100 100 100 100 100 100 100 100 100
100 96 98 98 95 100 100 100 87 92 90 67 6 5 73 93 88 94 94 99 100 44 80 99 82 13 28 36 100 100 100 100 100 100 100 100 100 100 100 100 100 100 100 100
100 95 94 97 100 100 100 93 81 62 67 76 95 99 71 98 100 99 100 99 100 68 99 99 28 27 92 100 100 100 100 100 100 100 100 100 100 100 100 100 100 100 100 100
100 100 99 99 97 100 100 98 95 62 33 90 90 43 62 100 100 100 100 83 78 70 87 81 36 8 100 100 100 100 100 100 100 100 100 100 100 100 100 100 100 100 100 100
80 89 83 99 94 95 84 100 83 100 86 100 100 100 100 100 100 100 100 98 48 100 100 42 12 67 100 100 100 100 100 100 100 100 100 100 100 100 100 100 100 100 100 100
83 96 99 100 97 100 100 100 100 100 100 100 100 100 100 100 100 98 100 94 100 74 100 100 100 100 100 100 100 100 100 100 100 100 90 100 100 100 100 100 100 100 100 100
97 81 100 100 100 100 100 96 100 100 100 100 100 100 100 100 97 89 69 100 100 100 100 100 100 100 100 100 100 100 100 100 100 100 100 100 100 100 100 100 100 100 100 100

GFSNGP_prec_cloud_108.txt.gz
Cloud_Cover
100 100 100 100 100 100 100 100 100 100 100 100 100 100 100 100 100 100 100 100 100 100 100 100 99 100 100 100 100 100 100 100 100 100 100 100 100 100 100 100 100 100 100 100
100 100 100 100 100 100 100 100 100 100 100 100 100 100 100 100 100 100 100 100 100 100 100 100 100 100 100 100 100 100 100 100 100 100 100 100 100 100 100 100 100 100 100 100
100 100 100 100 100 100 100 100 100 100 100 100 100 100 100 100 100 100 100 100 100 100 100 100 100 100 100 100 100 100 100 100 100 100 100 100 100 100 100 100 100 100 100 100
100 100 100 100 100 100 100 100 100 100 100 100 100 100 100 100 100 100 100 100 100 100 100 100 100 100 100 100 100 100 100 100 100 100 100 100 100 100 100 100 100 100 100 100
100 100 100 100 100 100 100 100 100 100 100 100 100 100 100 100 100 100 100 100 100 100 100 100 100 100 100 100 100 100 100 100 100 100 100 100 100 100 100 100 100 100 100 100
100 100 100 100 100 100 100 100 100 100 100 100 100 100 100 100 100 100 100 97 94 85 100 100 100 100 100 100 100 100 100 100 100 100 100 100 100 100 100 100 100 100 100 100
100 100 100 100 100 100 100 100 100 100 100 100 100 100 100 100 100 100 100 100 100 100 94 100 100 100 100 100 100 100 100 100 100 100 100 100 100 100 100 100 100 100 100 100
100 100 100 100 100 100 100 100 100 100 100 100 100 100 100 100 100 98 83 87 100 99 82 100 100 100 100 100 100 100 100 100 100 100 100 100 100 100 100 100 100 100 100 100
100 100 100 100 100 100 100 100 100 100 100 100 100 100 100 100 99 94 100 100 95 82 100 100 100 100 100 100 100 100 100 100 100 100 100 100 100 100 100 100 100 100 100 100
100 100 100 100 100 100 100 100 100 100 100 100 100 100 100 93 94 100 95 83 96 88 96 100 100 100 100 100 100 100 100 100 100 100 100 100 100 100 100 100 100 100 100 100
95 100 99 100 100 100 100 84 92 100 97 78 85 93 98 100 96 99 95 98 96 99 100 100 100 100 100 100 100 100 100 100 100 100 100 100 100 100 100 100 100 100 100 100
100 100 94 100 100 100 95 67 10 63 78 30 26 81 98 97 97 100 100 100 100 100 100 100 100 100 100 100 100 100 100 100 100 100 100 100 100 100 100 100 100 100 100 100
78 100 84 100 100 97 67 37 16 53 78 39 57 72 100 93 99 100 100 100 100 100 100 100 100 100 100 100 100 100 100 100 100 100 100 100 100 100 100 100 100 100 100 100
100 100 100 100 97 97 96 79 58 81 94 100 100 100 100 97 99 100 100 100 100 100 100 100 100 100 100 100 98 100 100 100 100 100 100 100 100 100 100 100 100 100 100 100
100 100 100 100 68 90 98 90 94 95 100 100 100 100 100 100 100 100 100 100 100 100 100 100 100 96 83 90 100 71 87 98 100 100 100 100 100 100 100 100 100 100 100 100
100 100 78 60 14 34 64 90 99 100 100 100 100 96 100 100 100 100 100 100 85 100 100 99 100 100 93 80 100 100 100 81 77 90 98 100 100 100 100 100 100 100 100 100
100 100 82 76 94 86 75 79 94 99 100 100 100 100 88 99 100 100 100 100 92 6 90 58 94 94 5 59 89 100 100 99 95 100 100 97 100 100 100 91 99 100 80 99
49 55 20 86 58 55 87 100 98 97 100 100 81 41 5 23 100 97 11 7 95 100 5 5 88 57 5 5 59 100 100 100 100 100 96 89 100 100 97 99 100 96 96 78
5 5 15 7 28 64 91 97 100 100 84 72 76 75 24 26 31 10 97 42 5 35 88 20 49 94 5 18 97 97 100 99 100 100 100 99 95 100 100 94 77 90 94 76
100 99 78 67 67 86 100 100 100 85 63 37 5 5 5 5 5 5 34 92 16 9 61 88 5 5 5 5 95 99 100 100 100 96 57 99 100 96 84 41 97 100 100 100
49 36 58 95 61 5 6 5 5 5 5 5 5 5 5 5 5 5 4 94 83 5 59 99 5 5 6 12 100 93 100 100 100 100 99 100 100 100 100 100 100 100 100 100
95 35 5 5 35 62 16 18 5 5 5 5 5 5 12 96 100 85 62 6 100 5 99 66 4 4 12 48 100 100 80 86 100 100 100 100 100 100 100 100 100 99 100 100
83 68 62 5 53 84 45 9 5 5 42 32 12 5 21 92 94 33 100 83 5 4 98 7 4 5 22 97 100 100 100 100 99 100 46 97 93 94 98 100 99 100 100 97
100 98 96 98 75 99 96 65 62 32 19 18 5 5 18 87 80 100 100 60 40 2 75 17 6 5 43 100 100 100 100 99 85 100 100 94 100 100 100 100 100 100 100 100
100 100 99 100 100 100 53 77 8 23 31 100 66 79 57 38 23 53 6 57 14 34 61 100 41 10 96 100 99 100 98 97 5 6 60 95 100 99 100 100 76 84 84 73
100 100 100 91 90 81 78 97 96 92 100 100 100 100 100 88 78 56 100 89 29 83 97 100 97 50 99 100 60 100 98 100 100 100 94 95 100 92 100 87 28 100 100 100
99 99 100 100 88 88 59 29 5 50 84 86 97 100 100 8 100 68 58 80 99 100 99 99 100 100 66 60 56 100 100 100 100 100 81 10 100 100 100 100 100 100 100 100

GFSNGP_prec_cloud_111.txt.gz
Cloud_Cover
100 100 100 100 100 100 100 100 100 100 100 100 100 100 100 100 100 100 100 100 100 100 100 100 100 100 100 100 100 100 100 100 100 100 100 100 100 98 100 100 100 100 100 100
100 100 100 100 100 100 100 100 100 100 100 100 100 100 100 100 100 100 100 100 100 100 100 100 100 100 100 100 100 100 100 100 100 100 100 100 61 100 100 100 100 100 100 100
100 100 100 100 100 100 100 100 100 100 100 100 100 100 100 100 100 100 100 100 100 100 100 100 100 100 100 100 100 100 100 100 100 100 100 100 100 100 100 100 100 100 100 100
100 100 100 100 100 100 100 100 100 100 100 100 100 100 100 100 100 100 100 100 100 100 100 100 100 100 100 100 100 100 100 100 100 100 100 100 100 100 100 100 100 100 100 100
100 100 100 100 100 100 100 100 100 100 100 100 100 100 100 100 100 100 100 100 100 100 100 100 100 100 100 100 100 100 100 100 100 100 100 100 100 100 100 100 100 100 100 100
100 100 100 100 100 100 100 100 100 100 100 100 100 100 100 100 100 100 100 100 100 100 100 100 100 100 100 100 100 100 100 100 100 100 100 100 100 100 100 100 100 100 100 100
100 100 99 99 100 100 100 100 100 100 100 100 100 100 100 100 100 100 100 100 100 100 100 99 100 100 100 100 100 100 100 100 100 100 100 100 100 100 100 100 100 100 100 100
100 100 100 100 100 100 100 100 100 100 100 100 100 100 100 100 100 100 100 100 100 100 82 41 93 100 100 100 100 100 100 100 100 100 100 100 100 100 100 100 100 100 100 100
100 100 100 100 100 100 100 100 100 100 100 100 100 100 100 100 100 100 100 100 100 100 89 91 86 100 100 100 100 100 100 100 100 100 100 100 100 100 100 100 100 100 100 100
100 100 100 100 100 100 100 100 100 100 100 100 100 100 100 100 97 80 73 97 100 93 41 93 95 100 100 100 100 100 100 100 100 100 100 100 100 100 100 100 100 100 100 100
100 100 98 100 100 99 99 97 100 100 100 100 100 100 90 51 72 90 75 59 42 57 98 99 98 99 98 94 100 100 100 100 100 100 100 100 100 100 100 100 100 100 100 100
97 100 99 99 100 88 76 70 89 96 100 99 100 100 100 100 93 77 76 23 8 33 72 71 82 93 95 93 88 100 100 100 100 100 100 100 100 100 100 100 100 100 100 100
83 100 100 100 83 88 65 11 67 73 18 9 36 12 27 40 21 29 73 71 5 10 67 53 35 74 100 94 100 100 100 100 92 99 100 100 100 100 100 100 100 100 100 100
100 100 100 100 99 99 96 92 75 34 9 5 5 8 6 65 54 35 92 100 41 5 5 71 41 80 73 84 89 99 100 100 100 99 100 100 100 100 100 100 100 100 100 100
100 100 100 99 88 74 64 89 62 55 6 5 5 41 83 64 67 84 100 100 100 100 100 35 80 96 24 57 78 97 76 99 100 100 98 87 100 100 100 100 100 100 100 100
94 24 12 5 5 5 5 5 5 13 9 46 56 77 100 100 100 100 92 71 37 37 6 50 39 28 73 54 23 84 99 100 99 100 100 100 96 98 100 100 100 100 100 100
6 5 5 5 5 5 5 5 5 5 5 28 60 21 69 61 56 32 17 98 98 5 5 62 89 5 83 76 68 94 100 64 96 100 100 95 96 96 58 68 90 100 100 100
16 5 5 5 5 5 5 5 5 16 67 35 10 5 5 36 39 62 38 5 65 5 6 5 5 5 55 62 14 9 82 66 45 96 81 98 100 100 100 93 75 79 76 92
7 62 79 96 48 9 5 5 10 33 14 32 21 10 5 17 5 8 92 35 5 5 96 16 2 5 5 76 78 12 20 64 28 83 80 65 68 100 95 83 90 99 84 78
36 29 26 12 5 5 37 6 14 7 17 25 5 5 5 5 5 8 48 98 73 5 100 30 5 5 6 86 41 61 69 86 74 88 55 54 81 81 74 83 76 62 65 73
7 5 5 5 30 7 11 5 5 5 5 5 5 5 5 5 6 7 75 96 89 21 74 9 5 5 74 78 26 5 56 69 92 85 93 100 100 100 94 69 86 95 92 89
8 9 59 57 49 81 58 32 46 19 30 20 9 29 61 52 40 78 90 66 32 5 18 5 5 21 75 65 75 74 41 42 74 95 99 100 100 99 100 89 90 88 78 80
8 16 13 25 45 78 79 82 40 57 44 47 9 5 5 63 70 99 92 57 5 5 5 5 5 6 5 70 10 85 99 98 93 77 45 97 95 97 100 100 100 99 100 100
34 43 61 98 100 100 61 96 48 68 84 40 5 5 5 5 56 15 44 19 5 5 5 64 9 5 5 100 46 6 94 88 6 56 94 100 100 100 100 90 92 71 64 57
98 100 93 82 73 90 90 94 100 100 89 80 58 71 36 65 11 5 5 6 5 5 48 5 9 13 7 59 5 6 51 68 72 42 5 16 91 100 98 97 88 62 92 96
90 68 60 90 100 96 98 97 96 99 97 100 100 100 100 88 11 5 60 51 8 98 54 96 100 99 93 47 7 18 93 100 100 100 75 8 50 100 100 100 91 69 89 83
100 100 99 100 100 45 34 41 37 53 66 56 74 100 100 100 37 5 5 36 81 85 87 96 79 82 84 97 94 77 97 93 90 88 85 53 79 99 100 100 95 84 64 54

GFSNGP_prec_cloud_114.txt.gz
Cloud_Cover
100 100 100 100 100 100 100 100 100 100 100 100 100 100 100 100 100 100 100 100 100 100 100 100 100 100 100 100 100 100 100 100 100 100 100 100 100 58 100 100 100 100 100 100
100 100 100 100 100 100 100 100 100 100 100 100 100 100 100 100 100 100 100 100 100 100 100 100 100 100 100 100 100 100 100 100 100 100 100 100 100 100 100 100 100 100 100 100
100 100 100 100 100 100 100 100 100 100 100 100 100 100 100 100 100 100 100 100 100 100 100 100 100 100 100 100 100 100 100 100 100 100 100 100 100 100 100 100 100 100 100 100
100 100 100 100 100 100 100 100 100 100 100 100 100 100 100 100 100 100 100 100 100 100 98 100 100 100 100 100 100 100 100 100 100 100 100 100 100 100 100 100 100 100 100 100
100 100 100 100 100 100 100 100 100 100 100 100 100 100 100 100 100 100 100 99 93 41 100 100 100 100 100 100 100 100 100 100 100 100 100 100 100 100 100 100 100 100 100 100
100 100 100 100 100 100 100 100 100 100 100 100 100 100 100 100 100 100 98 75 98 76 87 92 100 100 100 100 100 100 100 100 100 100 100 100 100 100 100 100 100 100 100 100
100 100 91 100 99 100 100 100 100 100 100 100 100 100 100 100 76 90 99 100 79 77 100 100 100 100 100 100 100 100 100 100 100 100 100 100 100 100 100 100 100 100 100 100
100 100 92 52 79 99 100 100 100 100 100 100 100 100 100 100 100 100 100 100 100 100 100 100 100 100 100 100 100 88 96 100 100 92 100 100 100 100 100 100 100 100 100 100
100 100 100 96 100 100 100 100 100 100 100 100 100 100 100 100 100 100 100 100 100 100 100 100 100 100 100 100 100 87 88 93 97 100 100 100 100 100 100 100 100 100 100 100
100 100 100 100 100 100 100 100 100 100 100 100 100 100 100 100 100 100 97 93 86 87 99 100 100 100 100 99 97 90 89 93 100 100 88 100 100 98 100 100 100 100 100 100
100 100 100 100 100 100 100 100 100 100 100 100 84 94 96 82 99 87 51 41 57 96 100 91 93 100 98 98 91 77 72 87 93 100 100 100 100 100 100 100 100 100 100 100
99 100 100 100 100 100 100 100 32 8 58 68 36 36 76 91 66 36 15 8 6 83 76 30 66 73 76 75 99 100 93 97 92 99 100 100 100 100 100 100 100 100 100 100
100 100 100 100 93 85 22 5 24 5 5 5 5 23 83 95 96 99 76 73 5 63 90 64 64 85 86 91 88 84 84 96 82 82 99 100 100 100 100 100 100 100 100 100
100 100 84 99 30 99 5 53 47 5 5 5 5 5 5 5 5 5 5 28 5 5 12 25 60 69 96 99 84 82 84 79 88 95 91 79 76 94 100 100 100 100 100 100
100 100 99 88 55 22 5 5 5 5 5 5 5 5 5 5 79 100 17 9 25 5 5 5 37 26 77 90 75 92 90 87 72 78 87 75 51 47 66 100 100 100 100 100
98 100 97 96 64 10 5 5 5 5 5 5 5 68 7 5 5 10 86 5 5 58 5 5 7 5 23 66 62 83 79 22 22 72 70 81 75 67 85 73 100 100 100 100
5 5 5 5 5 5 5 5 5 5 5 5 5 5 5 5 5 6 5 81 14 7 10 5 5 5 57 87 53 77 100 86 93 58 78 75 81 81 70 84 90 83 94 98
5 5 5 5 5 5 5 5 5 5 5 5 5 5 5 9 36 35 77 6 5 5 5 8 5 5 20 44 27 65 66 62 54 89 64 62 82 92 91 77 88 85 96 100
5 5 5 5 5 5 5 5 5 5 15 22 5 8 20 38 16 38 86 45 5 15 19 5 5 5 15 31 24 13 80 88 79 78 95 83 76 100 99 90 85 93 96 97
15 6 5 5 5 5 8 13 6 5 40 9 12 12 5 9 60 70 91 16 39 79 97 22 5 5 35 5 66 5 33 84 97 100 100 93 88 98 90 89 95 100 100 100
5 5 5 5 56 15 5 5 5 5 5 5 5 10 32 24 70 41 93 57 5 22 5 5 5 5 53 29 9 50 32 52 71 86 100 100 100 98 97 90 94 99 97 100
8 7 23 23 9 93 47 20 12 25 42 28 70 88 28 62 95 5 5 30 5 14 5 5 5 32 37 74 18 69 55 43 73 45 74 93 100 100 100 100 99 97 98 95
5 5 16 26 73 100 100 69 43 44 61 53 33 21 8 69 70 62 50 5 8 5 9 5 5 17 58 68 15 70 6 6 51 96 95 78 94 78 86 100 100 100 100 84
64 99 100 100 100 100 96 100 98 92 8 10 8 5 5 82 95 55 7 10 5 5 51 8 5 6 58 18 28 56 90 5 25 83 100 68 94 100 84 88 67 77 95 100
100 100 89 78 73 56 56 55 30 32 72 49 57 90 100 76 58 69 67 77 61 5 20 54 7 56 39 75 5 32 100 88 88 96 76 100 100 70 92 78 87 29 90 92
100 100 100 100 99 96 53 59 84 57 90 92 99 85 98 92 100 100 100 98 29 5 33 30 56 68 88 40 7 43 38 31 86 65 80 17 47 97 100 70 56 100 96 69
100 100 100 91 100 100 94 36 49 75 77 85 88 82 91 100 100 100 100 87 45 78 66 54 37 89 78 84 84 46 11 44 85 86 59 49 21 82 100 95 100 98 73 71

GFSNGP_prec_cloud_117.txt.gz
Cloud_Cover
100 100 100 100 100 100 100 100 100 100 100 100 100 100 100 100 100 100 100 100 100 100 100 100 100 100 100 100 99 100 100 100 100 100 100 100 100 100 100 100 100 100 100 100
100 100 100 100 100 100 100 100 100 100 100 100 100 100 100 100 100 100 100 100 100 100 100 100 100 100 100 100 100 100 100 100 100 100 100 100 100 100 100 100 100 100 100 100
100 100 100 100 100 100 100 100 100 100 100 100 100 100 100 100 100 100 100 100 100 100 100 100 100 100 100 100 100 100 100 100 100 100 100 100 100 100 100 100 100 100 100 100
100 100 100 100 100 100 100 100 100 100 100 100 100 100 100 100 100 100 100 100 100 100 100 100 100 100 100 83 92 81 74 98 100 100 100 100 99 100 100 100 100 100 100 100
100 100 100 100 100 100 100 100 100 100 100 100 100 100 100 100 100 100 100 100 100 87 100 100 89 94 100 85 52 100 100 100 97 99 100 100 99 100 100 100 100 100 100 100
100 100 100 100 100 100 100 100 100 100 100 100 100 100 100 100 100 100 100 100 100 100 100 100 96 79 100 100 100 100 100 100 100 100 100 100 100 100 100 100 100 100 100 100
100 100 100 100 100 100 100 100 100 91 81 100 100 100 100 100 100 100 100 100 100 100 100 97 84 45 94 100 100 100 100 100 100 100 100 100 100 100 100 100 100 100 100 100
100 100 100 100 100 100 100 98 100 100 100 92 82 100 100 91 94 92 49 94 86 99 81 77 78 83 87 100 97 94 100 100 100 100 81 90 97 100 100 100 100 100 100 100
100 100 99 100 100 94 94 100 100 100 100 100 100 100 100 100 100 98 66 97 100 100 100 100 99 100 98 100 98 100 100 100 100 100 100 80 92 100 100 100 100 100 100 100
100 100 100 100 98 100 98 87 82 94 100 100 100 88 91 100 65 55 74 100 100 100 100 90 80 76 99 99 100 99 100 100 100 100 100 100 100 100 100 100 99 100 100 98
100 100 100 100 100 98 100 100 100 100 100 100 100 100 100 100 100 100 100 88 20 59 74 83 84 90 92 100 97 100 100 100 100 100 100 28 90 100 100 100 100 100 99 96
100 100 100 100 100 95 99 97 100 99 56 38 9 32 60 83 64 60 52 16 25 40 48 47 28 80 94 96 88 99 100 100 100 100 99 14 8 64 97 100 100 100 100 100
100 100 100 100 100 100 100 100 100 100 40 5 5 5 5 5 5 5 5 5 8 29 8 5 5 5 63 93 89 99 99 91 86 93 96 88 70 68 78 57 76 100 100 99
100 100 100 100 93 95 94 20 5 5 5 5 5 5 5 5 15 5 5 5 4 5 5 5 5 5 54 69 93 94 38 82 100 98 100 79 80 80 78 99 87 79 100 96
100 100 100 81 38 64 54 5 5 5 5 5 5 5 5 5 86 100 6 5 5 5 5 5 5 5 44 51 67 100 98 68 75 78 78 73 66 63 66 79 84 93 93 91
100 100 100 92 28 5 5 5 5 5 5 5 5 5 5 5 5 10 65 5 26 88 11 5 5 5 93 76 75 62 38 60 77 73 73 74 59 62 60 69 76 85 90 100
62 78 100 100 75 5 5 5 5 5 5 5 5 5 5 5 5 5 5 23 13 29 10 5 5 5 68 63 73 100 87 64 97 6 66 84 92 75 72 76 89 94 100 94
16 5 5 5 5 5 5 5 5 5 5 5 5 5 5 6 29 67 62 5 5 5 5 5 5 30 67 69 54 71 80 85 72 96 62 82 89 100 100 94 84 84 89 56
5 5 5 5 5 5 5 5 5 5 5 5 5 44 47 54 20 29 68 5 61 56 5 5 5 24 65 62 45 62 62 65 76 75 82 83 88 86 87 82 67 66 68 78
7 36 9 5 5 5 5 5 6 5 34 12 48 11 5 24 82 100 68 5 13 43 50 5 5 5 51 10 85 36 15 59 67 100 100 97 90 91 96 90 80 80 63 54
7 5 5 5 48 37 9 14 5 9 44 5 5 9 54 76 83 98 89 54 7 5 7 5 5 5 48 72 38 66 54 62 52 89 90 100 100 100 84 83 85 83 89 86
14 8 34 32 5 54 5 9 42 40 19 9 82 97 78 68 96 32 6 8 5 41 29 5 5 38 67 87 19 62 5 42 99 89 99 97 96 100 100 100 96 88 96 96
27 29 31 32 52 82 99 82 45 25 6 32 34 28 46 19 59 48 5 6 5 5 11 15 14 26 100 71 38 84 66 41 90 82 96 100 100 100 100 91 100 97 99 92
15 47 100 100 96 100 68 40 9 20 10 21 33 21 5 82 96 43 13 36 5 7 27 58 70 16 89 86 43 88 100 98 88 100 76 100 100 100 100 100 100 100 86 94
46 67 89 100 64 72 30 13 7 43 42 33 16 45 100 100 98 94 58 38 76 68 60 99 96 95 96 91 88 46 94 100 100 99 100 100 100 100 100 100 62 69 98 100
7 63 100 86 33 20 8 40 69 75 85 77 61 71 63 100 100 100 80 29 72 100 100 44 94 100 100 100 100 75 14 26 95 100 100 100 66 67 100 94 90 100 100 100
84 100 100 82 41 10 58 81 96 89 84 84 84 100 90 96 89 90 23 64 98 100 96 91 97 96 80 100 92 70 64 58 74 95 100 100 95 74 100 100 89 100 100 100

GFSNGP_prec_cloud_120.txt.gz
Cloud_Cover
100 100 100 100 100 100 100 100 100 100 100 100 100 100 100 100 100 100 100 100 100 100 100 100 100 100 100 100 100 98 80 95 100 100 100 100 100 100 100 100 100 100 100 100
100 100 100 100 100 100 100 100 100 100 100 100 100 100 100 100 100 100 100 100 100 100 100 100 100 100 100 73 98 99 100 100 100 100 100 100 100 100 100 100 100 100 100 100
100 100 100 100 100 100 100 100 100 100 100 100 100 100 100 100 100 100 100 100 99 100 100 100 100 100 100 100 100 100 100 97 88 100 100 100 100 100 100 100 100 100 100 100
100 100 100 100 100 100 100 100 100 100 100 100 100 100 100 100 100 100 100 100 100 100 100 100 100 100 100 100 100 100 100 100 100 100 100 100 100 94 100 100 100 100 100 100
100 100 100 100 100 100 100 100 100 100 100 100 100 100 100 100 100 100 100 100 100 100 100 100 100 100 100 100 100 100 100 100 100 100 100 100 100 100 100 100 100 100 100 100
100 100 100 100 100 100 100 100 100 82 97 99 100 92 100 100 100 100 100 100 100 100 100 100 100 100 100 100 100 100 48 80 100 100 100 100 100 100 100 100 100 100 100 100
100 100 100 100 100 100 100 100 100 84 56 100 87 90 96 59 79 73 100 100 100 100 89 99 99 96 99 97 100 95 29 44 85 100 100 100 100 100 100 100 100 97 100 92
100 100 100 100 100 100 100 100 100 14 56 99 71 94 100 62 5 53 79 100 88 100 95 92 98 100 100 100 100 100 75 5 40 88 100 100 100 100 100 100 79 79 90 88
100 100 100 100 100 100 100 100 100 84 15 5 27 87 77 90 5 42 79 85 99 100 100 100 100 100 100 100 99 100 99 89 8 74 86 99 100 100 100 100 100 100 100 100
100 100 100 100 100 100 100 100 100 100 59 28 44 12 23 6 55 7 97 100 92 79 76 93 87 96 100 100 100 100 100 87 90 8 24 96 100 100 100 100 100 100 86 83
100 100 100 100 100 100 100 100 100 100 100 92 13 15 5 5 5 5 5 5 5 6 67 58 42 79 99 98 100 100 100 100 100 95 10 5 42 99 100 100 100 100 100 100
100 100 100 100 100 100 100 100 100 98 82 88 46 43 28 63 9 5 5 14 37 5 5 5 5 66 85 99 100 100 97 100 100 100 94 58 8 7 50 100 100 100 100 98
100 100 100 100 100 100 100 100 100 99 98 78 6 5 5 5 5 5 5 5 5 5 5 5 5 69 83 100 97 97 94 99 100 100 89 92 74 84 88 65 67 98 100 100
100 100 100 100 100 100 100 100 100 99 29 5 5 5 5 5 5 5 5 5 5 5 5 5 5 68 96 100 91 89 69 69 100 100 90 65 78 83 82 97 92 70 46 100
100 100 100 100 100 100 100 100 100 76 5 5 5 5 5 5 85 36 5 5 5 5 5 0 6 62 85 92 68 80 78 88 69 75 79 57 59 59 60 38 66 87 64 83
100 99 100 100 100 100 100 100 85 44 21 5 5 5 5 5 6 26 80 14 15 62 5 5 5 95 86 82 82 84 72 88 71 49 78 78 60 58 57 60 60 82 100 100
5 48 35 100 100 100 100 100 18 5 5 5 5 5 5 5 5 5 5 5 14 17 5 5 27 94 53 70 61 89 83 70 89 15 76 99 94 89 84 71 89 100 100 82
45 64 11 5 54 100 100 100 99 86 30 5 5 5 5 6 23 69 11 5 5 5 5 5 28 65 14 72 50 59 63 59 73 99 86 82 87 94 85 72 74 72 77 42
53 100 100 40 5 5 34 21 5 5 5 5 5 5 7 20 6 39 47 5 54 42 5 5 6 20 49 61 48 50 37 26 27 62 84 86 84 88 87 83 67 71 57 42
5 5 5 5 20 5 5 5 5 5 23 51 34 27 24 58 91 100 54 5 5 13 49 5 5 9 44 10 86 38 6 26 39 49 63 68 87 97 95 89 88 92 98 88
17 29 6 9 39 45 6 5 15 43 55 39 5 9 67 91 100 100 62 63 5 5 10 5 5 5 58 69 38 26 7 80 84 98 100 100 86 95 94 100 95 96 96 100
24 10 54 48 19 85 60 17 5 37 5 5 100 98 73 54 100 47 33 32 5 21 16 26 5 18 56 87 5 59 6 22 94 95 100 100 100 100 91 86 98 100 100 94
58 36 31 14 12 65 22 5 5 5 5 39 68 64 30 29 57 77 38 6 5 5 6 12 21 17 54 80 28 80 100 82 84 84 77 100 100 100 99 98 94 91 100 99
54 39 32 7 51 17 6 12 9 5 8 10 5 27 50 83 94 47 23 42 42 11 5 5 69 88 59 83 99 81 91 100 100 100 100 89 100 100 99 100 100 98 95 100
34 18 34 61 62 24 22 5 8 34 16 56 77 78 73 90 97 94 100 97 83 71 23 33 22 93 95 100 100 100 100 90 100 100 100 100 100 100 99 88 92 96 100 100
49 54 68 44 32 12 8 18 22 29 54 68 64 65 62 69 92 100 100 100 55 45 88 97 99 100 100 100 100 100 100 94 59 96 100 98 100 100 93 95 100 100 100 100
47 55 52 80 65 55 70 60 82 81 82 81 88 60 81 100 90 80 86 86 95 100 100 100 84 69 71 81 87 98 100 99 99 100 90 99 100 100 100 100 100 100 99 100

GFSNGP_prec_cloud_123.txt.gz
Cloud_Cover
96 100 100 100 100 100 96 100 100 100 100 100 100 100 100 100 100 100 100 100 100 100 100 100 100 100 100 98 100 100 100 100 99 100 100 100 100 100 100 100 100 100 100 100
100 100 100 100 100 100 100 100 100 100 100 100 100 100 100 100 100 100 100 100 100 100 100 100 100 100 98 97 100 99 76 100 94 99 97 100 96 100 100 100 100 100 100 100
100 100 100 100 100 100 100 100 100 100 100 100 100 100 100 100 100 100 100 100 100 100 100 100 100 100 100 100 100 100 100 100 100 98 92 100 100 100 100 100 100 100 100 100
100 100 100 100 100 100 100 100 100 100 100 100 100 100 100 100 100 100 100 100 100 100 100 100 100 100 100 100 100 100 100 100 100 100 100 95 99 100 100 100 98 100 100 100
100 100 100 100 100 100 100 100 100 100 100 100 100 100 100 100 100 100 100 100 100 100 100 100 100 100 100 100 100 100 100 100 100 100 100 100 100 100 100 100 100 100 100 100
100 100 100 100 100 100 100 100 100 100 100 100 100 100 100 100 100 100 100 100 100 100 100 100 100 100 100 100 100 100 100 100 100 100 100 100 100 100 100 100 100 100 100 100
100 100 100 100 100 100 100 100 100 100 100 100 100 100 100 100 100 100 100 100 100 100 100 100 100 100 100 100 100 100 100 100 100 100 100 100 100 100 100 100 100 100 100 100
100 100 100 100 100 100 100 100 100 29 80 67 90 99 100 100 100 100 100 100 100 100 100 100 100 100 99 100 100 100 100 100 100 99 100 100 100 100 100 100 100 100 100 100
100 100 100 100 100 100 100 100 100 100 39 41 81 99 88 90 75 91 100 100 100 100 100 100 100 100 100 100 99 99 90 100 98 80 80 99 100 100 100 100 100 96 100 100
100 90 80 100 100 100 100 100 100 100 100 98 41 71 72 40 68 72 63 28 66 38 17 76 100 100 100 100 99 99 95 100 96 99 90 87 93 100 100 100 100 100 100 100
100 100 100 100 100 100 100 100 100 100 100 100 94 98 78 59 11 84 80 75 64 11 5 55 75 97 100 100 97 85 99 97 99 100 84 49 92 96 100 100 100 100 100 100
100 100 100 100 100 100 100 100 100 100 100 100 77 87 40 51 51 18 9 16 37 38 8 5 57 77 100 99 100 96 87 100 97 100 98 55 60 86 52 98 100 100 100 100
100 100 100 100 100 100 100 100 100 100 100 100 96 99 100 99 29 7 21 5 5 5 5 5 6 69 100 98 94 95 100 100 95 93 94 78 86 100 96 51 13 84 100 100
24 99 100 100 100 100 100 100 100 100 100 100 100 100 96 46 22 11 5 9 5 5 5 10 25 96 100 100 96 90 100 64 92 100 99 99 100 98 100 100 95 79 28 20
86 82 100 100 100 100 100 100 100 100 100 100 100 100 67 10 10 5 5 5 2 0 0 0 17 99 100 97 99 100 96 99 98 89 100 88 100 100 100 99 95 83 26 5
100 51 56 100 100 100 100 100 100 100 100 100 100 53 20 5 6 5 22 5 5 5 1 4 82 100 100 69 54 21 74 66 51 100 100 100 100 100 100 100 100 100 88 94
42 73 82 100 73 100 100 100 100 98 100 90 70 8 5 5 5 5 5 5 5 5 1 5 100 100 85 86 61 32 35 75 57 100 100 100 100 100 100 100 100 100 100 44
5 100 100 100 100 69 68 100 100 100 94 81 65 13 5 5 5 5 5 5 5 5 5 5 64 37 5 92 34 26 5 40 95 100 100 100 100 100 100 100 100 100 100 91
5 80 100 100 100 95 15 5 12 42 47 28 6 5 5 5 6 54 7 5 5 5 5 5 28 47 5 58 21 51 66 46 73 78 99 93 100 100 100 100 100 100 100 100
5 11 64 100 100 100 48 71 24 5 5 5 5 5 5 5 70 95 62 5 5 5 5 5 5 10 76 5 36 5 5 45 67 88 97 98 100 100 100 100 100 100 100 100
10 5 5 51 93 96 86 73 63 84 25 5 8 15 6 60 87 87 56 15 54 17 5 8 5 5 5 28 4 5 57 84 99 100 98 81 97 100 100 100 100 100 100 100
58 38 49 61 73 96 100 98 70 48 61 44 60 70 86 38 90 81 6 6 9 18 5 5 5 5 14 85 5 5 5 55 100 100 100 100 90 97 100 100 100 100 100 100
8 36 54 72 100 95 62 73 76 60 10 16 34 65 34 20 6 35 58 44 28 5 5 5 4 5 5 19 89 97 87 12 72 100 100 100 100 100 100 100 100 100 100 100
13 38 55 55 47 69 67 31 29 59 53 68 70 46 23 8 40 74 83 74 63 30 5 5 5 8 99 58 99 100 100 100 95 84 100 92 100 100 100 100 98 100 100 92
25 39 52 59 61 48 47 68 35 43 50 70 66 32 15 48 51 26 100 100 100 50 5 5 11 21 61 100 100 98 91 100 100 100 100 100 100 100 100 100 100 100 100 100
14 38 64 54 11 56 78 52 51 53 50 33 18 27 51 65 84 94 100 94 94 35 26 17 35 61 91 76 92 100 100 100 99 100 99 100 100 100 100 100 100 100 100 100
24 46 31 25 92 98 65 69 64 53 40 60 63 38 35 82 92 76 72 100 93 67 70 84 87 81 99 90 32 38 97 100 99 100 100 100 100 100 100 100 100 100 100 100

GFSNGP_prec_cloud_129.txt.gz
Cloud_Cover
100 99 78 52 62 81 87 100 96 100 100 100 100 100 100 100 100 100 100 100 100 100 100 100 100 100 100 100 100 100 100 100 100 100 69 46 87 100 100 99 100 100 100 100
100 74 100 64 21 100 94 97 100 100 100 100 100 100 99 100 100 100 100 100 100 100 100 100 100 100 100 100 100 100 100 100 100 100 100 100 100 100 100 100 100 100 100 100
98 50 100 100 60 100 89 100 100 100 100 100 100 100 100 89 100 100 100 100 100 100 100 100 100 100 100 100 100 100 100 100 100 100 100 100 100 100 100 100 100 100 100 100
100 100 99 99 75 100 100 100 100 100 100 100 100 100 93 96 100 100 100 100 100 100 100 100 100 100 100 100 100 100 100 100 100 100 100 100 100 100 100 100 100 100 100 100
92 100 95 100 91 100 100 100 100 100 100 100 100 100 100 87 100 100 100 100 100 100 100 100 100 100 100 100 100 100 100 100 100 100 100 100 100 100 100 100 100 100 100 100
98 100 100 100 84 100 100 100 100 100 100 100 100 100 100 86 96 86 100 100 100 100 100 100 100 100 100 100 100 100 100 100 100 100 100 100 100 100 100 100 100 100 100 100
94 98 99 81 98 64 96 100 100 100 100 100 100 88 100 100 92 68 44 77 96 100 100 100 100 100 100 100 100 100 100 100 100 100 100 100 100 100 100 99 100 100 97 98
98 100 99 70 93 90 99 100 100 100 100 100 100 98 72 71 100 100 80 81 63 66 99 100 100 100 100 100 100 100 100 100 100 100 100 100 100 100 94 100 100 100 90 87
36 96 98 100 100 98 100 100 100 100 100 100 100 100 59 31 49 100 100 84 100 98 91 100 100 48 100 100 100 100 100 100 100 100 100 100 100 100 100 100 100 100 100 100
72 100 100 100 100 99 100 100 100 100 100 100 100 97 100 48 12 63 61 100 91 52 84 92 83 100 61 11 50 52 96 81 82 97 100 100 99 100 100 100 100 100 100 100
98 100 99 100 100 100 100 100 100 100 100 100 100 100 100 96 65 23 8 57 58 91 98 65 70 56 71 100 96 62 30 28 16 5 5 5 12 11 71 90 96 100 100 100
73 7 66 62 100 100 100 100 100 100 100 100 100 100 100 100 100 95 5 5 9 5 32 76 71 84 74 66 63 97 100 94 85 84 41 29 8 40 91 51 45 95 49 100
28 7 84 47 75 100 100 100 100 100 100 100 100 100 100 100 100 100 30 5 5 5 5 5 5 5 5 5 5 5 5 5 14 29 42 72 72 96 99 84 100 100 97 100
24 61 77 76 25 100 100 100 100 100 100 100 100 100 100 100 100 100 100 100 100 100 100 29 4 5 5 5 5 14 86 76 80 98 100 95 97 100 100 100 100 100 100 61
28 42 12 60 73 98 100 100 100 100 100 100 100 100 100 100 100 100 100 100 100 100 100 15 1 5 5 5 31 45 61 69 48 99 100 99 100 100 100 100 100 100 100 99
78 82 69 23 6 51 100 100 100 100 100 100 100 100 100 100 100 100 100 100 100 95 5 5 5 40 33 17 49 21 81 93 83 100 100 100 100 100 100 100 100 100 100 100
70 57 26 11 5 5 76 100 100 100 100 100 100 100 100 100 100 100 99 49 71 23 5 5 22 71 80 86 79 80 99 100 92 100 100 100 100 100 100 100 100 100 100 100
71 81 68 24 5 5 13 99 100 100 100 100 100 100 99 87 76 26 14 25 7 5 7 5 25 74 99 17 22 97 100 100 100 100 100 100 100 100 100 100 100 100 100 100
89 86 72 59 37 25 38 41 76 100 100 100 100 100 100 100 100 63 46 7 5 42 100 7 5 62 100 56 5 77 100 100 100 100 100 99 100 100 100 100 100 100 100 100
68 60 5 27 97 92 80 84 92 100 100 100 75 100 100 52 44 53 6 5 17 77 10 5 5 80 74 59 6 44 100 100 100 100 100 100 100 100 100 100 100 100 100 100
26 5 5 5 68 100 100 100 100 96 82 40 6 37 100 56 45 92 99 95 86 28 5 5 5 5 5 5 5 92 100 100 100 100 100 100 100 100 100 100 100 100 100 100
21 11 5 5 5 12 78 54 60 99 100 100 100 100 100 100 100 100 100 54 89 20 26 71 96 45 5 5 40 100 100 100 100 100 100 100 100 100 100 100 100 100 100 100
82 74 76 40 7 46 79 88 100 100 100 100 100 100 100 100 100 100 89 75 68 86 64 100 100 8 5 18 100 100 100 100 100 100 100 100 100 100 100 100 100 100 100 100
54 72 88 78 57 73 97 100 100 100 100 100 100 100 100 77 68 64 67 93 52 44 100 100 100 66 5 85 100 100 100 100 100 100 100 100 100 100 100 100 100 100 100 100
49 65 88 86 32 43 66 97 100 100 100 88 50 76 51 30 52 97 100 100 99 93 100 100 100 90 65 100 100 100 100 100 100 100 100 100 100 100 100 100 100 100 100 100
66 42 48 9 14 46 99 100 100 99 53 16 59 92 100 98 100 100 100 100 99 100 100 100 100 100 100 100 100 100 100 100 100 100 100 100 100 100 100 100 100 100 100 100
58 62 76 52 63 93 52 85 79 46 24 78 98 100 100 100 100 79 94 100 100 100 100 100 100 100 100 100 100 100 100 100 100 100 100 100 100 100 100 100 100 100 100 100

GFSNGP_prec_cloud_132.txt.gz
Cloud_Cover
100 100 100 100 100 100 100 94 88 98 79 100 100 100 100 100 100 100 100 99 100 100 100 100 100 100 100 100 100 100 100 100 100 100 100 100 100 100 100 100 100 100 100 100
100 100 100 100 100 100 99 100 100 69 96 100 100 100 100 100 100 96 92 94 100 100 100 100 100 100 100 100 100 100 100 100 100 100 100 100 100 100 100 100 100 88 100 100
100 100 100 100 100 44 68 76 86 89 95 100 100 100 100 100 100 100 99 100 100 99 100 100 100 100 100 100 100 100 100 100 100 100 100 100 100 100 100 100 100 100 90 100
100 100 100 100 42 42 81 87 69 90 100 100 90 100 100 98 100 95 100 100 100 100 100 100 100 100 100 100 100 100 100 100 100 100 100 100 100 100 100 100 100 100 100 100
100 100 100 97 31 35 67 88 67 90 100 100 100 100 100 99 100 69 100 100 100 100 100 100 100 100 100 100 100 100 100 100 100 100 100 100 100 100 100 100 100 100 100 100
100 100 100 88 37 79 88 62 23 100 100 100 100 100 100 100 100 79 85 90 100 100 100 100 100 100 100 100 100 100 100 100 100 100 100 100 100 100 100 100 100 100 100 95
100 100 87 100 96 15 78 70 5 83 100 100 100 100 90 100 100 100 54 84 100 100 100 100 100 100 100 100 100 100 100 100 100 100 100 100 100 100 100 100 100 100 93 91
100 92 100 57 95 92 48 78 61 85 100 100 100 100 87 79 75 98 100 80 79 100 100 100 100 100 100 100 100 100 100 100 100 100 100 100 100 99 99 64 77 97 100 93
100 93 87 76 63 99 60 56 78 100 100 100 100 100 100 100 95 32 71 97 100 77 99 85 90 100 100 100 100 100 100 100 100 100 100 100 100 100 100 100 100 100 100 100
15 74 100 100 97 100 89 90 99 100 100 100 100 100 100 100 100 96 95 25 47 100 90 40 72 99 79 96 100 100 98 100 99 100 100 100 100 100 100 100 100 100 100 100
74 98 98 100 100 75 87 100 100 100 100 100 100 100 100 100 100 100 100 69 7 5 49 80 43 49 21 25 62 73 98 100 86 14 69 39 82 76 37 12 84 74 97 44
10 5 15 37 100 65 71 100 100 100 100 100 100 100 100 100 100 100 100 70 13 5 5 5 6 5 6 37 5 29 25 41 50 52 100 100 39 25 89 97 81 67 92 85
50 4 73 46 100 46 6 98 100 100 100 100 100 100 100 100 100 100 100 100 100 99 98 5 5 3 4 5 5 5 78 5 57 69 63 5 7 5 5 4 5 37 97 28
5 6 78 100 96 82 17 87 100 100 100 100 100 100 100 100 100 100 100 100 100 100 100 100 100 100 100 5 5 5 67 10 5 8 86 5 7 5 18 26 31 16 5 70
25 30 14 62 80 76 61 69 100 100 100 100 100 100 100 100 100 100 100 100 100 100 100 100 100 100 80 5 5 59 67 36 5 5 61 40 12 5 10 16 8 85 87 11
45 71 74 79 87 7 5 100 100 100 100 100 100 100 100 100 100 100 100 100 100 100 100 100 100 96 94 6 7 84 41 80 5 5 16 5 5 5 12 89 67 69 74 92
48 66 84 80 28 5 5 5 10 100 100 100 100 100 100 100 100 100 100 100 100 100 100 99 98 60 11 5 5 68 67 67 5 5 6 60 5 5 98 99 100 97 76 90
75 69 81 15 5 5 5 5 6 56 100 100 100 100 100 100 100 100 100 100 100 94 72 51 14 5 79 11 5 5 97 24 5 21 47 94 5 68 87 15 99 57 5 87
73 82 65 75 5 7 25 28 74 97 87 100 100 100 100 100 100 100 100 100 100 82 81 5 5 5 100 15 5 5 24 32 28 58 29 85 11 100 38 95 98 96 100 100
83 26 71 22 5 77 100 98 100 100 99 96 100 100 100 100 100 100 100 96 56 82 47 5 6 10 16 5 16 18 63 80 82 90 94 50 98 55 93 97 100 100 100 100
8 5 5 5 5 43 100 100 100 100 100 100 100 100 100 100 88 54 44 33 62 7 76 94 79 18 27 38 11 5 69 90 98 88 91 76 100 100 100 100 100 100 100 100
5 5 5 5 5 5 40 95 100 100 100 100 98 54 38 30 77 100 66 97 100 100 100 54 68 75 28 5 5 5 61 100 100 92 100 100 100 100 100 100 99 100 100 100
6 69 83 86 78 10 5 7 49 61 51 55 98 100 100 100 100 100 100 100 100 81 57 27 98 26 5 5 5 15 99 100 100 100 100 100 100 100 100 100 100 100 100 100
17 58 63 76 76 97 90 95 12 27 55 89 100 100 100 100 100 100 97 98 72 25 53 51 63 8 5 5 5 5 75 100 90 100 100 100 100 100 100 100 100 100 100 100
93 55 76 68 94 98 82 94 67 41 96 100 100 86 99 100 85 100 95 88 77 67 76 96 88 95 80 78 14 37 85 100 100 100 100 100 100 100 100 100 100 100 100 100
99 79 74 46 39 46 76 23 67 14 64 68 30 46 52 23 48 23 93 99 62 69 79 90 97 99 100 100 100 100 100 100 100 100 100 100 100 100 100 100 100 100 100 100
86 84 83 65 72 97 81 5 7 56 40 79 74 100 96 100 99 100 84 47 91 100 100 98 100 98 99 69 93 100 100 97 100 100 99 96 80 92 100 100 77 78 99 100